Dirección General De Aeronáutica Civil

Dirección Meteorológica de Chile - Servicios Climáticos

Informe General de Control de Calidad de la Estación

Listado de niveles de control de calidad para algunos parámetros
Estación Los Cerrillos ad. (330023)
Fecha de Revisión de los datos :

Elementos

Registros Niveles de Control Total
Nivel 0 Nivel 1 Nivel 2 Nivel 3 Errores Porcentaje
01 Temperatura del Aire Seco 316.795 0 . 691 0.22 % 0 . 0 . 691 0.22 %
02 Temperatura de Rocío 304.051 3 0.00 % 0 . 0 . 0 . 3 0.00 %
03 Humedad Relativa del Aire 309.747 0 . 0 . 0 . 0 . 0 0.00 %
04 Temperatura Máxima PM 18.915 0 . 0 . 404 2.14 % 0 . 404 2.14 %
05 Temperatura Mínima AM 18.897 0 . 0 . 474 2.51 % 0 . 474 2.51 %
06 Viento a 10 m. de Altura 321.785 5 0.00 % 24 0.01 % 25 0.01 % 0 . 54 0.02 %
07 Agua Caida, Acumulada 6 Horas 54.209 0 . 93 0.17 % 0 . 0 . 93 0.17 %
08 Presión Atm. a Nivel de Estación (QFE) 295.790 0 . 0 . 0 . 0 . 0 0.00 %
09 Presión Atm. a Nivel Medio del Mar (QFF) 141.039 5 0.00 % 0 . 0 . 0 . 5 0.00 %
10 Tiempo Pasado Sinóptico 67.161 0 . 0 . 0 . 0 . 0 0.00 %
11 Tiempo Presente Sinóptico 155.234 0 . 13 0.01 % 0 . 0 . 13 0.01 %

Totales

2.003.623 . 0.0006 % . 0.0410 % . 0.0451 % . 0.0000 % 1,737 0.0867 %

Detalle de Errores Encontrados

Nivel Fecha del Dato Descripción Información Error Fecha Ingreso
0 1952-04-04 16:00:00 ff (Intensidad del Viento) debe ser numerico, entre 0 y 70 kt. 96 2014-04-28 21:20:00
0 1952-08-20 23:00:00 ff (Intensidad del Viento) debe ser numerico, entre 0 y 70 kt. 90 2014-05-14 15:26:00
0 1952-08-31 00:00:00 ff (Intensidad del Viento) debe ser numerico, entre 0 y 70 kt. 96 2014-05-19 15:18:00
0 1972-12-16 17:00:00 ff (Intensidad del Viento) debe ser numerico, entre 0 y 70 kt. 99 2012-09-13 11:42:00
0 1976-02-29 23:00:00 ff (Intensidad del Viento) debe ser numerico, entre 0 y 70 kt. 99 2012-09-13 12:06:00
0 1953-03-11 06:00:00 qff (Presión a nivel del Mar) debe ser numérico, entre 300 y 1100 103.8 2013-10-28 18:22:00
0 1953-04-05 09:00:00 qff (Presión a nivel del Mar) debe ser numérico, entre 300 y 1100 103.9 2013-11-06 13:12:00
0 1953-08-12 20:00:00 qff (Presión a nivel del Mar) debe ser numérico, entre 300 y 1100 107.8 2013-12-04 20:24:00
0 1953-09-16 13:00:00 qff (Presión a nivel del Mar) debe ser numérico, entre 300 y 1100 101.8 2013-09-12 13:41:00
0 1953-11-25 07:00:00 qff (Presión a nivel del Mar) debe ser numérico, entre 300 y 1100 103.7 2013-10-03 19:11:00
0 1965-01-11 12:00:00 Td (Temperatura Del Punto de Rocio) debe ser numérico, entre -50.0 y 50.0 -60.8
0 1979-03-24 12:00:00 Td (Temperatura Del Punto de Rocio) debe ser numérico, entre -50.0 y 50.0 -65.9
0 1993-11-04 13:00:00 Td (Temperatura Del Punto de Rocio) debe ser numérico, entre -50.0 y 50.0 -54.4
Errores del Nivel 13
Nivel Fecha del Dato Descripción Información Error Fecha Ingreso
1 1952-07-15 05:00:00 Viento calma fue mal ingresado. dd = 0 - ff = 1 2014-05-07 16:07:00
1 1952-07-15 06:00:00 Viento calma fue mal ingresado. dd = 90 - ff = 0 2014-05-07 16:07:00
1 1952-07-15 07:00:00 Viento calma fue mal ingresado. dd = 0 - ff = 2 2014-05-07 16:07:00
1 1952-07-15 08:00:00 Viento calma fue mal ingresado. dd = 40 - ff = 0 2014-05-07 16:07:00
1 1953-03-14 13:00:00 Viento calma fue mal ingresado. dd = 220 - ff = 0 2013-10-29 15:33:00
1 1953-04-12 12:00:00 Viento calma fue mal ingresado. dd = 90 - ff = 0 2013-11-07 12:56:00
1 1953-04-13 11:00:00 Viento calma fue mal ingresado. dd = 180 - ff = 0 2013-11-07 13:26:00
1 1953-04-13 12:00:00 Viento calma fue mal ingresado. dd = 180 - ff = 0 2013-11-07 13:26:00
1 1953-04-24 04:00:00 Viento calma fue mal ingresado. dd = 140 - ff = 0 2013-11-11 15:41:00
1 1953-04-28 05:00:00 Viento calma fue mal ingresado. dd = 180 - ff = 0 2013-11-11 20:24:00
1 1953-05-03 12:00:00 Viento calma fue mal ingresado. dd = 90 - ff = 0 2013-11-13 14:50:00
1 1953-05-16 02:00:00 Viento calma fue mal ingresado. dd = 0 - ff = 5 2013-11-18 12:02:00
1 1953-05-16 03:00:00 Viento calma fue mal ingresado. dd = 0 - ff = 5 2013-11-15 19:34:00
1 1953-05-16 05:00:00 Viento calma fue mal ingresado. dd = 0 - ff = 43 2013-11-18 12:00:00
1 1953-05-16 06:00:00 Viento calma fue mal ingresado. dd = 0 - ff = 45 2013-11-18 12:12:00
1 1953-09-16 08:00:00 Viento calma fue mal ingresado. dd = 0 - ff = 6 2013-09-12 13:31:00
1 1953-09-18 08:00:00 Viento calma fue mal ingresado. dd = 220 - ff = 0 2013-09-12 15:13:00
1 1953-09-23 07:00:00 Viento calma fue mal ingresado. dd = 140 - ff = 0 2013-09-13 14:20:00
1 1953-11-10 12:00:00 Viento calma fue mal ingresado. dd = 180 - ff = 0 2013-10-01 18:23:00
1 1953-11-21 02:00:00 Viento calma fue mal ingresado. dd = 220 - ff = 0 2013-10-03 14:42:00
1 1953-12-23 15:00:00 Viento calma fue mal ingresado. dd = 270 - ff = 0 2013-10-10 15:25:00
1 1953-12-27 05:00:00 Viento calma fue mal ingresado. dd = 0 - ff = 2 2013-10-11 12:24:00
1 1964-09-29 06:00:00 ff < 19kt y ((ww >= 31 y ww <= 35) o (ww == 37 o ww == 39 o ww >= 98))) 2012-09-13 11:03:00
1 1983-09-27 21:00:00 ff < 19kt y ((ww >= 31 y ww <= 35) o (ww == 37 o ww == 39 o ww >= 98))) 2012-09-13 13:05:00
1 1952-06-16 06:00:00 HR (Humedad Relativa) es igual a 100% y Ts <> Td 6.0 - 0.6 2014-05-06 15:14:00
1 1952-07-10 10:00:00 Ts debe ser mayor o igual a Td Ts=8.4 - Td=8.5 2014-05-07 14:20:00
1 1952-07-20 03:00:00 Ts debe ser mayor o igual a Td Ts=7.5 - Td=7.6 2014-05-07 20:51:00
1 1952-07-26 17:00:00 Ts debe ser mayor o igual a Td Ts=8.7 - Td=9.0 2014-05-08 19:50:00
1 1952-07-26 17:00:00 HR (Humedad Relativa) es igual a 100% y Ts <> Td 8.7 - 9.0 2014-05-08 19:50:00
1 1952-08-10 12:00:00 Ts debe ser mayor o igual a Td Ts=2.0 - Td=7.0 2014-05-13 19:09:00
1 1952-09-20 10:00:00 HR (Humedad Relativa) es igual a 100% y Ts <> Td 9.6 - 9.4 2014-05-20 19:56:00
1 1952-12-19 10:00:00 HR (Humedad Relativa) es igual a 100% y Ts <> Td 11.2 - 10.8 2014-06-03 14:19:00
1 1952-12-21 12:00:00 Ts debe ser mayor o igual a Td Ts=17.6 - Td=18.0 2014-06-03 15:22:00
1 1953-01-28 04:00:00 Ts debe ser mayor o igual a Td Ts=12.7 - Td=13.9 2013-10-17 20:13:00
1 1953-02-22 19:00:00 Ts debe ser mayor o igual a Td Ts=2.4 - Td=12.9 2013-10-24 17:53:00
1 1953-05-20 11:00:00 HR (Humedad Relativa) es igual a 100% y Ts <> Td 2.5 - 1.5 2013-11-18 19:59:00
1 1953-05-21 12:00:00 Ts debe ser mayor o igual a Td Ts=2.5 - Td=3.3 2013-11-18 20:23:00
1 1953-05-24 16:00:00 Ts debe ser mayor o igual a Td Ts=4.2 - Td=4.5 2013-11-19 15:21:00
1 1953-06-03 12:00:00 Ts debe ser mayor o igual a Td Ts=6.8 - Td=7.0 2013-11-21 15:27:00
1 1953-06-03 13:00:00 HR (Humedad Relativa) es igual a 100% y Ts <> Td 7.3 - 6.8 2013-11-21 15:31:00
1 1953-06-12 14:00:00 Ts debe ser mayor o igual a Td Ts=4.0 - Td=7.1 2013-11-22 18:10:00
1 1953-06-15 12:00:00 Ts debe ser mayor o igual a Td Ts=6.5 - Td=8.9 2013-11-25 14:34:00
1 1953-06-25 08:00:00 Ts debe ser mayor o igual a Td Ts=-0.3 - Td=-0.2 2013-11-26 19:34:00
1 1953-07-10 04:00:00 Ts debe ser mayor o igual a Td Ts=0.7 - Td=0.8 2013-12-02 15:48:00
1 1953-09-04 23:00:00 HR (Humedad Relativa) es igual a 100% y Ts <> Td 9.8 - 9.2 2013-09-06 19:38:00
1 1957-01-07 03:00:00 Ts debe ser mayor o igual a Td Ts=18.7 - Td=40.9 2012-09-13 01:33:00
1 1957-02-07 18:00:00 Ts debe ser mayor o igual a Td Ts=32.6 - Td=40.9 2012-09-13 01:33:00
1 1957-05-29 12:00:00 Ts debe ser mayor o igual a Td Ts=-0.3 - Td=0.2 2012-09-13 01:33:00
1 1957-07-07 15:00:00 Ts debe ser mayor o igual a Td Ts=0.8 - Td=14.2 2012-09-13 01:34:00
1 1957-07-19 09:00:00 Ts debe ser mayor o igual a Td Ts=-1.5 - Td=0.7 2012-09-13 01:34:00
1 1957-07-21 18:00:00 Ts debe ser mayor o igual a Td Ts=20.5 - Td=40.9 2012-09-13 01:34:00
1 1957-08-14 09:00:00 Ts debe ser mayor o igual a Td Ts=2.9 - Td=7.8 2012-09-13 01:34:00
1 1957-08-19 09:00:00 Ts debe ser mayor o igual a Td Ts=0.8 - Td=13.5 2012-09-13 01:34:00
1 1957-09-02 15:00:00 Ts debe ser mayor o igual a Td Ts=7.8 - Td=9.3 2012-09-13 01:34:00
1 1957-09-06 21:00:00 Ts debe ser mayor o igual a Td Ts=8.2 - Td=10.5 2012-09-13 01:34:00
1 1957-09-09 21:00:00 Ts debe ser mayor o igual a Td Ts=22.4 - Td=40.9 2012-09-13 01:34:00
1 1957-09-18 03:00:00 Ts debe ser mayor o igual a Td Ts=0.8 - Td=11.5 2012-09-13 01:34:00
1 1957-09-29 12:00:00 Ts debe ser mayor o igual a Td Ts=0.8 - Td=11.9 2012-09-13 01:34:00
1 1957-10-16 12:00:00 Ts debe ser mayor o igual a Td Ts=1.0 - Td=14.9 2012-09-13 01:34:00
1 1957-11-15 15:00:00 Ts debe ser mayor o igual a Td Ts=21.0 - Td=40.9 2012-09-13 01:34:00
1 1958-02-09 18:00:00 Ts debe ser mayor o igual a Td Ts=29.7 - Td=40.9 2012-09-13 01:35:00
1 1958-02-12 21:00:00 Ts debe ser mayor o igual a Td Ts=29.0 - Td=40.9 2012-09-13 01:35:00
1 1958-02-15 03:00:00 Ts debe ser mayor o igual a Td Ts=19.5 - Td=40.9 2012-09-13 01:35:00
1 1958-03-28 00:00:00 Ts debe ser mayor o igual a Td Ts=11.3 - Td=15.6 2012-09-13 01:35:00
1 1958-05-21 15:00:00 Ts debe ser mayor o igual a Td Ts=0.8 - Td=3.4 2012-09-13 01:35:00
1 1958-05-26 06:00:00 Ts debe ser mayor o igual a Td Ts=3.0 - Td=23.2 2012-09-13 01:35:00
1 1958-06-11 00:00:00 Ts debe ser mayor o igual a Td Ts=5.8 - Td=19.7 2012-09-13 01:35:00
1 1958-06-12 21:00:00 Ts debe ser mayor o igual a Td Ts=1.3 - Td=14.2 2012-09-13 01:35:00
1 1958-06-16 15:00:00 Ts debe ser mayor o igual a Td Ts=1.1 - Td=17.0 2012-09-13 01:35:00
1 1958-06-18 00:00:00 Ts debe ser mayor o igual a Td Ts=8.8 - Td=10.1 2012-09-13 01:35:00
1 1958-06-25 00:00:00 Ts debe ser mayor o igual a Td Ts=9.0 - Td=9.4 2012-09-13 01:35:00
1 1958-06-30 06:00:00 Ts debe ser mayor o igual a Td Ts=7.2 - Td=12.4 2012-09-13 01:35:00
1 1958-07-16 09:00:00 Ts debe ser mayor o igual a Td Ts=0.7 - Td=12.7 2012-09-13 01:36:00
1 1958-07-18 09:00:00 Ts debe ser mayor o igual a Td Ts=0.8 - Td=13.8 2012-09-13 01:36:00
1 1958-07-26 09:00:00 Ts debe ser mayor o igual a Td Ts=0.8 - Td=11.9 2012-09-13 01:36:00
1 1958-08-26 12:00:00 Ts debe ser mayor o igual a Td Ts=0.4 - Td=12.2 2012-09-13 01:36:00
1 1958-09-27 06:00:00 Ts debe ser mayor o igual a Td Ts=8.0 - Td=9.1 2012-09-13 01:36:00
1 1958-10-10 15:00:00 Ts debe ser mayor o igual a Td Ts=16.2 - Td=20.3 2012-09-13 01:36:00
1 1958-11-05 06:00:00 Ts debe ser mayor o igual a Td Ts=12.6 - Td=22.3 2012-09-13 01:36:00
1 1958-11-07 03:00:00 Ts debe ser mayor o igual a Td Ts=1.4 - Td=19.3 2012-09-13 01:36:00
1 1958-11-18 09:00:00 Ts debe ser mayor o igual a Td Ts=10.7 - Td=11.0 2012-09-13 01:36:00
1 1959-01-18 09:00:00 Ts debe ser mayor o igual a Td Ts=14.2 - Td=40.9 2012-09-13 01:36:00
1 1959-01-22 00:00:00 Ts debe ser mayor o igual a Td Ts=26.1 - Td=40.9 2012-09-13 01:37:00
1 1959-02-08 03:00:00 Ts debe ser mayor o igual a Td Ts=16.0 - Td=40.9 2012-09-13 01:37:00
1 1959-02-19 09:00:00 Ts debe ser mayor o igual a Td Ts=14.2 - Td=40.9 2012-09-13 01:37:00
1 1959-03-18 06:00:00 Ts debe ser mayor o igual a Td Ts=13.0 - Td=23.1 2012-09-13 01:37:00
1 1959-04-07 12:00:00 Ts debe ser mayor o igual a Td Ts=10.0 - Td=10.2 2012-09-13 01:37:00
1 1959-06-11 06:00:00 Ts debe ser mayor o igual a Td Ts=3.1 - Td=26.3 2012-09-13 01:37:00
1 1959-06-12 09:00:00 Ts debe ser mayor o igual a Td Ts=2.8 - Td=4.3 2012-09-13 01:37:00
1 1959-07-01 09:00:00 Ts debe ser mayor o igual a Td Ts=0.0 - Td=0.5 2012-09-13 01:37:00
1 1959-07-01 12:00:00 Ts debe ser mayor o igual a Td Ts=0.5 - Td=1.2 2012-09-13 01:37:00
1 1959-07-05 09:00:00 Ts debe ser mayor o igual a Td Ts=2.0 - Td=14.9 2012-09-13 01:37:00
1 1959-07-09 06:00:00 Ts debe ser mayor o igual a Td Ts=0.4 - Td=11.4 2012-09-13 01:38:00
1 1959-08-03 06:00:00 Ts debe ser mayor o igual a Td Ts=7.4 - Td=9.1 2012-09-13 01:38:00
1 1959-08-29 06:00:00 Ts debe ser mayor o igual a Td Ts=6.4 - Td=7.2 2012-09-13 01:38:00
1 1959-11-10 15:00:00 Ts debe ser mayor o igual a Td Ts=12.4 - Td=13.5 2012-09-13 01:38:00
1 1960-01-17 15:00:00 Ts debe ser mayor o igual a Td Ts=5.0 - Td=23.7 2012-09-13 01:39:00
1 1960-02-04 06:00:00 Ts debe ser mayor o igual a Td Ts=15.2 - Td=21.2 2012-09-13 01:39:00
1 1960-06-11 12:00:00 Ts debe ser mayor o igual a Td Ts=6.0 - Td=11.0 2012-09-13 01:39:00
1 1960-06-13 18:00:00 Ts debe ser mayor o igual a Td Ts=10.2 - Td=11.6 2012-09-13 01:39:00
1 1960-07-15 12:00:00 Ts debe ser mayor o igual a Td Ts=3.8 - Td=12.2 2012-09-13 01:40:00
1 1960-07-23 15:00:00 Ts debe ser mayor o igual a Td Ts=8.5 - Td=9.6 2012-09-13 01:40:00
1 1960-07-25 09:00:00 Ts debe ser mayor o igual a Td Ts=4.0 - Td=4.4 2012-09-13 01:40:00
1 1960-07-31 12:00:00 Ts debe ser mayor o igual a Td Ts=-1.0 - Td=4.1 2012-09-13 01:40:00
1 1960-08-06 12:00:00 Ts debe ser mayor o igual a Td Ts=9.3 - Td=21.6 2012-09-13 01:40:00
1 1960-10-05 21:00:00 Ts debe ser mayor o igual a Td Ts=12.0 - Td=20.8 2012-09-13 01:40:00
1 1961-01-21 03:00:00 Ts debe ser mayor o igual a Td Ts=13.3 - Td=15.2 2012-09-13 01:41:00
1 1961-01-27 09:00:00 Ts debe ser mayor o igual a Td Ts=15.2 - Td=20.2 2012-09-13 01:41:00
1 1961-02-18 15:00:00 Ts debe ser mayor o igual a Td Ts=24.0 - Td=40.9 2012-09-13 01:41:00
1 1961-03-26 15:00:00 Ts debe ser mayor o igual a Td Ts=21.4 - Td=40.9 2012-09-13 01:41:00
1 1961-04-06 21:00:00 Ts debe ser mayor o igual a Td Ts=25.1 - Td=40.9 2012-09-13 01:41:00
1 1961-06-02 06:00:00 Ts debe ser mayor o igual a Td Ts=8.9 - Td=9.6 2012-09-13 01:41:00
1 1961-06-14 09:00:00 Ts debe ser mayor o igual a Td Ts=0.0 - Td=0.2 2012-09-13 01:41:00
1 1961-07-28 03:00:00 Ts debe ser mayor o igual a Td Ts=3.4 - Td=12.1 2012-09-13 01:42:00
1 1961-09-03 06:00:00 Ts debe ser mayor o igual a Td Ts=2.0 - Td=3.7 2012-09-13 01:42:00
1 1961-09-28 09:00:00 Ts debe ser mayor o igual a Td Ts=3.2 - Td=4.1 2012-09-13 01:42:00
1 1961-11-13 12:00:00 Ts debe ser mayor o igual a Td Ts=9.8 - Td=12.8 2012-09-13 01:42:00
1 1961-11-25 06:00:00 Ts debe ser mayor o igual a Td Ts=14.2 - Td=18.0 2012-09-13 01:42:00
1 1962-01-04 21:00:00 Ts debe ser mayor o igual a Td Ts=12.9 - Td=20.1 2012-09-13 01:42:00
1 1962-01-08 06:00:00 Ts debe ser mayor o igual a Td Ts=11.6 - Td=14.8 2012-09-13 01:42:00
1 1962-02-11 00:00:00 Ts debe ser mayor o igual a Td Ts=12.2 - Td=19.6 2012-09-13 01:43:00
1 1962-03-07 15:00:00 Ts debe ser mayor o igual a Td Ts=11.4 - Td=14.9 2012-09-13 01:43:00
1 1962-06-23 03:00:00 Ts debe ser mayor o igual a Td Ts=2.0 - Td=8.9 2012-09-13 01:43:00
1 1962-07-18 09:00:00 Ts debe ser mayor o igual a Td Ts=1.3 - Td=2.6 2012-09-13 01:43:00
1 1962-08-28 15:00:00 Ts debe ser mayor o igual a Td Ts=0.7 - Td=11.4 2012-09-13 01:44:00
1 1962-12-31 15:00:00 Ts debe ser mayor o igual a Td Ts=4.5 - Td=22.6 2012-09-13 01:44:00
1 1963-04-22 15:00:00 Ts debe ser mayor o igual a Td Ts=8.6 - Td=15.4 2012-09-13 01:45:00
1 1963-06-03 03:00:00 Ts debe ser mayor o igual a Td Ts=4.0 - Td=7.5 2012-09-13 01:45:00
1 1963-06-04 03:00:00 Ts debe ser mayor o igual a Td Ts=5.0 - Td=5.4 2012-09-13 01:45:00
1 1963-08-01 09:00:00 Ts debe ser mayor o igual a Td Ts=3.5 - Td=3.9 2012-09-13 01:45:00
1 1963-08-05 18:00:00 Ts debe ser mayor o igual a Td Ts=18.3 - Td=40.9 2012-09-13 01:45:00
1 1963-08-08 21:00:00 Ts debe ser mayor o igual a Td Ts=1.4 - Td=14.9 2012-09-13 01:45:00
1 1963-08-18 09:00:00 Ts debe ser mayor o igual a Td Ts=10.8 - Td=11.0 2012-09-13 01:45:00
1 1963-09-11 12:00:00 Ts debe ser mayor o igual a Td Ts=5.2 - Td=12.6 2012-09-13 01:45:00
1 1964-04-03 12:00:00 Ts debe ser mayor o igual a Td Ts=8.7 - Td=10.6 2012-09-13 01:46:00
1 1964-07-02 12:00:00 Ts debe ser mayor o igual a Td Ts=0.2 - Td=0.4 2012-09-13 01:47:00
1 1964-07-11 21:00:00 Ts debe ser mayor o igual a Td Ts=16.0 - Td=40.9 2012-09-13 01:47:00
1 1964-08-01 18:00:00 Ts debe ser mayor o igual a Td Ts=12.6 - Td=20.8 2012-09-13 01:47:00
1 1964-11-23 12:00:00 Ts debe ser mayor o igual a Td Ts=11.8 - Td=12.1 2012-09-13 01:48:00
1 1965-01-01 18:00:00 Ts debe ser mayor o igual a Td Ts=3.0 - Td=25.3 2012-09-13 01:48:00
1 1965-01-01 18:00:00 Ts debe ser mayor o igual a Td Ts=3.0 - Td=25.3 2012-09-13 01:48:00
1 1965-01-02 15:00:00 Ts debe ser mayor o igual a Td Ts=4.2 - Td=23.5 2012-09-13 01:48:00
1 1965-02-08 00:00:00 Ts debe ser mayor o igual a Td Ts=14.1 - Td=19.8 2012-09-13 01:48:00
1 1965-02-11 03:00:00 Ts debe ser mayor o igual a Td Ts=10.4 - Td=15.8 2012-09-13 01:48:00
1 1965-02-28 12:00:00 Ts debe ser mayor o igual a Td Ts=10.4 - Td=11.4 2012-09-13 01:48:00
1 1965-03-04 12:00:00 Ts debe ser mayor o igual a Td Ts=7.6 - Td=18.1 2012-09-13 01:48:00
1 1965-05-04 03:00:00 Ts debe ser mayor o igual a Td Ts=11.5 - Td=40.9 2012-09-13 01:49:00
1 1965-05-16 18:00:00 Ts debe ser mayor o igual a Td Ts=4.2 - Td=4.8 2012-09-13 01:49:00
1 1965-05-29 12:00:00 Ts debe ser mayor o igual a Td Ts=8.4 - Td=9.5 2012-09-13 01:49:00
1 1965-07-23 12:00:00 Ts debe ser mayor o igual a Td Ts=1.0 - Td=13.7 2012-09-13 01:49:00
1 1965-07-29 12:00:00 Ts debe ser mayor o igual a Td Ts=3.8 - Td=10.4 2012-09-13 01:49:00
1 1965-09-05 06:00:00 Ts debe ser mayor o igual a Td Ts=12.8 - Td=40.9 2012-09-13 01:49:00
1 1965-09-09 09:00:00 Ts debe ser mayor o igual a Td Ts=4.0 - Td=7.0 2012-09-13 01:49:00
1 1965-10-02 18:00:00 Ts debe ser mayor o igual a Td Ts=23.7 - Td=40.9 2012-09-13 01:49:00
1 1966-04-19 03:00:00 Ts debe ser mayor o igual a Td Ts=11.6 - Td=11.9 2012-09-13 01:51:00
1 1966-05-01 09:00:00 Ts debe ser mayor o igual a Td Ts=11.6 - Td=40.9 2012-09-13 01:51:00
1 1966-05-03 15:00:00 Ts debe ser mayor o igual a Td Ts=16.9 - Td=21.1 2012-09-13 01:51:00
1 1966-05-12 06:00:00 Ts debe ser mayor o igual a Td Ts=5.2 - Td=11.6 2012-09-13 01:51:00
1 1966-05-16 12:00:00 Ts debe ser mayor o igual a Td Ts=6.1 - Td=19.1 2012-09-13 01:51:00
1 1966-06-27 21:00:00 Ts debe ser mayor o igual a Td Ts=4.6 - Td=12.0 2012-09-13 01:51:00
1 1966-07-26 06:00:00 Ts debe ser mayor o igual a Td Ts=0.6 - Td=10.6 2012-09-13 01:51:00
1 1966-11-29 12:00:00 Ts debe ser mayor o igual a Td Ts=14.9 - Td=20.3 2012-09-13 01:52:00
1 1966-12-16 09:00:00 Ts debe ser mayor o igual a Td Ts=8.4 - Td=10.0 2012-09-13 01:52:00
1 1966-12-29 09:00:00 Ts debe ser mayor o igual a Td Ts=11.4 - Td=11.7 2012-09-13 01:52:00
1 1967-01-06 12:00:00 Ts debe ser mayor o igual a Td Ts=14.8 - Td=40.9 2012-09-13 01:52:00
1 1967-01-19 09:00:00 Ts debe ser mayor o igual a Td Ts=13.0 - Td=40.9 2012-09-13 01:52:00
1 1967-03-01 03:00:00 Ts debe ser mayor o igual a Td Ts=13.0 - Td=15.5 2012-09-13 01:52:00
1 1967-04-29 18:00:00 Ts debe ser mayor o igual a Td Ts=2.5 - Td=21.6 2012-09-13 01:52:00
1 1967-06-07 00:00:00 Ts debe ser mayor o igual a Td Ts=3.8 - Td=9.1 2012-09-13 01:53:00
1 1967-06-11 09:00:00 Ts debe ser mayor o igual a Td Ts=3.0 - Td=19.8 2012-09-13 01:53:00
1 1967-06-13 12:00:00 Ts debe ser mayor o igual a Td Ts=-1.6 - Td=1.7 2012-09-13 01:53:00
1 1967-06-14 12:00:00 Ts debe ser mayor o igual a Td Ts=-1.0 - Td=0.9 2012-09-13 01:53:00
1 1967-06-15 12:00:00 Ts debe ser mayor o igual a Td Ts=-0.6 - Td=0.6 2012-09-13 01:53:00
1 1967-06-20 18:00:00 Ts debe ser mayor o igual a Td Ts=0.8 - Td=11.8 2012-09-13 01:53:00
1 1967-06-23 12:00:00 Ts debe ser mayor o igual a Td Ts=-0.2 - Td=0.3 2012-09-13 01:53:00
1 1967-06-24 09:00:00 Ts debe ser mayor o igual a Td Ts=-0.8 - Td=0.2 2012-09-13 01:53:00
1 1967-06-24 12:00:00 Ts debe ser mayor o igual a Td Ts=-1.4 - Td=1.4 2012-09-13 01:53:00
1 1967-06-28 06:00:00 Ts debe ser mayor o igual a Td Ts=3.8 - Td=7.3 2012-09-13 01:53:00
1 1967-06-29 06:00:00 Ts debe ser mayor o igual a Td Ts=3.4 - Td=9.2 2012-09-13 01:53:00
1 1967-07-09 12:00:00 Ts debe ser mayor o igual a Td Ts=2.1 - Td=11.9 2012-09-13 01:53:00
1 1967-07-10 12:00:00 Ts debe ser mayor o igual a Td Ts=-1.4 - Td=2.3 2012-09-13 01:53:00
1 1967-07-12 12:00:00 Ts debe ser mayor o igual a Td Ts=-1.4 - Td=5.1 2012-09-13 01:53:00
1 1967-07-13 09:00:00 Ts debe ser mayor o igual a Td Ts=-0.6 - Td=0.4 2012-09-13 01:53:00
1 1967-07-18 00:00:00 Ts debe ser mayor o igual a Td Ts=6.2 - Td=9.5 2012-09-13 01:53:00
1 1967-09-21 06:00:00 Ts debe ser mayor o igual a Td Ts=0.5 - Td=8.8 2012-09-13 01:53:00
1 1967-09-28 12:00:00 Ts debe ser mayor o igual a Td Ts=7.2 - Td=8.0 2012-09-13 01:53:00
1 1967-10-04 12:00:00 Ts debe ser mayor o igual a Td Ts=0.8 - Td=12.1 2012-09-13 01:53:00
1 1967-11-12 09:00:00 Ts debe ser mayor o igual a Td Ts=9.0 - Td=22.1 2012-09-13 01:53:00
1 1967-11-20 06:00:00 Ts debe ser mayor o igual a Td Ts=15.0 - Td=19.4 2012-09-13 01:54:00
1 1968-03-07 09:00:00 Ts debe ser mayor o igual a Td Ts=12.4 - Td=13.2 2012-09-13 01:54:00
1 1968-04-09 06:00:00 Ts debe ser mayor o igual a Td Ts=7.4 - Td=7.8 2012-09-13 01:54:00
1 1968-04-09 12:00:00 Ts debe ser mayor o igual a Td Ts=0.7 - Td=12.3 2012-09-13 01:54:00
1 1968-05-05 06:00:00 Ts debe ser mayor o igual a Td Ts=7.0 - Td=7.2 2012-09-13 01:54:00
1 1968-06-30 12:00:00 Ts debe ser mayor o igual a Td Ts=23.0 - Td=40.9 2012-09-13 01:55:00
1 1968-07-08 06:00:00 Ts debe ser mayor o igual a Td Ts=6.0 - Td=6.2 2012-09-13 01:55:00
1 1968-07-16 06:00:00 Ts debe ser mayor o igual a Td Ts=6.4 - Td=7.2 2012-09-13 01:55:00
1 1968-07-18 15:00:00 Ts debe ser mayor o igual a Td Ts=5.8 - Td=7.0 2012-09-13 01:55:00
1 1968-08-29 09:00:00 Ts debe ser mayor o igual a Td Ts=7.0 - Td=8.1 2012-09-13 01:55:00
1 1968-12-03 09:00:00 Ts debe ser mayor o igual a Td Ts=10.4 - Td=11.1 2012-09-13 01:56:00
1 1969-01-03 13:00:00 Ts debe ser mayor o igual a Td Ts=12.0 - Td=14.3 2012-09-13 01:56:00
1 1969-01-15 15:00:00 Ts debe ser mayor o igual a Td Ts=4.0 - Td=17.6 2012-09-13 01:56:00
1 1969-01-16 12:00:00 Ts debe ser mayor o igual a Td Ts=10.7 - Td=14.4 2012-09-13 01:56:00
1 1969-01-18 10:00:00 Ts debe ser mayor o igual a Td Ts=4.8 - Td=17.8 2012-09-13 01:56:00
1 1969-01-22 12:00:00 Ts debe ser mayor o igual a Td Ts=14.8 - Td=16.3 2012-09-13 01:56:00
1 1969-01-30 09:00:00 Ts debe ser mayor o igual a Td Ts=16.8 - Td=31.0 2012-09-13 01:56:00
1 1969-02-05 18:00:00 Ts debe ser mayor o igual a Td Ts=7.7 - Td=22.7 2012-09-13 01:56:00
1 1969-03-03 03:00:00 Ts debe ser mayor o igual a Td Ts=10.8 - Td=14.5 2012-09-13 01:57:00
1 1969-03-09 20:00:00 Ts debe ser mayor o igual a Td Ts=1.4 - Td=24.7 2012-09-13 01:57:00
1 1969-03-20 04:00:00 Ts debe ser mayor o igual a Td Ts=12.8 - Td=16.2 2012-09-13 01:57:00
1 1969-03-24 12:00:00 Ts debe ser mayor o igual a Td Ts=13.1 - Td=24.2 2012-09-13 01:57:00
1 1969-03-25 01:00:00 Ts debe ser mayor o igual a Td Ts=15.2 - Td=17.9 2012-09-13 01:57:00
1 1969-03-27 07:00:00 Ts debe ser mayor o igual a Td Ts=13.5 - Td=17.3 2012-09-13 01:57:00
1 1969-03-29 23:00:00 Ts debe ser mayor o igual a Td Ts=1.8 - Td=19.2 2012-09-13 01:57:00
1 1969-03-30 07:00:00 Ts debe ser mayor o igual a Td Ts=12.4 - Td=22.0 2012-09-13 01:57:00
1 1969-04-08 22:00:00 Ts debe ser mayor o igual a Td Ts=12.9 - Td=16.2 2012-09-13 01:57:00
1 1969-04-24 12:00:00 Ts debe ser mayor o igual a Td Ts=2.6 - Td=17.5 2012-09-13 01:58:00
1 1969-04-25 18:00:00 Ts debe ser mayor o igual a Td Ts=1.6 - Td=22.2 2012-09-13 01:58:00
1 1969-05-05 14:00:00 Ts debe ser mayor o igual a Td Ts=4.4 - Td=14.6 2012-09-13 01:58:00
1 1969-05-06 00:00:00 Ts debe ser mayor o igual a Td Ts=14.2 - Td=14.4 2012-09-13 01:58:00
1 1969-05-19 03:00:00 Ts debe ser mayor o igual a Td Ts=10.6 - Td=11.6 2012-09-13 01:58:00
1 1969-06-08 12:00:00 Ts debe ser mayor o igual a Td Ts=9.8 - Td=10.0 2012-09-13 01:58:00
1 1969-06-13 07:00:00 Ts debe ser mayor o igual a Td Ts=6.0 - Td=7.0 2012-09-13 01:58:00
1 1969-06-15 00:00:00 Ts debe ser mayor o igual a Td Ts=4.7 - Td=7.2 2012-09-13 01:59:00
1 1969-06-27 14:00:00 Ts debe ser mayor o igual a Td Ts=0.5 - Td=9.5 2012-09-13 01:59:00
1 1969-06-28 05:00:00 Ts debe ser mayor o igual a Td Ts=0.8 - Td=6.2 2012-09-13 01:59:00
1 1969-06-30 04:00:00 Ts debe ser mayor o igual a Td Ts=4.6 - Td=12.0 2012-09-13 01:59:00
1 1969-07-06 08:00:00 Ts debe ser mayor o igual a Td Ts=-1.0 - Td=0.0 2012-09-13 01:59:00
1 1969-07-08 09:00:00 Ts debe ser mayor o igual a Td Ts=-2.2 - Td=7.8 2012-09-13 01:59:00
1 1969-07-08 22:00:00 Ts debe ser mayor o igual a Td Ts=1.2 - Td=11.1 2012-09-13 01:59:00
1 1969-07-25 06:00:00 Ts debe ser mayor o igual a Td Ts=7.0 - Td=9.6 2012-09-13 01:59:00
1 1969-07-25 08:00:00 Ts debe ser mayor o igual a Td Ts=6.2 - Td=7.0 2012-09-13 01:59:00
1 1969-08-06 14:00:00 Ts debe ser mayor o igual a Td Ts=2.4 - Td=18.6 2012-09-13 01:59:00
1 1969-08-31 21:00:00 Ts debe ser mayor o igual a Td Ts=22.0 - Td=26.3 2012-09-13 02:00:00
1 1969-09-20 06:00:00 Ts debe ser mayor o igual a Td Ts=11.0 - Td=18.6 2012-09-13 02:00:00
1 1969-09-20 11:00:00 Ts debe ser mayor o igual a Td Ts=8.7 - Td=9.2 2012-09-13 02:00:00
1 1969-09-27 11:00:00 Ts debe ser mayor o igual a Td Ts=6.6 - Td=11.0 2012-09-13 02:00:00
1 1969-10-02 07:00:00 Ts debe ser mayor o igual a Td Ts=7.2 - Td=8.9 2012-09-13 02:00:00
1 1970-01-01 08:00:00 Ts debe ser mayor o igual a Td Ts=14.0 - Td=19.9 2012-09-13 02:02:00
1 1970-01-01 08:00:00 Ts debe ser mayor o igual a Td Ts=14.0 - Td=19.9 2012-09-13 02:02:00
1 1970-01-16 23:00:00 Ts debe ser mayor o igual a Td Ts=2.0 - Td=22.8 2012-09-13 02:02:00
1 1970-01-17 13:00:00 Ts debe ser mayor o igual a Td Ts=17.6 - Td=18.2 2012-09-13 02:02:00
1 1970-01-23 12:00:00 Ts debe ser mayor o igual a Td Ts=13.1 - Td=17.8 2012-09-13 02:02:00
1 1970-01-24 09:00:00 Ts debe ser mayor o igual a Td Ts=1.6 - Td=15.9 2012-09-13 02:02:00
1 1970-02-04 09:00:00 Ts debe ser mayor o igual a Td Ts=1.9 - Td=16.0 2012-09-13 02:02:00
1 1970-02-07 02:00:00 Ts debe ser mayor o igual a Td Ts=9.3 - Td=14.8 2012-09-13 02:02:00
1 1970-02-12 12:00:00 Ts debe ser mayor o igual a Td Ts=12.3 - Td=13.1 2012-09-13 02:03:00
1 1970-02-19 04:00:00 Ts debe ser mayor o igual a Td Ts=7.1 - Td=18.9 2012-09-13 02:03:00
1 1970-03-01 20:00:00 Ts debe ser mayor o igual a Td Ts=14.4 - Td=18.3 2012-09-13 02:03:00
1 1970-03-11 18:00:00 Ts debe ser mayor o igual a Td Ts=17.6 - Td=19.1 2012-09-13 02:03:00
1 1970-03-26 06:00:00 Ts debe ser mayor o igual a Td Ts=17.9 - Td=26.1 2012-09-13 02:03:00
1 1970-03-26 09:00:00 Ts debe ser mayor o igual a Td Ts=11.4 - Td=12.4 2012-09-13 02:03:00
1 1970-04-03 00:00:00 Ts debe ser mayor o igual a Td Ts=8.3 - Td=14.8 2012-09-13 02:03:00
1 1970-04-06 18:00:00 Ts debe ser mayor o igual a Td Ts=8.5 - Td=21.6 2012-09-13 02:03:00
1 1970-04-12 01:00:00 Ts debe ser mayor o igual a Td Ts=10.3 - Td=15.9 2012-09-13 02:04:00
1 1970-04-29 15:00:00 Ts debe ser mayor o igual a Td Ts=6.4 - Td=15.8 2012-09-13 02:04:00
1 1970-05-06 06:00:00 Ts debe ser mayor o igual a Td Ts=10.2 - Td=22.1 2012-09-13 02:04:00
1 1970-05-08 04:00:00 Ts debe ser mayor o igual a Td Ts=10.0 - Td=22.3 2012-09-13 02:04:00
1 1970-05-12 13:00:00 Ts debe ser mayor o igual a Td Ts=8.4 - Td=21.5 2012-09-13 02:04:00
1 1970-05-20 14:00:00 Ts debe ser mayor o igual a Td Ts=8.6 - Td=15.0 2012-09-13 02:04:00
1 1970-07-05 15:00:00 Ts debe ser mayor o igual a Td Ts=4.1 - Td=13.2 2012-09-13 02:05:00
1 1970-07-08 11:00:00 Ts debe ser mayor o igual a Td Ts=0.4 - Td=15.2 2012-09-13 02:05:00
1 1970-07-09 03:00:00 Ts debe ser mayor o igual a Td Ts=4.6 - Td=10.2 2012-09-13 02:05:00
1 1970-07-10 09:00:00 Ts debe ser mayor o igual a Td Ts=1.4 - Td=20.5 2012-09-13 02:05:00
1 1970-07-10 18:00:00 Ts debe ser mayor o igual a Td Ts=8.8 - Td=9.0 2012-09-13 02:05:00
1 1970-07-15 15:00:00 Ts debe ser mayor o igual a Td Ts=7.0 - Td=7.2 2012-09-13 02:05:00
1 1970-07-18 11:00:00 Ts debe ser mayor o igual a Td Ts=3.0 - Td=12.8 2012-09-13 02:05:00
1 1970-07-25 18:00:00 Ts debe ser mayor o igual a Td Ts=0.8 - Td=12.5 2012-09-13 02:05:00
1 1970-08-01 09:00:00 Ts debe ser mayor o igual a Td Ts=7.2 - Td=12.0 2012-09-13 02:05:00
1 1970-08-03 06:00:00 Ts debe ser mayor o igual a Td Ts=7.6 - Td=8.7 2012-09-13 02:05:00
1 1970-08-07 09:00:00 Ts debe ser mayor o igual a Td Ts=2.0 - Td=21.4 2012-09-13 02:06:00
1 1970-08-12 18:00:00 Ts debe ser mayor o igual a Td Ts=6.3 - Td=10.8 2012-09-13 02:06:00
1 1970-08-20 06:00:00 Ts debe ser mayor o igual a Td Ts=3.0 - Td=3.9 2012-09-13 02:06:00
1 1970-09-01 09:00:00 Ts debe ser mayor o igual a Td Ts=4.4 - Td=27.0 2012-09-13 02:06:00
1 1970-09-29 09:00:00 Ts debe ser mayor o igual a Td Ts=5.2 - Td=6.4 2012-09-13 02:06:00
1 1970-10-18 08:00:00 Ts debe ser mayor o igual a Td Ts=8.0 - Td=8.2 2012-09-13 02:07:00
1 1970-11-02 18:00:00 Ts debe ser mayor o igual a Td Ts=15.4 - Td=15.7 2012-09-13 02:07:00
1 1970-12-03 03:00:00 Ts debe ser mayor o igual a Td Ts=14.4 - Td=15.2 2012-09-13 02:07:00
1 1970-12-20 10:00:00 Ts debe ser mayor o igual a Td Ts=10.8 - Td=23.7 2012-09-13 02:08:00
1 1970-12-30 21:00:00 Ts debe ser mayor o igual a Td Ts=9.7 - Td=20.7 2012-09-13 02:08:00
1 1971-03-31 21:00:00 Ts debe ser mayor o igual a Td Ts=2.6 - Td=21.4 2012-09-13 02:09:00
1 1971-04-22 07:00:00 Ts debe ser mayor o igual a Td Ts=6.2 - Td=6.4 2012-09-13 02:10:00
1 1971-05-23 04:00:00 Ts debe ser mayor o igual a Td Ts=10.6 - Td=11.1 2012-09-13 02:10:00
1 1971-05-25 15:00:00 Ts debe ser mayor o igual a Td Ts=8.4 - Td=12.7 2012-09-13 02:10:00
1 1971-06-07 02:00:00 Ts debe ser mayor o igual a Td Ts=8.5 - Td=8.9 2012-09-13 02:11:00
1 1971-06-11 15:00:00 Ts debe ser mayor o igual a Td Ts=10.7 - Td=19.7 2012-09-13 02:11:00
1 1971-06-11 21:00:00 Ts debe ser mayor o igual a Td Ts=5.3 - Td=13.0 2012-09-13 02:11:00
1 1971-06-17 11:00:00 Ts debe ser mayor o igual a Td Ts=0.1 - Td=1.5 2012-09-13 02:11:00
1 1971-06-19 18:00:00 Ts debe ser mayor o igual a Td Ts=6.6 - Td=7.4 2012-09-13 02:11:00
1 1971-06-28 12:00:00 Ts debe ser mayor o igual a Td Ts=6.6 - Td=10.6 2012-09-13 02:11:00
1 1971-08-10 06:00:00 Ts debe ser mayor o igual a Td Ts=0.7 - Td=10.7 2012-09-13 02:12:00
1 1971-09-12 21:00:00 Ts debe ser mayor o igual a Td Ts=1.9 - Td=19.8 2012-09-13 02:12:00
1 1971-09-25 22:00:00 Ts debe ser mayor o igual a Td Ts=18.5 - Td=23.5 2012-09-13 02:12:00
1 1971-09-27 18:00:00 Ts debe ser mayor o igual a Td Ts=2.2 - Td=19.9 2012-09-13 02:12:00
1 1971-10-11 15:00:00 Ts debe ser mayor o igual a Td Ts=1.6 - Td=17.6 2012-09-13 02:13:00
1 1971-10-27 15:00:00 Ts debe ser mayor o igual a Td Ts=1.7 - Td=21.0 2012-09-13 02:13:00
1 1971-10-27 21:00:00 Ts debe ser mayor o igual a Td Ts=2.2 - Td=22.3 2012-09-13 02:13:00
1 1971-11-10 22:00:00 Ts debe ser mayor o igual a Td Ts=10.0 - Td=17.2 2012-09-13 02:13:00
1 1971-11-17 02:00:00 Ts debe ser mayor o igual a Td Ts=1.6 - Td=18.5 2012-09-13 02:13:00
1 1971-11-18 10:00:00 Ts debe ser mayor o igual a Td Ts=12.4 - Td=17.9 2012-09-13 02:13:00
1 1971-11-24 00:00:00 Ts debe ser mayor o igual a Td Ts=16.7 - Td=18.9 2012-09-13 02:13:00
1 1971-12-21 12:00:00 Ts debe ser mayor o igual a Td Ts=8.8 - Td=9.5 2012-09-13 02:14:00
1 1971-12-29 09:00:00 Ts debe ser mayor o igual a Td Ts=13.1 - Td=18.9 2012-09-13 02:14:00
1 1972-01-06 18:00:00 Ts debe ser mayor o igual a Td Ts=3.1 - Td=25.3 2012-09-13 02:14:00
1 1972-01-12 18:00:00 Ts debe ser mayor o igual a Td Ts=12.9 - Td=20.8 2012-09-13 02:14:00
1 1972-01-23 07:00:00 Ts debe ser mayor o igual a Td Ts=14.0 - Td=14.2 2012-09-13 02:14:00
1 1972-02-01 11:00:00 Ts debe ser mayor o igual a Td Ts=12.9 - Td=24.0 2012-09-13 02:14:00
1 1972-02-05 08:00:00 Ts debe ser mayor o igual a Td Ts=17.2 - Td=20.9 2012-09-13 02:15:00
1 1972-02-14 21:00:00 Ts debe ser mayor o igual a Td Ts=3.2 - Td=25.4 2012-09-13 02:15:00
1 1972-02-15 17:00:00 Ts debe ser mayor o igual a Td Ts=16.6 - Td=19.0 2012-09-13 02:15:00
1 1972-02-26 14:00:00 Ts debe ser mayor o igual a Td Ts=10.0 - Td=19.2 2012-09-13 02:15:00
1 1972-02-28 01:00:00 Ts debe ser mayor o igual a Td Ts=19.8 - Td=27.2 2012-09-13 02:15:00
1 1972-03-07 21:00:00 Ts debe ser mayor o igual a Td Ts=10.0 - Td=14.9 2012-09-13 02:15:00
1 1972-04-09 04:00:00 Ts debe ser mayor o igual a Td Ts=14.0 - Td=14.3 2012-09-13 02:16:00
1 1972-04-14 06:00:00 Ts debe ser mayor o igual a Td Ts=4.0 - Td=7.0 2012-09-13 02:16:00
1 1972-04-17 06:00:00 Ts debe ser mayor o igual a Td Ts=10.0 - Td=10.2 2012-09-13 02:16:00
1 1972-04-18 20:00:00 Ts debe ser mayor o igual a Td Ts=16.0 - Td=18.8 2012-09-13 02:16:00
1 1972-04-29 06:00:00 Ts debe ser mayor o igual a Td Ts=5.4 - Td=5.8 2012-09-13 02:16:00
1 1972-05-01 11:00:00 Ts debe ser mayor o igual a Td Ts=6.0 - Td=6.4 2012-09-13 02:16:00
1 1972-05-02 07:00:00 Ts debe ser mayor o igual a Td Ts=5.0 - Td=5.2 2012-09-13 02:16:00
1 1972-05-07 12:00:00 Ts debe ser mayor o igual a Td Ts=11.2 - Td=12.0 2012-09-13 02:16:00
1 1972-05-13 03:00:00 Ts debe ser mayor o igual a Td Ts=11.6 - Td=12.6 2012-09-13 02:16:00
1 1972-05-17 09:00:00 Ts debe ser mayor o igual a Td Ts=9.2 - Td=19.3 2012-09-13 02:16:00
1 1972-05-18 12:00:00 Ts debe ser mayor o igual a Td Ts=3.4 - Td=10.7 2012-09-13 02:16:00
1 1972-05-19 19:00:00 Ts debe ser mayor o igual a Td Ts=22.0 - Td=24.0 2012-09-13 02:16:00
1 1972-05-30 13:00:00 Ts debe ser mayor o igual a Td Ts=5.6 - Td=11.9 2012-09-13 02:16:00
1 1972-06-08 21:00:00 Ts debe ser mayor o igual a Td Ts=12.5 - Td=12.7 2012-09-13 02:17:00
1 1972-06-10 09:00:00 Ts debe ser mayor o igual a Td Ts=10.4 - Td=10.6 2012-09-13 02:17:00
1 1972-06-10 23:00:00 Ts debe ser mayor o igual a Td Ts=14.0 - Td=16.0 2012-09-13 02:17:00
1 1972-06-14 12:00:00 Ts debe ser mayor o igual a Td Ts=1.0 - Td=14.3 2012-09-13 02:17:00
1 1972-06-24 09:00:00 Ts debe ser mayor o igual a Td Ts=5.6 - Td=11.9 2012-09-13 02:17:00
1 1972-06-25 13:00:00 Ts debe ser mayor o igual a Td Ts=5.4 - Td=7.7 2012-09-13 02:17:00
1 1972-06-25 14:00:00 Ts debe ser mayor o igual a Td Ts=7.0 - Td=8.5 2012-09-13 02:17:00
1 1972-06-25 16:00:00 Ts debe ser mayor o igual a Td Ts=8.2 - Td=10.3 2012-09-13 02:17:00
1 1972-06-26 06:00:00 Ts debe ser mayor o igual a Td Ts=3.9 - Td=8.6 2012-09-13 02:17:00
1 1972-07-03 13:00:00 Ts debe ser mayor o igual a Td Ts=0.8 - Td=14.4 2012-09-13 02:17:00
1 1972-07-07 11:00:00 Ts debe ser mayor o igual a Td Ts=-1.4 - Td=1.9 2012-09-13 02:17:00
1 1972-07-07 12:00:00 Ts debe ser mayor o igual a Td Ts=-1.1 - Td=-0.1 2012-09-13 02:17:00
1 1972-07-14 07:00:00 Ts debe ser mayor o igual a Td Ts=0.4 - Td=8.2 2012-09-13 02:17:00
1 1972-07-14 08:00:00 Ts debe ser mayor o igual a Td Ts=0.5 - Td=8.1 2012-09-13 02:17:00
1 1972-07-14 10:00:00 Ts debe ser mayor o igual a Td Ts=0.5 - Td=7.1 2012-09-13 02:17:00
1 1972-07-14 11:00:00 Ts debe ser mayor o igual a Td Ts=0.4 - Td=5.8 2012-09-13 02:17:00
1 1972-07-14 13:02:00 Ts debe ser mayor o igual a Td Ts=0.5 - Td=9.1 2012-09-13 02:17:00
1 1972-07-14 14:00:00 Ts debe ser mayor o igual a Td Ts=0.5 - Td=9.5 2012-09-13 02:17:00
1 1972-07-14 16:00:00 Ts debe ser mayor o igual a Td Ts=0.5 - Td=11.6 2012-09-13 02:17:00
1 1972-07-14 17:00:00 Ts debe ser mayor o igual a Td Ts=0.8 - Td=12.0 2012-09-13 02:17:00
1 1972-07-14 19:00:00 Ts debe ser mayor o igual a Td Ts=0.9 - Td=11.9 2012-09-13 02:17:00
1 1972-07-15 06:00:00 Ts debe ser mayor o igual a Td Ts=6.4 - Td=12.3 2012-09-13 02:17:00
1 1972-07-15 11:00:00 Ts debe ser mayor o igual a Td Ts=-3.0 - Td=8.4 2012-09-13 02:17:00
1 1972-07-16 03:00:00 Ts debe ser mayor o igual a Td Ts=3.6 - Td=6.4 2012-09-13 02:17:00
1 1972-07-20 09:00:00 Ts debe ser mayor o igual a Td Ts=7.2 - Td=11.2 2012-09-13 02:17:00
1 1972-07-23 11:00:00 Ts debe ser mayor o igual a Td Ts=2.2 - Td=9.7 2012-09-13 02:17:00
1 1972-07-28 04:00:00 Ts debe ser mayor o igual a Td Ts=5.2 - Td=10.0 2012-09-13 02:17:00
1 1972-07-28 15:00:00 Ts debe ser mayor o igual a Td Ts=1.1 - Td=14.9 2012-09-13 02:17:00
1 1972-08-13 05:00:00 Ts debe ser mayor o igual a Td Ts=10.7 - Td=21.3 2012-09-13 02:18:00
1 1972-08-14 12:00:00 Ts debe ser mayor o igual a Td Ts=10.7 - Td=12.9 2012-09-13 02:18:00
1 1972-08-14 23:00:00 Ts debe ser mayor o igual a Td Ts=11.6 - Td=11.9 2012-09-13 02:18:00
1 1972-08-16 11:00:00 Ts debe ser mayor o igual a Td Ts=3.8 - Td=9.1 2012-09-13 02:18:00
1 1972-08-16 13:00:00 Ts debe ser mayor o igual a Td Ts=7.2 - Td=7.6 2012-09-13 02:18:00
1 1972-08-16 14:00:00 Ts debe ser mayor o igual a Td Ts=8.2 - Td=8.9 2012-09-13 02:18:00
1 1972-08-20 10:00:00 Ts debe ser mayor o igual a Td Ts=0.2 - Td=5.8 2012-09-13 02:18:00
1 1972-08-28 23:00:00 Ts debe ser mayor o igual a Td Ts=6.5 - Td=8.7 2012-09-13 02:18:00
1 1972-08-29 06:00:00 Ts debe ser mayor o igual a Td Ts=3.0 - Td=3.4 2012-09-13 02:18:00
1 1972-08-29 09:00:00 Ts debe ser mayor o igual a Td Ts=2.3 - Td=3.8 2012-09-13 02:18:00
1 1972-08-29 10:00:00 Ts debe ser mayor o igual a Td Ts=2.0 - Td=2.2 2012-09-13 02:18:00
1 1972-08-30 02:00:00 Ts debe ser mayor o igual a Td Ts=8.5 - Td=10.5 2012-09-13 02:18:00
1 1972-09-10 15:00:00 Ts debe ser mayor o igual a Td Ts=14.8 - Td=18.1 2012-09-13 02:18:00
1 1972-09-19 19:00:00 Ts debe ser mayor o igual a Td Ts=15.4 - Td=22.2 2012-09-13 02:18:00
1 1972-09-24 09:00:00 Ts debe ser mayor o igual a Td Ts=11.0 - Td=12.0 2012-09-13 02:18:00
1 1972-10-06 09:00:00 Ts debe ser mayor o igual a Td Ts=6.3 - Td=9.1 2012-09-13 02:19:00
1 1972-10-07 06:00:00 Ts debe ser mayor o igual a Td Ts=1.0 - Td=14.0 2012-09-13 02:19:00
1 1972-10-16 13:00:00 Ts debe ser mayor o igual a Td Ts=5.6 - Td=17.8 2012-09-13 02:19:00
1 1972-10-19 14:00:00 Ts debe ser mayor o igual a Td Ts=10.0 - Td=14.3 2012-09-13 02:19:00
1 1972-10-20 00:00:00 Ts debe ser mayor o igual a Td Ts=9.0 - Td=16.9 2012-09-13 02:19:00
1 1972-10-21 02:00:00 Ts debe ser mayor o igual a Td Ts=6.0 - Td=15.6 2012-09-13 02:19:00
1 1972-10-21 15:00:00 Ts debe ser mayor o igual a Td Ts=9.6 - Td=16.2 2012-09-13 02:19:00
1 1972-10-24 15:00:00 Ts debe ser mayor o igual a Td Ts=12.0 - Td=16.7 2012-09-13 02:19:00
1 1972-11-18 02:00:00 Ts debe ser mayor o igual a Td Ts=12.0 - Td=13.0 2012-09-13 02:19:00
1 1972-11-21 03:00:00 Ts debe ser mayor o igual a Td Ts=16.0 - Td=25.5 2012-09-13 02:19:00
1 1972-11-24 14:00:00 Ts debe ser mayor o igual a Td Ts=6.8 - Td=16.4 2012-09-13 02:19:00
1 1972-11-25 00:00:00 Ts debe ser mayor o igual a Td Ts=8.0 - Td=16.0 2012-09-13 02:19:00
1 1972-11-26 16:00:00 Ts debe ser mayor o igual a Td Ts=12.6 - Td=17.2 2012-09-13 02:19:00
1 1972-12-21 01:00:00 Ts debe ser mayor o igual a Td Ts=10.4 - Td=18.3 2012-09-13 02:20:00
1 1973-01-07 07:00:00 Ts debe ser mayor o igual a Td Ts=7.8 - Td=16.2 2012-09-13 02:20:00
1 1973-01-07 17:00:00 Ts debe ser mayor o igual a Td Ts=3.0 - Td=23.5 2012-09-13 02:20:00
1 1973-01-09 20:00:00 Ts debe ser mayor o igual a Td Ts=19.1 - Td=20.0 2012-09-13 02:20:00
1 1973-01-12 17:00:00 Ts debe ser mayor o igual a Td Ts=17.1 - Td=20.8 2012-09-13 02:20:00
1 1973-01-13 01:00:00 Ts debe ser mayor o igual a Td Ts=2.0 - Td=22.7 2012-09-13 02:20:00
1 1973-01-13 02:00:00 Ts debe ser mayor o igual a Td Ts=10.4 - Td=17.5 2012-09-13 02:20:00
1 1973-01-14 10:00:00 Ts debe ser mayor o igual a Td Ts=16.0 - Td=17.8 2012-09-13 02:20:00
1 1973-01-17 08:00:00 Ts debe ser mayor o igual a Td Ts=10.3 - Td=13.5 2012-09-13 02:20:00
1 1973-01-26 05:00:00 Ts debe ser mayor o igual a Td Ts=16.2 - Td=18.6 2012-09-13 02:20:00
1 1973-02-07 14:00:00 Ts debe ser mayor o igual a Td Ts=21.2 - Td=28.6 2012-09-13 02:20:00
1 1973-02-14 08:00:00 Ts debe ser mayor o igual a Td Ts=14.0 - Td=14.3 2012-09-13 02:21:00
1 1973-02-15 01:00:00 Ts debe ser mayor o igual a Td Ts=12.3 - Td=18.2 2012-09-13 02:21:00
1 1973-02-22 18:00:00 Ts debe ser mayor o igual a Td Ts=10.6 - Td=18.2 2012-09-13 02:21:00
1 1973-02-27 06:00:00 Ts debe ser mayor o igual a Td Ts=11.6 - Td=12.3 2012-09-13 02:21:00
1 1973-03-02 19:00:00 Ts debe ser mayor o igual a Td Ts=22.8 - Td=27.8 2012-09-13 02:21:00
1 1973-03-04 06:00:00 Ts debe ser mayor o igual a Td Ts=1.2 - Td=15.7 2012-09-13 02:21:00
1 1973-03-06 08:00:00 Ts debe ser mayor o igual a Td Ts=13.0 - Td=15.2 2012-09-13 02:21:00
1 1973-03-08 13:00:00 Ts debe ser mayor o igual a Td Ts=10.4 - Td=23.8 2012-09-13 02:21:00
1 1973-03-10 00:00:00 Ts debe ser mayor o igual a Td Ts=14.0 - Td=14.3 2012-09-13 02:21:00
1 1973-03-27 01:00:00 Ts debe ser mayor o igual a Td Ts=10.2 - Td=16.5 2012-09-13 02:21:00
1 1973-03-30 01:00:00 Ts debe ser mayor o igual a Td Ts=14.6 - Td=18.2 2012-09-13 02:21:00
1 1973-03-30 13:00:00 Ts debe ser mayor o igual a Td Ts=14.0 - Td=18.5 2012-09-13 02:21:00
1 1973-04-01 11:00:00 Ts debe ser mayor o igual a Td Ts=8.2 - Td=12.3 2012-09-13 02:21:00
1 1973-04-19 03:00:00 Ts debe ser mayor o igual a Td Ts=11.4 - Td=12.9 2012-09-13 02:22:00
1 1973-04-24 14:00:00 Ts debe ser mayor o igual a Td Ts=11.4 - Td=12.1 2012-09-13 02:22:00
1 1973-05-02 06:00:00 Ts debe ser mayor o igual a Td Ts=0.0 - Td=12.5 2012-09-13 02:22:00
1 1973-05-02 21:00:00 Ts debe ser mayor o igual a Td Ts=2.1 - Td=20.4 2012-09-13 02:22:00
1 1973-05-05 14:00:00 Ts debe ser mayor o igual a Td Ts=1.9 - Td=13.6 2012-09-13 02:22:00
1 1973-05-13 08:00:00 Ts debe ser mayor o igual a Td Ts=4.4 - Td=27.2 2012-09-13 02:22:00
1 1973-05-23 20:00:00 Ts debe ser mayor o igual a Td Ts=0.0 - Td=22.8 2012-09-13 02:22:00
1 1973-05-24 14:00:00 Ts debe ser mayor o igual a Td Ts=11.4 - Td=14.3 2012-09-13 02:22:00
1 1973-05-24 16:00:00 Ts debe ser mayor o igual a Td Ts=14.2 - Td=15.8 2012-09-13 02:22:00
1 1973-05-29 06:00:00 Ts debe ser mayor o igual a Td Ts=10.0 - Td=10.5 2012-09-13 02:22:00
1 1973-05-30 03:00:00 Ts debe ser mayor o igual a Td Ts=6.9 - Td=20.7 2012-09-13 02:22:00
1 1973-06-09 06:00:00 Ts debe ser mayor o igual a Td Ts=5.9 - Td=12.6 2012-09-13 02:23:00
1 1973-06-12 15:00:00 Ts debe ser mayor o igual a Td Ts=6.1 - Td=7.8 2012-09-13 02:23:00
1 1973-06-17 02:00:00 Ts debe ser mayor o igual a Td Ts=5.4 - Td=12.7 2012-09-13 02:23:00
1 1973-06-20 09:00:00 Ts debe ser mayor o igual a Td Ts=4.8 - Td=8.9 2012-09-13 02:23:00
1 1973-06-20 23:00:00 Ts debe ser mayor o igual a Td Ts=1.8 - Td=14.5 2012-09-13 02:23:00
1 1973-06-23 06:00:00 Ts debe ser mayor o igual a Td Ts=5.4 - Td=11.7 2012-09-13 02:23:00
1 1973-07-04 12:00:00 Ts debe ser mayor o igual a Td Ts=4.5 - Td=19.6 2012-09-13 02:23:00
1 1973-07-04 13:00:00 Ts debe ser mayor o igual a Td Ts=5.0 - Td=20.1 2012-09-13 02:23:00
1 1973-07-12 12:00:00 Ts debe ser mayor o igual a Td Ts=1.6 - Td=18.1 2012-09-13 02:23:00
1 1973-07-13 04:00:00 Ts debe ser mayor o igual a Td Ts=4.5 - Td=9.2 2012-09-13 02:23:00
1 1973-07-17 23:00:00 Ts debe ser mayor o igual a Td Ts=7.0 - Td=11.9 2012-09-13 02:23:00
1 1973-07-22 08:00:00 Ts debe ser mayor o igual a Td Ts=3.2 - Td=14.2 2012-09-13 02:23:00
1 1973-07-27 22:00:00 Ts debe ser mayor o igual a Td Ts=4.4 - Td=14.5 2012-09-13 02:23:00
1 1973-07-31 12:00:00 Ts debe ser mayor o igual a Td Ts=0.0 - Td=4.3 2012-09-13 02:23:00
1 1973-08-01 05:00:00 Ts debe ser mayor o igual a Td Ts=5.2 - Td=15.1 2012-09-13 02:23:00
1 1973-08-03 05:10:00 Ts debe ser mayor o igual a Td Ts=5.4 - Td=15.9 2012-09-13 02:23:00
1 1973-08-05 06:00:00 Ts debe ser mayor o igual a Td Ts=5.2 - Td=5.4 2012-09-13 02:24:00
1 1973-08-07 07:00:00 Ts debe ser mayor o igual a Td Ts=6.0 - Td=11.3 2012-09-13 02:24:00
1 1973-08-09 09:00:00 Ts debe ser mayor o igual a Td Ts=1.8 - Td=15.4 2012-09-13 02:24:00
1 1973-08-18 01:00:00 Ts debe ser mayor o igual a Td Ts=0.4 - Td=15.2 2012-09-13 02:24:00
1 1973-08-22 22:00:00 Ts debe ser mayor o igual a Td Ts=13.0 - Td=23.4 2012-09-13 02:24:00
1 1973-08-31 11:00:00 Ts debe ser mayor o igual a Td Ts=6.0 - Td=9.0 2012-09-13 02:24:00
1 1973-09-01 05:00:00 Ts debe ser mayor o igual a Td Ts=1.2 - Td=16.5 2012-09-13 02:24:00
1 1973-09-05 11:00:00 Ts debe ser mayor o igual a Td Ts=2.0 - Td=16.8 2012-09-13 02:24:00
1 1973-09-10 21:00:00 Ts debe ser mayor o igual a Td Ts=2.0 - Td=18.8 2012-09-13 02:24:00
1 1973-09-18 23:00:00 Ts debe ser mayor o igual a Td Ts=12.2 - Td=22.2 2012-09-13 02:24:00
1 1973-09-22 12:00:00 Ts debe ser mayor o igual a Td Ts=5.0 - Td=27.7 2012-09-13 02:24:00
1 1973-10-06 11:00:00 Ts debe ser mayor o igual a Td Ts=6.5 - Td=11.3 2012-09-13 02:24:00
1 1973-10-07 18:00:00 Ts debe ser mayor o igual a Td Ts=17.4 - Td=21.1 2012-09-13 02:24:00
1 1973-10-14 03:00:00 Ts debe ser mayor o igual a Td Ts=1.4 - Td=17.4 2012-09-13 02:24:00
1 1973-10-19 06:00:00 Ts debe ser mayor o igual a Td Ts=9.8 - Td=10.2 2012-09-13 02:25:00
1 1973-10-22 07:00:00 Ts debe ser mayor o igual a Td Ts=5.7 - Td=10.2 2012-09-13 02:25:00
1 1973-11-21 15:00:00 Ts debe ser mayor o igual a Td Ts=16.2 - Td=26.6 2012-09-13 02:25:00
1 1973-11-26 04:00:00 Ts debe ser mayor o igual a Td Ts=17.7 - Td=19.6 2012-09-13 02:25:00
1 1973-12-01 18:00:00 Ts debe ser mayor o igual a Td Ts=8.0 - Td=25.2 2012-09-13 02:25:00
1 1973-12-02 12:00:00 Ts debe ser mayor o igual a Td Ts=10.4 - Td=14.9 2012-09-13 02:25:00
1 1973-12-03 12:00:00 Ts debe ser mayor o igual a Td Ts=1.0 - Td=14.6 2012-09-13 02:25:00
1 1973-12-06 11:00:00 Ts debe ser mayor o igual a Td Ts=1.4 - Td=14.9 2012-09-13 02:25:00
1 1973-12-12 06:00:00 Ts debe ser mayor o igual a Td Ts=0.7 - Td=14.3 2012-09-13 02:25:00
1 1973-12-24 19:00:00 Ts debe ser mayor o igual a Td Ts=12.0 - Td=17.8 2012-09-13 02:26:00
1 1973-12-26 21:00:00 Ts debe ser mayor o igual a Td Ts=26.2 - Td=27.5 2012-09-13 02:26:00
1 1973-12-28 08:00:00 Ts debe ser mayor o igual a Td Ts=10.4 - Td=10.7 2012-09-13 02:26:00
1 1974-01-17 00:00:00 Ts debe ser mayor o igual a Td Ts=14.6 - Td=18.2 2012-09-13 02:26:00
1 1974-02-18 03:00:00 Ts debe ser mayor o igual a Td Ts=12.4 - Td=14.7 2012-09-13 02:27:00
1 1974-02-22 08:00:00 Ts debe ser mayor o igual a Td Ts=12.0 - Td=12.7 2012-09-13 02:27:00
1 1974-02-25 01:00:00 Ts debe ser mayor o igual a Td Ts=17.0 - Td=25.4 2012-09-13 02:27:00
1 1974-02-26 16:00:00 Ts debe ser mayor o igual a Td Ts=11.3 - Td=16.2 2012-09-13 02:27:00
1 1974-03-07 06:00:00 Ts debe ser mayor o igual a Td Ts=1.4 - Td=17.8 2012-09-13 02:27:00
1 1974-03-17 03:00:00 Ts debe ser mayor o igual a Td Ts=9.4 - Td=15.3 2012-09-13 02:27:00
1 1974-03-18 22:00:00 Ts debe ser mayor o igual a Td Ts=12.2 - Td=17.3 2012-09-13 02:27:00
1 1974-03-26 05:00:00 Ts debe ser mayor o igual a Td Ts=12.4 - Td=22.4 2012-09-13 02:27:00
1 1974-04-12 11:00:00 Ts debe ser mayor o igual a Td Ts=9.3 - Td=10.5 2012-09-13 02:28:00
1 1974-04-22 07:00:00 Ts debe ser mayor o igual a Td Ts=9.0 - Td=9.7 2012-09-13 02:28:00
1 1974-04-22 10:00:00 Ts debe ser mayor o igual a Td Ts=8.8 - Td=10.9 2012-09-13 02:28:00
1 1974-04-22 13:00:00 Ts debe ser mayor o igual a Td Ts=8.0 - Td=10.0 2012-09-13 02:28:00
1 1974-04-27 13:00:00 Ts debe ser mayor o igual a Td Ts=6.4 - Td=12.3 2012-09-13 02:28:00
1 1974-04-30 06:00:00 Ts debe ser mayor o igual a Td Ts=0.9 - Td=10.4 2012-09-13 02:28:00
1 1974-05-02 11:00:00 Ts debe ser mayor o igual a Td Ts=8.0 - Td=10.2 2012-09-13 02:28:00
1 1974-05-02 12:00:00 Ts debe ser mayor o igual a Td Ts=8.4 - Td=10.7 2012-09-13 02:28:00
1 1974-05-07 13:00:00 Ts debe ser mayor o igual a Td Ts=6.8 - Td=11.4 2012-09-13 02:28:00
1 1974-05-13 11:00:00 Ts debe ser mayor o igual a Td Ts=7.2 - Td=8.3 2012-09-13 02:28:00
1 1974-05-17 11:00:00 Ts debe ser mayor o igual a Td Ts=9.4 - Td=9.6 2012-09-13 02:28:00
1 1974-05-18 11:00:00 Ts debe ser mayor o igual a Td Ts=5.6 - Td=7.2 2012-09-13 02:28:00
1 1974-05-26 04:00:00 Ts debe ser mayor o igual a Td Ts=6.6 - Td=7.0 2012-09-13 02:28:00
1 1974-05-26 05:00:00 Ts debe ser mayor o igual a Td Ts=6.0 - Td=6.4 2012-09-13 02:28:00
1 1974-06-19 17:00:00 Ts debe ser mayor o igual a Td Ts=3.0 - Td=12.2 2012-09-13 02:29:00
1 1974-06-21 13:00:00 Ts debe ser mayor o igual a Td Ts=1.3 - Td=1.5 2012-09-13 02:29:00
1 1974-06-24 13:00:00 Ts debe ser mayor o igual a Td Ts=6.1 - Td=7.1 2012-09-13 02:29:00
1 1974-06-28 10:00:00 Ts debe ser mayor o igual a Td Ts=9.0 - Td=10.8 2012-09-13 02:29:00
1 1974-07-05 09:00:00 Ts debe ser mayor o igual a Td Ts=6.0 - Td=11.9 2012-09-13 02:29:00
1 1974-07-08 09:00:00 Ts debe ser mayor o igual a Td Ts=5.3 - Td=7.2 2012-09-13 02:29:00
1 1974-07-11 13:00:00 Ts debe ser mayor o igual a Td Ts=5.2 - Td=15.6 2012-09-13 02:29:00
1 1974-07-13 15:00:00 Ts debe ser mayor o igual a Td Ts=5.4 - Td=5.8 2012-09-13 02:29:00
1 1974-07-17 03:00:00 Ts debe ser mayor o igual a Td Ts=3.4 - Td=11.8 2012-09-13 02:29:00
1 1974-08-05 05:00:00 Ts debe ser mayor o igual a Td Ts=1.0 - Td=5.6 2012-09-13 02:29:00
1 1974-08-07 10:00:00 Ts debe ser mayor o igual a Td Ts=-0.8 - Td=-0.1 2012-09-13 02:29:00
1 1974-08-07 11:00:00 Ts debe ser mayor o igual a Td Ts=-1.0 - Td=-0.3 2012-09-13 02:29:00
1 1974-08-17 11:00:00 Ts debe ser mayor o igual a Td Ts=5.6 - Td=6.4 2012-09-13 02:30:00
1 1974-09-01 01:00:00 Ts debe ser mayor o igual a Td Ts=5.8 - Td=30.7 2012-09-13 02:30:00
1 1974-09-01 02:00:00 Ts debe ser mayor o igual a Td Ts=4.8 - Td=29.0 2012-09-13 02:30:00
1 1974-09-01 04:00:00 Ts debe ser mayor o igual a Td Ts=2.6 - Td=17.6 2012-09-13 02:30:00
1 1974-09-01 08:00:00 Ts debe ser mayor o igual a Td Ts=-0.3 - Td=16.6 2012-09-13 02:30:00
1 1974-09-07 08:00:00 Ts debe ser mayor o igual a Td Ts=5.4 - Td=12.6 2012-09-13 02:30:00
1 1974-09-22 21:00:00 Ts debe ser mayor o igual a Td Ts=15.4 - Td=18.8 2012-09-13 02:30:00
1 1974-10-02 06:00:00 Ts debe ser mayor o igual a Td Ts=10.0 - Td=11.2 2012-09-13 02:30:00
1 1974-10-02 10:00:00 Ts debe ser mayor o igual a Td Ts=9.8 - Td=10.2 2012-09-13 02:30:00
1 1974-10-04 18:00:00 Ts debe ser mayor o igual a Td Ts=9.9 - Td=14.0 2012-09-13 02:30:00
1 1974-10-05 12:00:00 Ts debe ser mayor o igual a Td Ts=2.4 - Td=9.0 2012-09-13 02:30:00
1 1974-10-17 07:00:00 Ts debe ser mayor o igual a Td Ts=10.0 - Td=10.4 2012-09-13 02:31:00
1 1974-10-24 08:00:00 Ts debe ser mayor o igual a Td Ts=7.0 - Td=10.7 2012-09-13 02:31:00
1 1974-11-10 11:00:00 Ts debe ser mayor o igual a Td Ts=5.4 - Td=10.1 2012-09-13 02:31:00
1 1974-11-15 01:00:00 Ts debe ser mayor o igual a Td Ts=10.8 - Td=15.6 2012-09-13 02:31:00
1 1974-11-25 03:00:00 Ts debe ser mayor o igual a Td Ts=14.0 - Td=14.3 2012-09-13 02:31:00
1 1974-12-10 18:00:00 Ts debe ser mayor o igual a Td Ts=13.8 - Td=14.0 2012-09-13 02:31:00
1 1974-12-22 03:00:00 Ts debe ser mayor o igual a Td Ts=11.7 - Td=12.2 2012-09-13 02:32:00
1 1975-01-30 13:00:00 Ts debe ser mayor o igual a Td Ts=15.0 - Td=16.1 2012-09-13 02:32:00
1 1975-02-17 13:00:00 Ts debe ser mayor o igual a Td Ts=11.8 - Td=16.2 2012-09-13 02:33:00
1 1975-02-18 06:00:00 Ts debe ser mayor o igual a Td Ts=14.4 - Td=17.3 2012-09-13 02:33:00
1 1975-03-01 04:00:00 Ts debe ser mayor o igual a Td Ts=16.0 - Td=21.2 2012-09-13 02:33:00
1 1975-03-01 07:00:00 Ts debe ser mayor o igual a Td Ts=14.8 - Td=21.1 2012-09-13 02:33:00
1 1975-03-02 15:00:00 Ts debe ser mayor o igual a Td Ts=14.6 - Td=19.1 2012-09-13 02:33:00
1 1975-03-29 10:00:00 Ts debe ser mayor o igual a Td Ts=7.5 - Td=9.5 2012-09-13 02:33:00
1 1975-04-02 20:00:00 Ts debe ser mayor o igual a Td Ts=14.2 - Td=16.4 2012-09-13 02:33:00
1 1975-04-11 18:00:00 Ts debe ser mayor o igual a Td Ts=16.2 - Td=17.7 2012-09-13 02:34:00
1 1975-05-26 11:00:00 Ts debe ser mayor o igual a Td Ts=7.0 - Td=7.8 2012-09-13 02:34:00
1 1975-05-26 13:00:00 Ts debe ser mayor o igual a Td Ts=7.6 - Td=10.1 2012-09-13 02:34:00
1 1975-05-28 11:00:00 Ts debe ser mayor o igual a Td Ts=9.0 - Td=9.7 2012-09-13 02:34:00
1 1975-06-04 10:00:00 Ts debe ser mayor o igual a Td Ts=2.7 - Td=17.0 2012-09-13 02:34:00
1 1975-06-06 02:00:00 Ts debe ser mayor o igual a Td Ts=7.6 - Td=7.8 2012-09-13 02:34:00
1 1975-06-12 09:00:00 Ts debe ser mayor o igual a Td Ts=7.5 - Td=7.7 2012-09-13 02:35:00
1 1975-07-05 07:00:00 Ts debe ser mayor o igual a Td Ts=1.2 - Td=3.0 2012-09-13 02:35:00
1 1975-07-05 10:00:00 Ts debe ser mayor o igual a Td Ts=0.1 - Td=0.8 2012-09-13 02:35:00
1 1975-07-05 14:00:00 Ts debe ser mayor o igual a Td Ts=0.3 - Td=5.2 2012-09-13 02:35:00
1 1975-07-06 12:00:00 Ts debe ser mayor o igual a Td Ts=1.4 - Td=2.5 2012-09-13 02:35:00
1 1975-07-08 02:00:00 Ts debe ser mayor o igual a Td Ts=7.2 - Td=10.7 2012-09-13 02:35:00
1 1975-07-17 09:00:00 Ts debe ser mayor o igual a Td Ts=1.4 - Td=2.1 2012-09-13 02:35:00
1 1975-07-23 04:00:00 Ts debe ser mayor o igual a Td Ts=4.0 - Td=5.2 2012-09-13 02:35:00
1 1975-07-23 13:00:00 Ts debe ser mayor o igual a Td Ts=1.0 - Td=16.9 2012-09-13 02:35:00
1 1975-07-25 09:00:00 Ts debe ser mayor o igual a Td Ts=1.2 - Td=5.0 2012-09-13 02:35:00
1 1975-07-25 22:00:00 Ts debe ser mayor o igual a Td Ts=16.0 - Td=22.7 2012-09-13 02:35:00
1 1975-08-04 03:00:00 Ts debe ser mayor o igual a Td Ts=0.9 - Td=13.6 2012-09-13 02:35:00
1 1975-08-04 13:00:00 Ts debe ser mayor o igual a Td Ts=7.4 - Td=13.2 2012-09-13 02:35:00
1 1975-08-14 18:00:00 Ts debe ser mayor o igual a Td Ts=1.2 - Td=15.0 2012-09-13 02:36:00
1 1975-08-18 18:00:00 Ts debe ser mayor o igual a Td Ts=1.1 - Td=14.8 2012-09-13 02:36:00
1 1975-08-20 11:00:00 Ts debe ser mayor o igual a Td Ts=2.6 - Td=3.0 2012-09-13 02:36:00
1 1975-08-20 12:00:00 Ts debe ser mayor o igual a Td Ts=2.2 - Td=3.5 2012-09-13 02:36:00
1 1975-08-29 06:00:00 Ts debe ser mayor o igual a Td Ts=4.4 - Td=4.8 2012-09-13 02:36:00
1 1975-09-15 18:00:00 Ts debe ser mayor o igual a Td Ts=9.4 - Td=17.2 2012-09-13 02:36:00
1 1975-09-16 12:00:00 Ts debe ser mayor o igual a Td Ts=8.1 - Td=8.3 2012-09-13 02:36:00
1 1975-09-18 06:00:00 Ts debe ser mayor o igual a Td Ts=8.3 - Td=10.4 2012-09-13 02:36:00
1 1975-09-20 06:00:00 Ts debe ser mayor o igual a Td Ts=8.0 - Td=11.8 2012-09-13 02:36:00
1 1975-09-22 12:00:00 Ts debe ser mayor o igual a Td Ts=8.9 - Td=11.5 2012-09-13 02:36:00
1 1975-09-25 06:00:00 Ts debe ser mayor o igual a Td Ts=8.4 - Td=8.9 2012-09-13 02:36:00
1 1975-09-25 06:00:00 HR (Humedad Relativa) es igual a 100% y Ts <> Td 8.4 - 8.9 2012-09-12 16:20:00
1 1975-09-28 13:00:00 Ts debe ser mayor o igual a Td Ts=8.3 - Td=9.2 2012-09-13 02:36:00
1 1975-10-02 21:00:00 Ts debe ser mayor o igual a Td Ts=2.6 - Td=18.8 2012-09-13 02:36:00
1 1975-10-09 12:00:00 Ts debe ser mayor o igual a Td Ts=2.4 - Td=9.9 2012-09-13 02:36:00
1 1975-10-13 19:00:00 Ts debe ser mayor o igual a Td Ts=24.8 - Td=26.1 2012-09-13 02:37:00
1 1975-11-28 16:00:00 Ts debe ser mayor o igual a Td Ts=13.6 - Td=14.2 2012-09-13 02:37:00
1 1975-12-08 15:00:00 Ts debe ser mayor o igual a Td Ts=10.1 - Td=16.3 2012-09-13 02:37:00
1 1975-12-30 19:00:00 Ts debe ser mayor o igual a Td Ts=19.5 - Td=19.6 2012-09-13 02:38:00
1 1976-01-02 18:00:00 Ts debe ser mayor o igual a Td Ts=16.8 - Td=18.9 2012-09-13 02:38:00
1 1976-03-02 15:00:00 Ts debe ser mayor o igual a Td Ts=10.2 - Td=17.0 2012-09-13 02:39:00
1 1976-05-04 11:00:00 Ts debe ser mayor o igual a Td Ts=6.8 - Td=21.0 2012-09-13 02:40:00
1 1976-05-30 05:00:00 Ts debe ser mayor o igual a Td Ts=7.0 - Td=11.9 2012-09-13 02:40:00
1 1976-05-31 15:00:00 Ts debe ser mayor o igual a Td Ts=10.5 - Td=12.0 2012-09-13 02:40:00
1 1976-06-03 09:00:00 Ts debe ser mayor o igual a Td Ts=5.2 - Td=12.3 2012-09-13 02:40:00
1 1976-06-06 06:00:00 Ts debe ser mayor o igual a Td Ts=6.0 - Td=6.2 2012-09-13 02:41:00
1 1976-06-10 09:00:00 Ts debe ser mayor o igual a Td Ts=4.7 - Td=13.7 2012-09-13 02:41:00
1 1976-06-10 09:00:00 HR (Humedad Relativa) es igual a 100% y Ts <> Td 4.7 - 13.7 2012-09-12 16:24:00
1 1976-06-15 04:00:00 Ts debe ser mayor o igual a Td Ts=3.4 - Td=11.6 2012-09-13 02:41:00
1 1976-06-16 09:00:00 Ts debe ser mayor o igual a Td Ts=9.0 - Td=9.4 2012-09-13 02:41:00
1 1976-06-17 08:00:00 Ts debe ser mayor o igual a Td Ts=7.0 - Td=7.2 2012-09-13 02:41:00
1 1976-06-21 12:00:00 Ts debe ser mayor o igual a Td Ts=7.4 - Td=7.8 2012-09-13 02:41:00
1 1976-06-21 12:00:00 HR (Humedad Relativa) es igual a 100% y Ts <> Td 7.4 - 7.8 2012-09-12 16:24:00
1 1976-06-23 00:00:00 Ts debe ser mayor o igual a Td Ts=8.1 - Td=10.8 2012-09-13 02:41:00
1 1976-06-26 05:00:00 Ts debe ser mayor o igual a Td Ts=2.6 - Td=3.9 2012-09-13 02:41:00
1 1976-06-28 07:00:00 Ts debe ser mayor o igual a Td Ts=-0.4 - Td=-0.2 2012-09-13 02:41:00
1 1976-06-28 08:00:00 Ts debe ser mayor o igual a Td Ts=-0.9 - Td=0.3 2012-09-13 02:41:00
1 1976-07-06 16:00:00 Ts debe ser mayor o igual a Td Ts=0.9 - Td=9.9 2012-09-13 02:41:00
1 1976-07-21 16:00:00 Ts debe ser mayor o igual a Td Ts=10.2 - Td=21.6 2012-09-13 02:41:00
1 1976-07-24 08:00:00 Ts debe ser mayor o igual a Td Ts=7.2 - Td=11.6 2012-09-13 02:41:00
1 1976-08-03 08:00:00 Ts debe ser mayor o igual a Td Ts=7.8 - Td=8.2 2012-09-13 02:42:00
1 1976-08-10 09:00:00 Ts debe ser mayor o igual a Td Ts=2.7 - Td=3.4 2012-09-13 02:42:00
1 1976-08-12 01:00:00 Ts debe ser mayor o igual a Td Ts=4.6 - Td=7.3 2012-09-13 02:42:00
1 1976-09-08 05:00:00 Ts debe ser mayor o igual a Td Ts=5.5 - Td=6.1 2012-09-13 02:42:00
1 1976-09-15 10:00:00 Ts debe ser mayor o igual a Td Ts=6.7 - Td=6.9 2012-09-13 02:42:00
1 1976-09-24 23:00:00 Ts debe ser mayor o igual a Td Ts=13.0 - Td=15.4 2012-09-13 02:42:00
1 1976-10-02 03:00:00 Ts debe ser mayor o igual a Td Ts=10.2 - Td=13.8 2012-09-13 02:43:00
1 1976-10-05 19:00:00 Ts debe ser mayor o igual a Td Ts=12.5 - Td=13.8 2012-09-13 02:43:00
1 1976-10-20 23:00:00 Ts debe ser mayor o igual a Td Ts=1.9 - Td=22.6 2012-09-13 02:43:00
1 1976-10-29 13:00:00 Ts debe ser mayor o igual a Td Ts=1.8 - Td=16.4 2012-09-13 02:43:00
1 1976-11-22 19:00:00 Ts debe ser mayor o igual a Td Ts=6.4 - Td=23.2 2012-09-13 02:43:00
1 1976-11-22 20:00:00 Ts debe ser mayor o igual a Td Ts=5.8 - Td=23.0 2012-09-13 02:43:00
1 1976-11-24 20:00:00 Ts debe ser mayor o igual a Td Ts=9.5 - Td=22.6 2012-09-13 02:43:00
1 1976-11-28 15:00:00 Ts debe ser mayor o igual a Td Ts=15.1 - Td=19.8 2012-09-13 02:44:00
1 1976-12-22 13:00:00 Ts debe ser mayor o igual a Td Ts=17.5 - Td=19.0 2012-09-13 02:44:00
1 1976-12-25 04:00:00 Ts debe ser mayor o igual a Td Ts=10.6 - Td=17.3 2012-09-13 02:44:00
1 1976-12-30 11:00:00 Ts debe ser mayor o igual a Td Ts=13.8 - Td=15.8 2012-09-13 02:44:00
1 1977-01-03 00:00:00 Ts debe ser mayor o igual a Td Ts=12.3 - Td=19.0 2012-09-13 02:44:00
1 1977-01-05 08:00:00 Ts debe ser mayor o igual a Td Ts=15.4 - Td=18.8 2012-09-13 02:44:00
1 1977-03-01 03:00:00 Ts debe ser mayor o igual a Td Ts=20.4 - Td=25.8 2012-09-13 02:45:00
1 1977-03-14 15:00:00 Ts debe ser mayor o igual a Td Ts=14.2 - Td=17.8 2012-09-13 02:45:00
1 1977-04-12 13:00:00 Ts debe ser mayor o igual a Td Ts=7.6 - Td=17.6 2012-09-13 02:46:00
1 1977-04-24 14:00:00 Ts debe ser mayor o igual a Td Ts=11.5 - Td=12.7 2012-09-13 02:46:00
1 1977-05-16 13:00:00 Ts debe ser mayor o igual a Td Ts=6.2 - Td=12.7 2012-09-13 02:46:00
1 1977-05-31 12:00:00 Ts debe ser mayor o igual a Td Ts=4.7 - Td=4.9 2012-09-13 02:47:00
1 1977-07-02 04:00:00 Ts debe ser mayor o igual a Td Ts=8.0 - Td=11.5 2012-09-13 02:47:00
1 1977-07-17 14:00:00 Ts debe ser mayor o igual a Td Ts=8.3 - Td=11.6 2012-09-13 02:47:00
1 1977-08-15 07:00:00 Ts debe ser mayor o igual a Td Ts=1.2 - Td=8.2 2012-09-13 02:48:00
1 1977-09-13 08:00:00 Ts debe ser mayor o igual a Td Ts=6.0 - Td=12.2 2012-09-13 02:48:00
1 1977-09-15 11:00:00 Ts debe ser mayor o igual a Td Ts=6.8 - Td=10.9 2012-09-13 02:48:00
1 1977-11-09 17:00:00 Ts debe ser mayor o igual a Td Ts=2.0 - Td=21.3 2012-09-13 02:49:00
1 1978-01-03 16:00:00 Ts debe ser mayor o igual a Td Ts=19.2 - Td=20.4 2012-09-13 02:50:00
1 1978-01-10 06:00:00 Ts debe ser mayor o igual a Td Ts=17.6 - Td=19.6 2012-09-13 02:50:00
1 1978-01-23 06:00:00 Ts debe ser mayor o igual a Td Ts=1.3 - Td=18.3 2012-09-13 02:51:00
1 1978-01-31 13:00:00 Ts debe ser mayor o igual a Td Ts=13.4 - Td=16.5 2012-09-13 02:51:00
1 1978-01-31 14:00:00 Ts debe ser mayor o igual a Td Ts=12.2 - Td=20.1 2012-09-13 02:51:00
1 1978-04-08 03:00:00 Ts debe ser mayor o igual a Td Ts=11.2 - Td=18.6 2012-09-13 02:52:00
1 1978-04-28 04:00:00 Ts debe ser mayor o igual a Td Ts=11.4 - Td=12.1 2012-09-13 02:52:00
1 1978-06-03 09:00:00 Ts debe ser mayor o igual a Td Ts=9.0 - Td=10.4 2012-09-13 02:53:00
1 1978-06-17 12:00:00 Ts debe ser mayor o igual a Td Ts=7.6 - Td=9.1 2012-09-13 02:53:00
1 1978-06-19 12:00:00 Ts debe ser mayor o igual a Td Ts=0.6 - Td=5.6 2012-09-13 02:53:00
1 1978-09-18 19:00:00 Ts debe ser mayor o igual a Td Ts=7.0 - Td=13.3 2012-09-13 02:55:00
1 1978-09-20 10:00:00 Ts debe ser mayor o igual a Td Ts=3.9 - Td=10.9 2012-09-13 02:55:00
1 1978-09-21 23:00:00 Ts debe ser mayor o igual a Td Ts=16.7 - Td=18.8 2012-09-13 02:55:00
1 1978-09-28 18:00:00 Ts debe ser mayor o igual a Td Ts=8.0 - Td=20.1 2012-09-13 02:55:00
1 1978-10-12 07:00:00 Ts debe ser mayor o igual a Td Ts=0.7 - Td=15.3 2012-09-13 02:55:00
1 1978-11-09 02:00:00 Ts debe ser mayor o igual a Td Ts=17.6 - Td=20.3 2012-09-13 02:56:00
1 1978-11-21 04:00:00 Ts debe ser mayor o igual a Td Ts=13.0 - Td=18.2 2012-09-13 02:56:00
1 1978-11-22 06:00:00 Ts debe ser mayor o igual a Td Ts=12.8 - Td=15.5 2012-09-13 02:56:00
1 1978-12-04 13:00:00 Ts debe ser mayor o igual a Td Ts=7.3 - Td=17.7 2012-09-13 02:56:00
1 1978-12-08 06:00:00 Ts debe ser mayor o igual a Td Ts=12.6 - Td=13.3 2012-09-13 02:56:00
1 1978-12-13 12:00:00 Ts debe ser mayor o igual a Td Ts=14.3 - Td=14.9 2012-09-13 02:56:00
1 1978-12-23 13:00:00 Ts debe ser mayor o igual a Td Ts=15.2 - Td=21.8 2012-09-13 02:56:00
1 1979-01-17 00:00:00 Ts debe ser mayor o igual a Td Ts=20.6 - Td=26.6 2012-09-13 02:57:00
1 1979-03-01 01:00:00 Ts debe ser mayor o igual a Td Ts=10.9 - Td=16.8 2012-09-13 02:58:00
1 1979-03-09 00:00:00 Ts debe ser mayor o igual a Td Ts=20.4 - Td=24.6 2012-09-13 02:58:00
1 1979-03-25 02:00:00 Ts debe ser mayor o igual a Td Ts=12.9 - Td=13.4 2012-09-13 02:58:00
1 1979-03-26 11:00:00 Ts debe ser mayor o igual a Td Ts=1.9 - Td=16.5 2012-09-13 02:58:00
1 1979-04-12 10:00:00 Ts debe ser mayor o igual a Td Ts=7.4 - Td=20.9 2012-09-13 02:58:00
1 1979-04-18 16:00:00 Ts debe ser mayor o igual a Td Ts=18.6 - Td=25.7 2012-09-13 02:58:00
1 1979-04-29 13:00:00 Ts debe ser mayor o igual a Td Ts=8.2 - Td=15.9 2012-09-13 02:59:00
1 1979-04-29 16:00:00 Ts debe ser mayor o igual a Td Ts=10.6 - Td=13.1 2012-09-13 02:59:00
1 1979-05-01 13:00:00 Ts debe ser mayor o igual a Td Ts=12.8 - Td=20.9 2012-09-13 02:59:00
1 1979-05-24 03:00:00 Ts debe ser mayor o igual a Td Ts=12.3 - Td=12.6 2012-09-13 02:59:00
1 1979-05-26 22:00:00 Ts debe ser mayor o igual a Td Ts=6.4 - Td=16.5 2012-09-13 02:59:00
1 1979-06-20 07:00:00 Ts debe ser mayor o igual a Td Ts=5.8 - Td=7.2 2012-09-13 02:59:00
1 1979-06-27 06:00:00 Ts debe ser mayor o igual a Td Ts=4.8 - Td=6.6 2012-09-13 02:59:00
1 1979-07-04 06:00:00 Ts debe ser mayor o igual a Td Ts=5.7 - Td=12.6 2012-09-13 03:00:00
1 1979-07-29 14:00:00 Ts debe ser mayor o igual a Td Ts=10.4 - Td=11.3 2012-09-13 03:00:00
1 1979-08-05 11:00:00 Ts debe ser mayor o igual a Td Ts=8.5 - Td=10.1 2012-09-13 03:00:00
1 1979-08-10 08:00:00 Ts debe ser mayor o igual a Td Ts=8.0 - Td=10.0 2012-09-13 03:00:00
1 1979-08-31 07:00:00 Ts debe ser mayor o igual a Td Ts=1.2 - Td=17.0 2012-09-13 03:01:00
1 1979-08-31 08:00:00 Ts debe ser mayor o igual a Td Ts=1.3 - Td=17.1 2012-09-13 03:01:00
1 1979-09-18 12:00:00 Ts debe ser mayor o igual a Td Ts=5.8 - Td=6.2 2012-09-13 03:01:00
1 1979-09-22 05:00:00 Ts debe ser mayor o igual a Td Ts=12.8 - Td=20.4 2012-09-13 03:01:00
1 1979-10-04 07:00:00 Ts debe ser mayor o igual a Td Ts=6.2 - Td=6.4 2012-09-13 03:01:00
1 1979-10-13 06:00:00 Ts debe ser mayor o igual a Td Ts=9.5 - Td=9.9 2012-09-13 03:01:00
1 1979-11-02 23:00:00 Ts debe ser mayor o igual a Td Ts=13.0 - Td=17.3 2012-09-13 03:02:00
1 1979-11-12 03:00:00 Ts debe ser mayor o igual a Td Ts=12.4 - Td=17.6 2012-09-13 03:02:00
1 1979-11-22 14:00:00 Ts debe ser mayor o igual a Td Ts=10.3 - Td=17.1 2012-09-13 03:02:00
1 1979-12-16 06:00:00 Ts debe ser mayor o igual a Td Ts=15.4 - Td=26.5 2012-09-13 03:02:00
1 1979-12-16 08:00:00 Ts debe ser mayor o igual a Td Ts=14.4 - Td=26.0 2012-09-13 03:02:00
1 1979-12-25 04:00:00 Ts debe ser mayor o igual a Td Ts=10.6 - Td=17.9 2012-09-13 03:03:00
1 1979-12-26 02:00:00 Ts debe ser mayor o igual a Td Ts=7.5 - Td=19.4 2012-09-13 03:03:00
1 1979-12-31 11:00:00 Ts debe ser mayor o igual a Td Ts=7.0 - Td=18.5 2012-09-13 03:03:00
1 1980-01-11 20:00:00 Ts debe ser mayor o igual a Td Ts=31.4 - Td=40.9 2012-09-13 03:03:00
1 1985-07-17 20:00:00 Ts debe ser mayor o igual a Td Ts=13.7 - Td=40.9 2012-09-13 03:35:00
1 1986-05-05 01:00:00 Ts debe ser mayor o igual a Td Ts=10.4 - Td=12.1 2012-09-13 03:40:00
1 1991-03-14 11:00:00 Ts debe ser mayor o igual a Td Ts=9.0 - Td=10.4 2012-09-13 04:01:00
1 1991-04-21 19:00:00 Ts debe ser mayor o igual a Td Ts=14.0 - Td=16.3 2012-09-13 04:01:00
1 1991-05-02 14:00:00 Ts debe ser mayor o igual a Td Ts=13.2 - Td=14.8 2012-09-13 04:02:00
1 1991-05-03 16:00:00 Ts debe ser mayor o igual a Td Ts=12.0 - Td=17.7 2012-09-13 04:02:00
1 1991-05-08 10:00:00 Ts debe ser mayor o igual a Td Ts=6.7 - Td=6.9 2012-09-13 04:02:00
1 1991-05-12 11:00:00 Ts debe ser mayor o igual a Td Ts=5.4 - Td=7.1 2012-09-13 04:02:00
1 1991-05-23 10:00:00 Ts debe ser mayor o igual a Td Ts=8.4 - Td=10.4 2012-09-13 04:02:00
1 1993-08-01 20:00:00 Ts debe ser mayor o igual a Td Ts=1.0 - Td=6.0 2012-09-13 04:17:00
1 1993-08-10 10:00:00 Ts debe ser mayor o igual a Td Ts=-3.0 - Td=1.3 2012-09-13 04:18:00
1 1994-04-18 23:00:00 Ts debe ser mayor o igual a Td Ts=20.5 - Td=22.0 2012-09-13 04:21:00
1 1994-09-30 16:00:00 Ts debe ser mayor o igual a Td Ts=2.0 - Td=20.4 2012-09-13 04:26:00
1 1994-11-10 11:42:00 Ts debe ser mayor o igual a Td Ts=10.0 - Td=12.5 2012-09-13 04:27:00
1 1995-04-07 22:00:00 Ts debe ser mayor o igual a Td Ts=9.4 - Td=17.6 2012-09-13 04:29:00
1 1995-04-26 12:50:00 Ts debe ser mayor o igual a Td Ts=8.5 - Td=8.7 2012-09-13 04:29:00
1 1995-06-08 23:00:00 Ts debe ser mayor o igual a Td Ts=10.8 - Td=11.5 2012-09-13 04:30:00
1 1995-06-14 14:00:00 Ts debe ser mayor o igual a Td Ts=11.0 - Td=18.6 2012-09-13 04:30:00
1 1995-07-12 12:20:00 Ts debe ser mayor o igual a Td Ts=6.5 - Td=7.6 2012-09-13 04:30:00
1 1995-10-30 11:19:00 Ts debe ser mayor o igual a Td Ts=8.0 - Td=11.8 2012-09-13 04:31:00
1 1996-05-19 12:43:00 Ts debe ser mayor o igual a Td Ts=6.8 - Td=7.0 2012-09-13 04:34:00
1 1996-05-31 13:00:00 Ts debe ser mayor o igual a Td Ts=1.6 - Td=9.9 2012-09-13 04:35:00
1 1996-06-06 13:00:00 Ts debe ser mayor o igual a Td Ts=4.6 - Td=6.8 2012-09-13 04:35:00
1 1996-08-06 01:00:00 Ts debe ser mayor o igual a Td Ts=6.3 - Td=8.6 2012-09-13 04:36:00
1 1996-08-30 16:00:00 Ts debe ser mayor o igual a Td Ts=9.0 - Td=9.5 2012-09-13 04:36:00
1 1996-10-09 19:00:00 Ts debe ser mayor o igual a Td Ts=14.9 - Td=15.4 2012-09-13 04:37:00
1 1997-05-13 07:50:00 Ts debe ser mayor o igual a Td Ts=7.6 - Td=8.2 2012-09-13 04:40:00
1 1997-09-21 16:00:00 Ts debe ser mayor o igual a Td Ts=10.4 - Td=18.1 2012-09-13 04:41:00
1 1998-07-02 02:20:00 Ts debe ser mayor o igual a Td Ts=5.4 - Td=5.8 2012-09-13 04:45:00
1 1998-07-29 12:35:00 Ts debe ser mayor o igual a Td Ts=2.6 - Td=6.8 2012-09-13 04:45:00
1 2000-10-18 13:30:00 Ts debe ser mayor o igual a Td Ts=11.8 - Td=12.3 2012-09-13 04:53:00
1 2000-12-19 11:25:00 Ts debe ser mayor o igual a Td Ts=13.7 - Td=14.5 2012-09-13 04:53:00
1 2002-05-18 19:00:00 Ts debe ser mayor o igual a Td Ts=15.6 - Td=40.9 2012-09-13 04:58:00
1 2002-08-01 20:00:00 Ts debe ser mayor o igual a Td Ts=17.6 - Td=40.9 2012-09-13 04:59:00
1 2002-08-17 22:45:00 Ts debe ser mayor o igual a Td Ts=11.6 - Td=17.2 2012-09-13 04:59:00
1 2002-10-01 22:00:00 Ts debe ser mayor o igual a Td Ts=20.4 - Td=40.9 2012-09-13 04:59:00
1 2003-05-24 16:30:00 Ts debe ser mayor o igual a Td Ts=6.1 - Td=15.8 2012-09-13 05:02:00
1 2004-10-17 13:42:00 Ts debe ser mayor o igual a Td Ts=2.6 - Td=16.0 2012-09-13 05:06:00
1 2004-10-18 16:00:00 Ts debe ser mayor o igual a Td Ts=20.2 - Td=40.9 2012-09-13 05:06:00
1 2004-10-24 20:00:00 Ts debe ser mayor o igual a Td Ts=21.4 - Td=40.9 2012-09-13 05:07:00
1 2004-10-28 14:00:00 Ts debe ser mayor o igual a Td Ts=21.4 - Td=40.9 2012-09-13 05:07:00
1 2004-12-01 14:00:00 Ts debe ser mayor o igual a Td Ts=21.8 - Td=40.9 2012-09-13 05:07:00
1 2004-12-01 16:00:00 Ts debe ser mayor o igual a Td Ts=26.1 - Td=40.9 2012-09-13 05:07:00
1 2004-12-01 17:00:00 Ts debe ser mayor o igual a Td Ts=27.4 - Td=40.9 2012-09-13 05:07:00
1 2004-12-01 19:00:00 Ts debe ser mayor o igual a Td Ts=27.4 - Td=40.9 2012-09-13 05:07:00
1 2004-12-01 20:00:00 Ts debe ser mayor o igual a Td Ts=26.2 - Td=40.9 2012-09-13 05:07:00
1 2004-12-01 22:00:00 Ts debe ser mayor o igual a Td Ts=23.4 - Td=40.9 2012-09-13 05:07:00
1 2004-12-01 23:00:00 Ts debe ser mayor o igual a Td Ts=20.8 - Td=40.9 2012-09-13 05:07:00
1 2005-04-04 22:00:00 Ts debe ser mayor o igual a Td Ts=22.0 - Td=40.9 2012-09-13 05:08:00
1 2005-05-21 17:00:00 Ts debe ser mayor o igual a Td Ts=14.0 - Td=40.9 2012-09-13 05:09:00
1 2005-06-01 22:00:00 Ts debe ser mayor o igual a Td Ts=17.4 - Td=40.9 2012-09-13 05:09:00
1 1952-06-16 06:00:00 (ts - td > 5.0) y ((ww >= 40 y ww <= 49)) 46 2014-05-06 15:14:00
1 1953-07-13 14:00:00 (ts - td > 5.0) y ((ww >= 40 y ww <= 49)) 42 2013-12-02 18:18:00
1 1959-04-23 15:00:00 ts > 5.0 y ((ww >= 70 y ww <= 79) || (ww >= 85 y ww <= 88))) 87 2013-04-22 20:32:00
1 1960-06-23 00:00:00 ts > 3.0 y ( (ww >= 48 y ww <= 49) o (ww >= 56 y ww <= 57) o (ww >=66 y ww <= 67)) 66 2013-04-22 20:35:00
1 1960-07-03 12:00:00 (ts - td > 5.0) y ((ww >= 40 y ww <= 49)) 45 2013-04-22 20:35:00
1 1966-05-19 00:00:00 (ts - td > 5.0) y ((ww >= 40 y ww <= 49)) 47 2013-04-22 20:47:00
1 1969-05-06 15:00:00 (ts - td > 5.0) y ((ww >= 40 y ww <= 49)) 45 2013-04-22 20:53:00
1 1969-05-09 15:00:00 (ts - td > 5.0) y ((ww >= 40 y ww <= 49)) 45 2013-04-22 20:53:00
1 1969-08-04 18:00:00 ts > 5.0 y ((ww >= 70 y ww <= 79) || (ww >= 85 y ww <= 88))) 88 2013-04-22 20:54:00
1 1972-05-02 15:00:00 (ts - td > 5.0) y ((ww >= 40 y ww <= 49)) 45 2013-04-22 21:00:00
1 1972-09-16 21:00:00 ts > 5.0 y ((ww >= 70 y ww <= 79) || (ww >= 85 y ww <= 88))) 88 2013-04-22 21:01:00
1 1974-04-03 12:00:00 (ts - td > 5.0) y ((ww >= 40 y ww <= 49)) 45 2013-04-22 21:04:00
1 2003-03-09 12:00:00 (ts - td > 5.0) y ((ww >= 40 y ww <= 49)) 40 2013-04-22 22:02:00
1 1982-04-18 12:00:00 rrr = s/p y WW = 2 w1=5 w2=2 0.0 2014-08-28 15:46:00
1 1982-05-12 12:00:00 rrr = 0.1 y WW = 5 w1=2 w2=2 0.1 2014-08-28 15:47:00
1 1982-05-17 12:00:00 rrr = 1.6 y WW = 10 w1=4 w2=1 1.6 2014-08-28 15:47:00
1 1982-06-29 12:00:00 rrr = 0.1 y WW = 10 w1=2 w2=2 0.1 2014-08-28 15:47:00
1 1982-07-28 12:00:00 rrr = trazas y WW = 10 w1=4 w2=4 0.0 2014-08-28 15:47:00
1 1982-08-24 12:00:00 rrr = 0.1 y WW = 10 w1=2 w2=2 0.1 2014-08-28 15:47:00
1 1982-09-07 12:00:00 rrr = trazas y WW = 10 w1=2 w2=2 0.0 2014-08-28 15:47:00
1 1983-06-11 12:00:00 rrr = 0.1 y WW = 10 w1=2 w2=2 0.1 2014-08-28 15:48:00
1 1983-06-22 12:00:00 rrr = 0.6 y WW = 10 w1=2 w2=1 0.6 2014-08-28 15:48:00
1 1983-07-02 18:00:00 rrr = 0.2 y WW = 5 w1=2 w2=2 0.2 2014-08-28 15:48:00
1 1983-07-08 00:00:00 rrr = trazas y WW = 2 w1=2 w2=1 0.0 2014-08-28 15:48:00
1 1983-08-28 12:00:00 rrr = 0.2 y WW = 10 w1=2 w2=2 0.2 2014-08-28 15:48:00
1 1983-09-22 12:00:00 rrr = 0.1 y WW = 10 w1=2 w2=2 0.1 2014-08-28 15:48:00
1 1984-03-31 12:00:00 rrr = 0.8 y WW = 10 w1=2 w2=1 0.8 2014-08-28 15:48:00
1 1984-07-15 12:00:00 rrr = 0.1 y WW = 10 w1=2 w2=2 0.1 2014-08-28 15:49:00
1 1984-08-19 12:00:00 rrr = 0.2 y WW = 10 w1=4 w2=4 0.2 2014-08-28 15:49:00
1 1984-09-19 12:00:00 rrr = 0.1 y WW = 2 w1=1 w2=1 0.1 2014-08-28 15:49:00
1 1984-10-01 12:00:00 rrr = trazas y WW = 2 w1=2 w2=2 0.0 2014-08-28 15:49:00
1 1984-12-19 12:00:00 rrr = trazas y WW = 5 w1=4 w2=2 0.0 2014-08-28 15:49:00
1 1985-03-23 12:00:00 rrr = 0.1 y WW = 2 w1=2 w2=2 0.1 2014-08-28 15:49:00
1 1985-10-18 12:00:00 rrr = 0.5 y WW = 10 w1=4 w2=2 0.5 2014-08-28 15:50:00
1 1986-05-21 12:00:00 rrr = trazas y WW = 10 w1=1 w2=1 0.0 2014-08-28 15:50:00
1 1986-06-13 12:00:00 rrr = trazas y WW = 2 w1=2 w2=2 0.0 2014-08-28 15:50:00
1 1987-06-04 12:00:00 rrr = trazas y WW = 10 w1=4 w2=2 0.0 2014-08-28 15:51:00
1 1987-07-10 12:00:00 rrr = trazas y WW = 2 w1=2 w2=2 0.0 2014-08-28 15:52:00
1 1987-07-27 12:00:00 rrr = trazas y WW = 10 w1=2 w2=2 0.0 2014-08-28 15:52:00
1 1987-09-01 12:00:00 rrr = 0.1 y WW = 2 w1=2 w2=2 0.1 2014-08-28 15:52:00
1 1987-09-14 12:00:00 rrr = trazas y WW = 10 w1=2 w2=2 0.0 2014-08-28 15:52:00
1 1988-05-29 12:00:00 rrr = trazas y WW = 5 w1=2 w2=1 0.0 2014-08-28 15:52:00
1 1988-06-27 12:00:00 rrr = trazas y WW = 10 w1=4 w2=1 0.0 2014-08-28 15:52:00
1 1988-07-30 12:00:00 rrr = 0.5 y WW = 10 w1=2 w2=0 0.5 2014-08-28 15:52:00
1 1990-04-07 12:00:00 rrr = trazas y WW = 5 w1=2 w2=2 0.0 2014-08-28 15:54:00
1 1990-05-09 12:00:00 rrr = 0.1 y WW = 5 w1=2 w2=1 0.1 2014-08-28 15:54:00
1 1990-08-07 12:00:00 rrr = 5.9 y WW = 2 w1=4 w2=2 5.9 2014-08-28 15:54:00
1 1990-09-03 12:00:00 rrr = trazas y WW = 10 w1=2 w2=2 0.0 2014-08-28 15:55:00
1 1990-10-06 12:00:00 rrr = trazas y WW = 5 w1=2 w2=2 0.0 2014-08-28 15:55:00
1 1991-06-20 12:00:00 rrr = trazas y WW = 2 w1=2 w2=2 0.0 2014-08-28 15:55:00
1 1991-07-18 12:00:00 rrr = trazas y WW = 10 w1=2 w2=2 0.0 2014-08-28 15:55:00
1 1991-08-08 12:00:00 rrr = trazas y WW = 10 w1=2 w2=2 0.0 2014-08-28 15:55:00
1 1991-09-02 12:00:00 rrr = trazas y WW = 10 w1=2 w2=2 0.0 2014-08-28 15:55:00
1 1991-09-05 12:00:00 rrr = trazas y WW = 2 w1=2 w2=2 0.0 2014-08-28 15:55:00
1 1991-09-15 12:00:00 rrr = trazas y WW = 10 w1=2 w2=2 0.0 2014-08-28 15:56:00
1 1991-10-16 12:00:00 rrr = trazas y WW = 5 w1=0 w2=0 0.0 2014-08-28 15:56:00
1 1991-11-24 12:00:00 rrr = trazas y WW = 2 w1=4 w2=2 0.0 2014-08-28 15:56:00
1 1992-03-26 12:00:00 rrr = 0.1 y WW = 5 w1=2 w2=2 0.1 2014-08-28 15:56:00
1 1992-04-02 12:00:00 rrr = 0.5 y WW = 11 w1=4 w2=2 0.5 2014-08-28 15:56:00
1 1992-05-11 12:00:00 rrr = trazas y WW = 10 w1=2 w2=1 0.0 2014-08-28 15:56:00
1 1992-05-27 12:00:00 rrr = 0.2 y WW = 10 w1=2 w2=2 0.2 2014-08-28 15:56:00
1 1992-06-22 12:00:00 rrr = trazas y WW = 2 w1=2 w2=2 0.0 2014-08-28 15:56:00
1 1992-08-22 12:00:00 rrr = 6.3 y WW = 10 w1=4 w2=2 6.3 2014-08-28 15:57:00
1 1992-09-08 12:00:00 rrr = trazas y WW = 5 w1=4 w2=2 0.0 2014-08-28 15:57:00
1 1992-10-15 12:00:00 rrr = trazas y WW = 2 w1=2 w2=2 0.0 2014-08-28 15:57:00
1 1992-11-09 12:00:00 rrr = 0.1 y WW = 5 w1=2 w2=2 0.1 2014-08-28 15:57:00
1 1992-11-11 12:00:00 rrr = trazas y WW = 5 w1=2 w2=1 0.0 2014-08-28 15:57:00
1 1992-11-28 12:00:00 rrr = trazas y WW = 5 w1=2 w2=1 0.0 2014-08-28 15:57:00
1 1993-07-27 18:00:00 rrr = 1.7 y WW = 5 w1=2 w2=2 1.7 2014-08-28 15:58:00
1 1993-10-01 12:00:00 rrr = trazas y WW = 10 w1=2 w2=2 0.0 2014-08-28 15:58:00
1 1994-05-28 12:00:00 rrr = trazas y WW = 12 w1=4 w2=4 0.0 2014-08-28 15:59:00
1 1994-09-23 12:00:00 rrr = 0.8 y WW = 2 w1=2 w2=2 0.8 2014-08-28 15:59:00
1 1994-09-24 12:00:00 rrr = 1.3 y WW = 10 w1=2 w2=2 1.3 2014-08-28 15:59:00
1 1994-10-10 12:00:00 rrr = trazas y WW = 10 w1=2 w2=2 0.0 2014-08-28 15:59:00
1 1994-10-11 12:00:00 rrr = 2.2 y WW = 10 w1=2 w2=2 2.2 2014-08-28 15:59:00
1 1995-02-23 12:00:00 rrr = 0.1 y WW = 5 w1=1 w2=1 0.1 2014-08-28 16:00:00
1 1995-04-28 12:00:00 rrr = 13.9 y WW = 10 w1=1 w2=1 13.9 2014-08-28 16:00:00
1 1995-06-10 12:00:00 rrr = 1.1 y WW = 2 w1=2 w2=2 1.1 2014-08-28 16:00:00
1 1995-07-06 12:00:00 rrr = trazas y WW = 10 w1=4 w2=2 0.0 2014-08-28 16:00:00
1 1995-07-15 12:00:00 rrr = trazas y WW = 10 w1=1 w2=1 0.0 2014-08-28 16:00:00
1 1995-07-28 18:00:00 rrr = s/p y WW = 25 w1=2 w2=1 0.0 2014-08-28 16:00:00
1 1995-07-29 12:00:00 rrr = 2.9 y WW = 10 w1=2 w2=2 2.9 2014-08-28 16:00:00
1 1995-09-09 12:00:00 rrr = 0.1 y WW = 10 w1=2 w2=1 0.1 2014-08-28 16:00:00
1 1995-09-13 12:00:00 rrr = 1.6 y WW = 2 w1=2 w2=2 1.6 2014-08-28 16:00:00
1 1995-11-29 12:00:00 rrr = trazas y WW = 10 w1=2 w2=2 0.0 2014-08-28 16:01:00
1 1996-06-12 12:00:00 rrr = trazas y WW = 5 w1=2 w2=2 0.0 2014-08-28 16:01:00
1 1996-07-05 18:00:00 rrr = 0.1 y WW = 10 w1=4 w2=2 0.1 2014-08-28 16:01:00
1 1997-06-18 12:00:00 rrr = 0.4 y WW = 10 w1=2 w2=2 0.4 2014-08-28 16:02:00
1 1997-06-24 12:00:00 rrr = 0.1 y WW = 2 w1=2 w2=2 0.1 2014-08-28 16:02:00
1 1997-11-12 12:00:00 rrr = 4.8 y WW = 2 w1=2 w2=2 4.8 2014-08-28 16:02:00
1 1998-02-27 12:00:00 rrr = trazas y WW = 5 w1=0 w2=0 0.0 2014-08-28 16:03:00
1 1998-04-11 12:00:00 rrr = 0.2 y WW = 10 w1=2 w2=2 0.2 2014-08-28 16:03:00
1 1998-04-27 12:00:00 rrr = 0.2 y WW = 10 w1=2 w2=2 0.2 2014-08-28 16:03:00
1 1998-06-06 12:00:00 rrr = 0.6 y WW = 40 w1=4 w2=4 0.6 2014-08-28 16:03:00
1 1998-06-14 12:00:00 rrr = trazas y WW = 2 w1=2 w2=2 0.0 2014-08-28 16:03:00
1 1998-06-17 12:00:00 rrr = trazas y WW = 2 w1=2 w2=2 0.0 2014-08-28 16:03:00
1 1998-07-24 12:00:00 rrr = 0.3 y WW = 10 w1=2 w2=2 0.3 2014-08-28 16:03:00
1 1999-09-09 12:00:00 rrr = 1.0 y WW = 5 w1=0 w2=0 1.0 2014-08-28 16:04:00
1 1999-09-22 18:00:00 rrr = trazas y WW = 5 w1=2 w2=2 0.0 2014-08-28 16:04:00
1 1999-09-23 12:00:00 rrr = trazas y WW = 5 w1=2 w2=2 0.0 2014-08-28 16:04:00
1 2000-11-09 12:00:00 rrr = 0.1 y WW = 5 w1=0 w2=0 0.1 2014-08-28 16:05:00
1 2001-05-08 12:00:00 rrr = 0.3 y WW = 10 w1=1 w2=1 0.3 2014-08-28 16:06:00
1 2002-12-04 12:00:00 rrr = 0.1 y WW = 5 w1=4 w2=2 0.1 2014-08-28 16:07:00
1 2004-04-06 12:00:00 rrr = trazas y WW = 5 w1=0 w2=0 0.0 2014-08-28 16:09:00
1 2004-04-22 12:00:00 rrr = 12.4 y WW = 2 w1=2 w2=2 12.4 2014-08-28 16:09:00
1 2005-10-03 12:00:00 rrr = 1.0 y WW = 5 w1=0 w2=0 1.0 2014-08-28 16:10:00
Errores del Nivel 821
Nivel Fecha del Dato Descripción Información Error Fecha Ingreso
2 1952-01-01 12:00:00 Temperatura 12.8 del 01-01-1952 07:00, Menor que la Mínima 13.3 01-01-1952 12:00 12.8 -- 13.3 2014-04-21 18:47:00
2 1952-01-01 12:00:00 Temperatura 12.8 del 01-01-1952 07:00, Menor que la Mínima 13.3 01-01-1952 12:00 12.8 -- 13.3 2014-04-21 18:47:00
2 1952-01-05 12:00:00 Temperatura 13.8 del 05-01-1952 06:00, Menor que la Mínima 14.5 05-01-1952 12:00 13.8 -- 14.5 2014-04-21 19:52:00
2 1952-03-01 12:00:00 Temperatura 11.4 del 01-03-1952 07:00, Menor que la Mínima 12.2 01-03-1952 12:00 11.4 -- 12.2 2014-04-23 19:10:00
2 1952-05-14 12:00:00 Temperatura 11.9 del 14-05-1952 11:00, Menor que la Mínima 12.1 14-05-1952 12:00 11.9 -- 12.1 2014-04-30 20:09:00
2 1952-06-16 12:00:00 Temperatura -0.5 del 16-06-1952 08:00, Menor que la Mínima 1.3 16-06-1952 12:00 -0.5 -- 1.3 2014-05-06 15:14:00
2 1952-12-12 12:00:00 Temperatura 12.1 del 12-12-1952 01:00, Menor que la Mínima 12.5 12-12-1952 12:00 12.1 -- 12.5 2014-06-02 19:16:00
2 1952-12-17 12:00:00 Temperatura 9.0 del 17-12-1952 09:00, Menor que la Mínima 9.1 17-12-1952 12:00 9.0 -- 9.1 2014-06-02 21:08:00
2 1953-01-16 12:00:00 Temperatura 14.4 del 16-01-1953 05:00, Menor que la Mínima 14.6 16-01-1953 12:00 14.4 -- 14.6 2013-10-16 13:00:00
2 1953-02-15 12:00:00 Temperatura 12.0 del 15-02-1953 07:00, Menor que la Mínima 12.1 15-02-1953 12:00 12.0 -- 12.1 2013-10-23 17:44:00
2 1953-05-24 12:00:00 Temperatura 0.6 del 24-05-1953 11:00, Menor que la Mínima 1.2 24-05-1953 12:00 0.6 -- 1.2 2013-11-19 15:21:00
2 1953-05-31 12:00:00 Temperatura 1.5 del 31-05-1953 12:00, Menor que la Mínima 1.6 31-05-1953 12:00 1.5 -- 1.6 2013-11-20 19:28:00
2 1953-09-21 12:00:00 Temperatura 9.5 del 21-09-1953 10:00, Menor que la Mínima 9.9 21-09-1953 12:00 9.5 -- 9.9 2013-09-12 19:59:00
2 1953-10-06 12:00:00 Temperatura 0.4 del 06-10-1953 11:00, Menor que la Mínima 21.1 06-10-1953 12:00 0.4 -- 21.1 2013-09-24 13:27:00
2 1953-10-09 12:00:00 Temperatura 5.2 del 09-10-1953 10:00, Menor que la Mínima 6.6 09-10-1953 12:00 5.2 -- 6.6 2013-09-24 15:43:00
2 1955-04-05 12:00:00 Temperatura 8.9 del 05-04-1955 12:00, Menor que la Mínima 9.0 05-04-1955 12:00 8.9 -- 9.0 2012-09-13 10:27:00
2 1955-11-09 12:00:00 Temperatura 8.5 del 09-11-1955 06:00, Menor que la Mínima 8.6 09-11-1955 12:00 8.5 -- 8.6 2012-09-13 10:27:00
2 1956-02-23 12:00:00 Temperatura 10.1 del 23-02-1956 09:00, Menor que la Mínima 11.0 23-02-1956 12:00 10.1 -- 11.0 2012-09-13 10:27:00
2 1956-06-02 12:00:00 Temperatura 0.3 del 02-06-1956 12:00, Menor que la Mínima 0.9 02-06-1956 12:00 0.3 -- 0.9 2012-09-13 10:27:00
2 1956-06-06 12:00:00 Temperatura 0.8 del 06-06-1956 06:00, Menor que la Mínima 4.4 06-06-1956 12:00 0.8 -- 4.4 2012-09-13 10:27:00
2 1956-08-13 12:00:00 Temperatura 5.8 del 13-08-1956 12:00, Menor que la Mínima 6.0 13-08-1956 12:00 5.8 -- 6.0 2012-09-13 10:27:00
2 1956-09-22 12:00:00 Temperatura 3.4 del 22-09-1956 06:00, Menor que la Mínima 4.1 22-09-1956 12:00 3.4 -- 4.1 2012-09-13 10:27:00
2 1957-02-20 12:00:00 Temperatura 9.7 del 20-02-1957 06:00, Menor que la Mínima 11.0 20-02-1957 12:00 9.7 -- 11.0 2012-09-13 10:27:00
2 1957-08-14 12:00:00 Temperatura 2.9 del 14-08-1957 09:00, Menor que la Mínima 5.1 14-08-1957 12:00 2.9 -- 5.1 2012-09-13 10:27:00
2 1957-08-19 12:00:00 Temperatura 0.8 del 19-08-1957 09:00, Menor que la Mínima 7.4 19-08-1957 12:00 0.8 -- 7.4 2012-09-13 10:27:00
2 1957-09-18 12:00:00 Temperatura 0.8 del 18-09-1957 03:00, Menor que la Mínima 4.1 18-09-1957 12:00 0.8 -- 4.1 2012-09-13 10:27:00
2 1957-09-29 12:00:00 Temperatura 0.8 del 29-09-1957 12:00, Menor que la Mínima 6.3 29-09-1957 12:00 0.8 -- 6.3 2012-09-13 10:27:00
2 1957-10-16 12:00:00 Temperatura 1.0 del 16-10-1957 12:00, Menor que la Mínima 7.7 16-10-1957 12:00 1.0 -- 7.7 2012-09-13 10:27:00
2 1957-10-17 12:00:00 Temperatura 6.3 del 17-10-1957 06:00, Menor que la Mínima 6.4 17-10-1957 12:00 6.3 -- 6.4 2012-09-13 10:27:00
2 1957-10-26 12:00:00 Temperatura 4.5 del 26-10-1957 09:00, Menor que la Mínima 5.0 26-10-1957 12:00 4.5 -- 5.0 2012-09-13 10:27:00
2 1957-11-16 12:00:00 Temperatura 7.8 del 16-11-1957 09:00, Menor que la Mínima 8.6 16-11-1957 12:00 7.8 -- 8.6 2012-09-13 10:27:00
2 1957-11-21 12:00:00 Temperatura 11.2 del 21-11-1957 09:00, Menor que la Mínima 11.8 21-11-1957 12:00 11.2 -- 11.8 2012-09-13 10:27:00
2 1957-12-10 12:00:00 Temperatura 10.3 del 10-12-1957 09:00, Menor que la Mínima 10.4 10-12-1957 12:00 10.3 -- 10.4 2012-09-13 10:27:00
2 1958-01-24 12:00:00 Temperatura 12.6 del 24-01-1958 09:00, Menor que la Mínima 12.8 24-01-1958 12:00 12.6 -- 12.8 2012-09-13 10:27:00
2 1958-03-01 12:00:00 Temperatura 10.0 del 01-03-1958 09:00, Menor que la Mínima 11.8 01-03-1958 12:00 10.0 -- 11.8 2012-09-13 10:27:00
2 1958-07-16 12:00:00 Temperatura 0.7 del 16-07-1958 09:00, Menor que la Mínima 6.8 16-07-1958 12:00 0.7 -- 6.8 2012-09-13 10:27:00
2 1958-07-18 12:00:00 Temperatura 0.8 del 18-07-1958 09:00, Menor que la Mínima 8.4 18-07-1958 12:00 0.8 -- 8.4 2012-09-13 10:27:00
2 1958-07-26 12:00:00 Temperatura 0.8 del 26-07-1958 09:00, Menor que la Mínima 7.2 26-07-1958 12:00 0.8 -- 7.2 2012-09-13 10:27:00
2 1958-08-14 12:00:00 Temperatura 9.4 del 14-08-1958 03:00, Menor que la Mínima 10.5 14-08-1958 12:00 9.4 -- 10.5 2012-09-13 10:27:00
2 1958-08-26 12:00:00 Temperatura 0.4 del 26-08-1958 12:00, Menor que la Mínima 7.0 26-08-1958 12:00 0.4 -- 7.0 2012-09-13 10:27:00
2 1958-10-27 12:00:00 Temperatura 8.8 del 27-10-1958 09:00, Menor que la Mínima 9.0 27-10-1958 12:00 8.8 -- 9.0 2012-09-13 10:28:00
2 1958-11-07 12:00:00 Temperatura 1.4 del 07-11-1958 03:00, Menor que la Mínima 12.7 07-11-1958 12:00 1.4 -- 12.7 2012-09-13 10:28:00
2 1958-11-10 12:00:00 Temperatura 10.6 del 10-11-1958 06:00, Menor que la Mínima 11.2 10-11-1958 12:00 10.6 -- 11.2 2012-09-13 10:28:00
2 1958-11-14 12:00:00 Temperatura 9.7 del 14-11-1958 09:00, Menor que la Mínima 9.8 14-11-1958 12:00 9.7 -- 9.8 2012-09-13 10:28:00
2 1958-11-18 12:00:00 Temperatura 10.7 del 18-11-1958 09:00, Menor que la Mínima 11.5 18-11-1958 12:00 10.7 -- 11.5 2012-09-13 10:28:00
2 1958-11-24 12:00:00 Temperatura 10.6 del 24-11-1958 06:00, Menor que la Mínima 11.4 24-11-1958 12:00 10.6 -- 11.4 2012-09-13 10:28:00
2 1959-01-01 12:00:00 Temperatura 10.5 del 01-01-1959 06:00, Menor que la Mínima 10.6 01-01-1959 12:00 10.5 -- 10.6 2012-09-13 10:28:00
2 1959-01-01 12:00:00 Temperatura 10.5 del 01-01-1959 06:00, Menor que la Mínima 10.6 01-01-1959 12:00 10.5 -- 10.6 2012-09-13 10:28:00
2 1959-02-19 12:00:00 Temperatura 13.8 del 19-02-1959 06:00, Menor que la Mínima 13.9 19-02-1959 12:00 13.8 -- 13.9 2012-09-13 10:28:00
2 1959-04-07 12:00:00 Temperatura 10.0 del 07-04-1959 12:00, Menor que la Mínima 10.8 07-04-1959 12:00 10.0 -- 10.8 2012-09-13 10:28:00
2 1959-04-14 12:00:00 Temperatura 9.4 del 14-04-1959 09:00, Menor que la Mínima 9.6 14-04-1959 12:00 9.4 -- 9.6 2012-09-13 10:28:00
2 1959-05-14 12:00:00 Temperatura 8.5 del 14-05-1959 06:00, Menor que la Mínima 8.7 14-05-1959 12:00 8.5 -- 8.7 2012-09-13 10:28:00
2 1959-05-31 12:00:00 Temperatura 5.0 del 31-05-1959 09:00, Menor que la Mínima 5.2 31-05-1959 12:00 5.0 -- 5.2 2012-09-13 10:28:00
2 1959-07-09 12:00:00 Temperatura 0.4 del 09-07-1959 06:00, Menor que la Mínima 5.3 09-07-1959 12:00 0.4 -- 5.3 2012-09-13 10:28:00
2 1959-07-12 12:00:00 Temperatura 5.7 del 12-07-1959 03:00, Menor que la Mínima 6.2 12-07-1959 12:00 5.7 -- 6.2 2012-09-13 10:28:00
2 1959-08-29 12:00:00 Temperatura 5.8 del 29-08-1959 03:00, Menor que la Mínima 5.9 29-08-1959 12:00 5.8 -- 5.9 2012-09-13 10:28:00
2 1960-03-09 12:00:00 Temperatura 12.2 del 09-03-1960 09:00, Menor que la Mínima 12.3 09-03-1960 12:00 12.2 -- 12.3 2012-09-13 10:28:00
2 1960-04-25 12:00:00 Temperatura 7.2 del 25-04-1960 12:00, Menor que la Mínima 10.8 25-04-1960 12:00 7.2 -- 10.8 2012-09-13 10:28:00
2 1960-05-18 12:00:00 Temperatura 5.3 del 18-05-1960 06:00, Menor que la Mínima 5.6 18-05-1960 12:00 5.3 -- 5.6 2012-09-13 10:28:00
2 1960-06-12 12:00:00 Temperatura 7.2 del 12-06-1960 09:00, Menor que la Mínima 7.4 12-06-1960 12:00 7.2 -- 7.4 2012-09-13 10:28:00
2 1960-06-26 12:00:00 Temperatura 3.6 del 26-06-1960 06:00, Menor que la Mínima 3.8 26-06-1960 12:00 3.6 -- 3.8 2012-09-13 10:28:00
2 1960-07-28 12:00:00 Temperatura 5.6 del 28-07-1960 09:00, Menor que la Mínima 5.7 28-07-1960 12:00 5.6 -- 5.7 2012-09-13 10:28:00
2 1960-09-06 12:00:00 Temperatura 7.6 del 06-09-1960 09:00, Menor que la Mínima 7.8 06-09-1960 12:00 7.6 -- 7.8 2012-09-13 10:28:00
2 1960-10-28 12:00:00 Temperatura 7.4 del 28-10-1960 09:00, Menor que la Mínima 7.6 28-10-1960 12:00 7.4 -- 7.6 2012-09-13 10:28:00
2 1960-11-03 12:00:00 Temperatura 11.0 del 03-11-1960 09:00, Menor que la Mínima 11.2 03-11-1960 12:00 11.0 -- 11.2 2012-09-13 10:28:00
2 1960-11-10 12:00:00 Temperatura 10.6 del 10-11-1960 09:00, Menor que la Mínima 11.4 10-11-1960 12:00 10.6 -- 11.4 2012-09-13 10:28:00
2 1960-11-18 12:00:00 Temperatura 11.2 del 18-11-1960 09:00, Menor que la Mínima 11.8 18-11-1960 12:00 11.2 -- 11.8 2012-09-13 10:28:00
2 1961-01-21 12:00:00 Temperatura 13.3 del 21-01-1961 03:00, Menor que la Mínima 14.2 21-01-1961 12:00 13.3 -- 14.2 2012-09-13 10:28:00
2 1961-02-15 12:00:00 Temperatura 11.7 del 15-02-1961 09:00, Menor que la Mínima 12.0 15-02-1961 12:00 11.7 -- 12.0 2012-09-13 10:28:00
2 1961-07-12 12:00:00 Temperatura 4.0 del 12-07-1961 06:00, Menor que la Mínima 4.2 12-07-1961 12:00 4.0 -- 4.2 2012-09-13 10:28:00
2 1961-07-28 12:00:00 Temperatura 3.4 del 28-07-1961 03:00, Menor que la Mínima 6.2 28-07-1961 12:00 3.4 -- 6.2 2012-09-13 10:28:00
2 1962-01-08 12:00:00 Temperatura 11.6 del 08-01-1962 06:00, Menor que la Mínima 12.6 08-01-1962 12:00 11.6 -- 12.6 2012-09-13 10:28:00
2 1962-06-23 12:00:00 Temperatura 2.0 del 23-06-1962 03:00, Menor que la Mínima 6.4 23-06-1962 12:00 2.0 -- 6.4 2012-09-13 10:29:00
2 1964-04-26 12:00:00 Temperatura 8.8 del 26-04-1964 03:00, Menor que la Mínima 9.0 26-04-1964 12:00 8.8 -- 9.0 2012-09-13 10:29:00
2 1965-02-11 12:00:00 Temperatura 10.4 del 11-02-1965 03:00, Menor que la Mínima 13.0 11-02-1965 12:00 10.4 -- 13.0 2012-09-13 10:29:00
2 1965-02-28 12:00:00 Temperatura 10.4 del 28-02-1965 12:00, Menor que la Mínima 11.4 28-02-1965 12:00 10.4 -- 11.4 2012-09-13 10:29:00
2 1965-03-04 12:00:00 Temperatura 7.6 del 04-03-1965 12:00, Menor que la Mínima 15.0 04-03-1965 12:00 7.6 -- 15.0 2012-09-13 10:29:00
2 1965-05-29 12:00:00 Temperatura 8.4 del 29-05-1965 12:00, Menor que la Mínima 8.8 29-05-1965 12:00 8.4 -- 8.8 2012-09-13 10:29:00
2 1965-07-23 12:00:00 Temperatura 1.0 del 23-07-1965 12:00, Menor que la Mínima 8.6 23-07-1965 12:00 1.0 -- 8.6 2012-09-13 10:29:00
2 1965-11-11 12:00:00 Temperatura 11.8 del 11-11-1965 09:00, Menor que la Mínima 12.0 11-11-1965 12:00 11.8 -- 12.0 2012-09-13 10:30:00
2 1966-04-14 12:00:00 Temperatura 10.2 del 14-04-1966 03:00, Menor que la Mínima 11.5 14-04-1966 12:00 10.2 -- 11.5 2012-09-13 10:30:00
2 1966-06-27 12:00:00 Temperatura 6.6 del 27-06-1966 12:00, Menor que la Mínima 7.1 27-06-1966 12:00 6.6 -- 7.1 2012-09-13 10:30:00
2 1966-07-26 12:00:00 Temperatura 0.6 del 26-07-1966 06:00, Menor que la Mínima 4.8 26-07-1966 12:00 0.6 -- 4.8 2012-09-13 10:30:00
2 1966-09-27 12:00:00 Temperatura 7.4 del 27-09-1966 09:00, Menor que la Mínima 7.6 27-09-1966 12:00 7.4 -- 7.6 2012-09-13 10:30:00
2 1966-11-04 12:00:00 Temperatura 10.0 del 04-11-1966 09:00, Menor que la Mínima 11.7 04-11-1966 12:00 10.0 -- 11.7 2012-09-13 10:30:00
2 1966-12-16 12:00:00 Temperatura 8.4 del 16-12-1966 09:00, Menor que la Mínima 9.1 16-12-1966 12:00 8.4 -- 9.1 2012-09-13 10:30:00
2 1966-12-27 12:00:00 Temperatura 13.0 del 27-12-1966 09:00, Menor que la Mínima 13.6 27-12-1966 12:00 13.0 -- 13.6 2012-09-13 10:30:00
2 1967-02-11 12:00:00 Temperatura 12.8 del 11-02-1967 09:00, Menor que la Mínima 13.9 11-02-1967 12:00 12.8 -- 13.9 2012-09-13 10:30:00
2 1967-02-18 12:00:00 Temperatura 12.8 del 18-02-1967 09:00, Menor que la Mínima 13.1 18-02-1967 12:00 12.8 -- 13.1 2012-09-13 10:30:00
2 1967-02-28 12:00:00 Temperatura 10.0 del 28-02-1967 06:00, Menor que la Mínima 11.2 28-02-1967 12:00 10.0 -- 11.2 2012-09-13 10:30:00
2 1967-03-05 12:00:00 Temperatura 12.0 del 05-03-1967 06:00, Menor que la Mínima 12.2 05-03-1967 12:00 12.0 -- 12.2 2012-09-13 10:30:00
2 1967-03-12 12:00:00 Temperatura 10.0 del 12-03-1967 09:00, Menor que la Mínima 11.8 12-03-1967 12:00 10.0 -- 11.8 2012-09-13 10:30:00
2 1967-04-05 12:00:00 Temperatura 8.8 del 05-04-1967 09:00, Menor que la Mínima 9.2 05-04-1967 12:00 8.8 -- 9.2 2012-09-13 10:30:00
2 1967-04-13 12:00:00 Temperatura 9.2 del 13-04-1967 09:00, Menor que la Mínima 9.4 13-04-1967 12:00 9.2 -- 9.4 2012-09-13 10:30:00
2 1967-04-17 12:00:00 Temperatura 9.4 del 17-04-1967 09:00, Menor que la Mínima 9.8 17-04-1967 12:00 9.4 -- 9.8 2012-09-13 10:30:00
2 1967-04-19 12:00:00 Temperatura 10.8 del 19-04-1967 06:00, Menor que la Mínima 11.3 19-04-1967 12:00 10.8 -- 11.3 2012-09-13 10:30:00
2 1967-04-22 12:00:00 Temperatura 8.4 del 22-04-1967 06:00, Menor que la Mínima 8.9 22-04-1967 12:00 8.4 -- 8.9 2012-09-13 10:30:00
2 1967-05-18 12:00:00 Temperatura 10.1 del 18-05-1967 09:00, Menor que la Mínima 10.2 18-05-1967 12:00 10.1 -- 10.2 2012-09-13 10:30:00
2 1967-06-22 12:00:00 Temperatura 2.3 del 22-06-1967 09:00, Menor que la Mínima 2.4 22-06-1967 12:00 2.3 -- 2.4 2012-09-13 10:30:00
2 1967-07-09 12:00:00 Temperatura 0.6 del 09-07-1967 09:00, Menor que la Mínima 1.3 09-07-1967 12:00 0.6 -- 1.3 2012-09-13 10:30:00
2 1967-07-15 12:00:00 Temperatura 3.0 del 15-07-1967 09:00, Menor que la Mínima 3.2 15-07-1967 12:00 3.0 -- 3.2 2012-09-13 10:30:00
2 1967-07-26 12:00:00 Temperatura 4.0 del 26-07-1967 09:00, Menor que la Mínima 4.1 26-07-1967 12:00 4.0 -- 4.1 2012-09-13 10:30:00
2 1967-08-19 12:00:00 Temperatura 3.0 del 19-08-1967 12:00, Menor que la Mínima 4.2 19-08-1967 12:00 3.0 -- 4.2 2012-09-13 10:30:00
2 1967-09-11 12:00:00 Temperatura 3.6 del 11-09-1967 09:00, Menor que la Mínima 3.8 11-09-1967 12:00 3.6 -- 3.8 2012-09-13 10:30:00
2 1967-09-21 12:00:00 Temperatura 0.5 del 21-09-1967 06:00, Menor que la Mínima 2.4 21-09-1967 12:00 0.5 -- 2.4 2012-09-13 10:30:00
2 1967-10-04 12:00:00 Temperatura 0.8 del 04-10-1967 12:00, Menor que la Mínima 6.4 04-10-1967 12:00 0.8 -- 6.4 2012-09-13 10:30:00
2 1967-10-08 12:00:00 Temperatura 6.4 del 08-10-1967 09:00, Menor que la Mínima 8.2 08-10-1967 12:00 6.4 -- 8.2 2012-09-13 10:30:00
2 1967-10-12 12:00:00 Temperatura 7.0 del 12-10-1967 09:00, Menor que la Mínima 8.2 12-10-1967 12:00 7.0 -- 8.2 2012-09-13 10:30:00
2 1967-10-14 12:00:00 Temperatura 8.8 del 14-10-1967 09:00, Menor que la Mínima 9.8 14-10-1967 12:00 8.8 -- 9.8 2012-09-13 10:30:00
2 1967-10-22 12:00:00 Temperatura 7.4 del 22-10-1967 09:00, Menor que la Mínima 7.6 22-10-1967 12:00 7.4 -- 7.6 2012-09-13 10:30:00
2 1967-11-04 12:00:00 Temperatura 10.4 del 04-11-1967 09:00, Menor que la Mínima 10.6 04-11-1967 12:00 10.4 -- 10.6 2012-09-13 10:30:00
2 1967-11-05 12:00:00 Temperatura 9.8 del 05-11-1967 09:00, Menor que la Mínima 10.0 05-11-1967 12:00 9.8 -- 10.0 2012-09-13 10:30:00
2 1967-11-12 12:00:00 Temperatura 9.0 del 12-11-1967 09:00, Menor que la Mínima 10.0 12-11-1967 12:00 9.0 -- 10.0 2012-09-13 10:30:00
2 1967-11-17 12:00:00 Temperatura 8.8 del 17-11-1967 09:00, Menor que la Mínima 10.4 17-11-1967 12:00 8.8 -- 10.4 2012-09-13 10:30:00
2 1967-11-21 12:00:00 Temperatura 10.0 del 21-11-1967 09:00, Menor que la Mínima 12.4 21-11-1967 12:00 10.0 -- 12.4 2012-09-13 10:30:00
2 1967-11-25 12:00:00 Temperatura 10.6 del 25-11-1967 09:00, Menor que la Mínima 11.2 25-11-1967 12:00 10.6 -- 11.2 2012-09-13 10:30:00
2 1967-12-07 12:00:00 Temperatura 15.0 del 07-12-1967 09:00, Menor que la Mínima 16.0 07-12-1967 12:00 15.0 -- 16.0 2012-09-13 10:30:00
2 1967-12-10 12:00:00 Temperatura 11.0 del 10-12-1967 09:00, Menor que la Mínima 11.2 10-12-1967 12:00 11.0 -- 11.2 2012-09-13 10:30:00
2 1967-12-20 12:00:00 Temperatura 13.8 del 20-12-1967 09:00, Menor que la Mínima 15.2 20-12-1967 12:00 13.8 -- 15.2 2012-09-13 10:30:00
2 1967-12-27 12:00:00 Temperatura 15.0 del 27-12-1967 09:00, Menor que la Mínima 15.2 27-12-1967 12:00 15.0 -- 15.2 2012-09-13 10:30:00
2 1968-01-03 12:00:00 Temperatura 12.2 del 03-01-1968 03:00, Menor que la Mínima 13.4 03-01-1968 12:00 12.2 -- 13.4 2012-09-13 10:30:00
2 1968-01-04 12:00:00 Temperatura 13.6 del 04-01-1968 09:00, Menor que la Mínima 13.9 04-01-1968 12:00 13.6 -- 13.9 2012-09-13 10:30:00
2 1968-01-05 12:00:00 Temperatura 12.8 del 05-01-1968 09:00, Menor que la Mínima 13.4 05-01-1968 12:00 12.8 -- 13.4 2012-09-13 10:30:00
2 1968-01-14 12:00:00 Temperatura 13.0 del 14-01-1968 09:00, Menor que la Mínima 14.0 14-01-1968 12:00 13.0 -- 14.0 2012-09-13 10:30:00
2 1968-01-20 12:00:00 Temperatura 10.0 del 20-01-1968 09:00, Menor que la Mínima 11.2 20-01-1968 12:00 10.0 -- 11.2 2012-09-13 10:30:00
2 1968-01-25 12:00:00 Temperatura 14.0 del 25-01-1968 06:00, Menor que la Mínima 15.6 25-01-1968 12:00 14.0 -- 15.6 2012-09-13 10:30:00
2 1968-02-05 12:00:00 Temperatura 13.0 del 05-02-1968 09:00, Menor que la Mínima 13.2 05-02-1968 12:00 13.0 -- 13.2 2012-09-13 10:30:00
2 1968-02-26 12:00:00 Temperatura 12.4 del 26-02-1968 06:00, Menor que la Mínima 12.7 26-02-1968 12:00 12.4 -- 12.7 2012-09-13 10:30:00
2 1968-03-04 12:00:00 Temperatura 14.3 del 04-03-1968 06:00, Menor que la Mínima 14.8 04-03-1968 12:00 14.3 -- 14.8 2012-09-13 10:30:00
2 1968-03-14 12:00:00 Temperatura 13.0 del 14-03-1968 06:00, Menor que la Mínima 13.6 14-03-1968 12:00 13.0 -- 13.6 2012-09-13 10:30:00
2 1968-03-24 12:00:00 Temperatura 11.0 del 24-03-1968 06:00, Menor que la Mínima 11.4 24-03-1968 12:00 11.0 -- 11.4 2012-09-13 10:30:00
2 1968-04-09 12:00:00 Temperatura 0.7 del 09-04-1968 12:00, Menor que la Mínima 5.6 09-04-1968 12:00 0.7 -- 5.6 2012-09-13 10:30:00
2 1968-05-20 12:00:00 Temperatura 6.9 del 20-05-1968 12:00, Menor que la Mínima 7.0 20-05-1968 12:00 6.9 -- 7.0 2012-09-13 10:30:00
2 1968-05-24 12:00:00 Temperatura 5.8 del 24-05-1968 12:00, Menor que la Mínima 6.4 24-05-1968 12:00 5.8 -- 6.4 2012-09-13 10:30:00
2 1968-06-01 12:00:00 Temperatura 5.0 del 01-06-1968 09:00, Menor que la Mínima 5.1 01-06-1968 12:00 5.0 -- 5.1 2012-09-13 10:30:00
2 1968-06-28 12:00:00 Temperatura 5.2 del 28-06-1968 09:00, Menor que la Mínima 5.6 28-06-1968 12:00 5.2 -- 5.6 2012-09-13 10:30:00
2 1968-07-01 12:00:00 Temperatura 4.3 del 01-07-1968 09:00, Menor que la Mínima 4.8 01-07-1968 12:00 4.3 -- 4.8 2012-09-13 10:30:00
2 1968-07-06 12:00:00 Temperatura 5.0 del 06-07-1968 06:00, Menor que la Mínima 5.8 06-07-1968 12:00 5.0 -- 5.8 2012-09-13 10:30:00
2 1968-07-12 12:00:00 Temperatura 3.8 del 12-07-1968 09:00, Menor que la Mínima 4.0 12-07-1968 12:00 3.8 -- 4.0 2012-09-13 10:30:00
2 1968-07-28 12:00:00 Temperatura 2.8 del 28-07-1968 12:00, Menor que la Mínima 3.0 28-07-1968 12:00 2.8 -- 3.0 2012-09-13 10:30:00
2 1968-08-08 12:00:00 Temperatura 2.2 del 08-08-1968 12:00, Menor que la Mínima 2.6 08-08-1968 12:00 2.2 -- 2.6 2012-09-13 10:30:00
2 1968-08-26 12:00:00 Temperatura 8.0 del 26-08-1968 06:00, Menor que la Mínima 8.2 26-08-1968 12:00 8.0 -- 8.2 2012-09-13 10:30:00
2 1968-08-29 12:00:00 Temperatura 7.0 del 29-08-1968 09:00, Menor que la Mínima 7.4 29-08-1968 12:00 7.0 -- 7.4 2012-09-13 10:30:00
2 1968-09-03 12:00:00 Temperatura 5.6 del 03-09-1968 09:00, Menor que la Mínima 5.8 03-09-1968 12:00 5.6 -- 5.8 2012-09-13 10:30:00
2 1968-10-11 12:00:00 Temperatura 8.0 del 11-10-1968 09:00, Menor que la Mínima 8.4 11-10-1968 12:00 8.0 -- 8.4 2012-09-13 10:30:00
2 1968-10-18 12:00:00 Temperatura 8.3 del 18-10-1968 09:00, Menor que la Mínima 9.0 18-10-1968 12:00 8.3 -- 9.0 2012-09-13 10:30:00
2 1968-10-21 12:00:00 Temperatura 11.6 del 21-10-1968 09:00, Menor que la Mínima 12.2 21-10-1968 12:00 11.6 -- 12.2 2012-09-13 10:30:00
2 1968-11-08 12:00:00 Temperatura 8.2 del 08-11-1968 09:00, Menor que la Mínima 8.6 08-11-1968 12:00 8.2 -- 8.6 2012-09-13 10:30:00
2 1968-11-13 12:00:00 Temperatura 9.0 del 13-11-1968 09:00, Menor que la Mínima 9.1 13-11-1968 12:00 9.0 -- 9.1 2012-09-13 10:30:00
2 1968-11-28 12:00:00 Temperatura 10.0 del 28-11-1968 09:00, Menor que la Mínima 11.4 28-11-1968 12:00 10.0 -- 11.4 2012-09-13 10:30:00
2 1968-12-16 12:00:00 Temperatura 12.8 del 16-12-1968 09:00, Menor que la Mínima 12.9 16-12-1968 12:00 12.8 -- 12.9 2012-09-13 10:30:00
2 1968-12-18 12:00:00 Temperatura 12.9 del 18-12-1968 09:00, Menor que la Mínima 14.2 18-12-1968 12:00 12.9 -- 14.2 2012-09-13 10:30:00
2 1968-12-29 12:00:00 Temperatura 10.0 del 29-12-1968 09:00, Menor que la Mínima 10.1 29-12-1968 12:00 10.0 -- 10.1 2012-09-13 10:30:00
2 1969-01-13 12:00:00 Temperatura 11.3 del 13-01-1969 09:00, Menor que la Mínima 13.4 13-01-1969 12:00 11.3 -- 13.4 2012-09-13 10:30:00
2 1969-01-16 12:00:00 Temperatura 10.7 del 16-01-1969 12:00, Menor que la Mínima 12.3 16-01-1969 12:00 10.7 -- 12.3 2012-09-13 10:30:00
2 1969-01-18 12:00:00 Temperatura 4.8 del 18-01-1969 10:00, Menor que la Mínima 14.0 18-01-1969 12:00 4.8 -- 14.0 2012-09-13 10:30:00
2 1969-01-25 12:00:00 Temperatura 13.0 del 25-01-1969 08:00, Menor que la Mínima 14.0 25-01-1969 12:00 13.0 -- 14.0 2012-09-13 10:30:00
2 1969-01-29 12:00:00 Temperatura 15.1 del 29-01-1969 08:00, Menor que la Mínima 15.8 29-01-1969 12:00 15.1 -- 15.8 2012-09-13 10:30:00
2 1969-02-20 12:00:00 Temperatura 12.0 del 20-02-1969 11:00, Menor que la Mínima 19.4 20-02-1969 12:00 12.0 -- 19.4 2012-09-13 10:31:00
2 1969-03-02 12:00:00 Temperatura 10.0 del 02-03-1969 08:00, Menor que la Mínima 10.1 02-03-1969 12:00 10.0 -- 10.1 2012-09-13 10:31:00
2 1969-03-07 12:00:00 Temperatura 12.0 del 07-03-1969 09:00, Menor que la Mínima 12.8 07-03-1969 12:00 12.0 -- 12.8 2012-09-13 10:31:00
2 1969-03-26 12:00:00 Temperatura 9.4 del 26-03-1969 09:00, Menor que la Mínima 10.0 26-03-1969 12:00 9.4 -- 10.0 2012-09-13 10:31:00
2 1969-04-24 12:00:00 Temperatura 2.6 del 24-04-1969 12:00, Menor que la Mínima 11.6 24-04-1969 12:00 2.6 -- 11.6 2012-09-13 10:31:00
2 1969-05-30 12:00:00 Temperatura 8.1 del 30-05-1969 09:00, Menor que la Mínima 9.0 30-05-1969 12:00 8.1 -- 9.0 2012-09-13 10:31:00
2 1969-06-02 12:00:00 Temperatura 8.2 del 02-06-1969 03:00, Menor que la Mínima 9.0 02-06-1969 12:00 8.2 -- 9.0 2012-09-13 10:31:00
2 1969-06-28 12:00:00 Temperatura 0.8 del 28-06-1969 05:00, Menor que la Mínima 1.1 28-06-1969 12:00 0.8 -- 1.1 2012-09-13 10:31:00
2 1969-07-11 12:00:00 Temperatura 4.3 del 11-07-1969 07:00, Menor que la Mínima 4.7 11-07-1969 12:00 4.3 -- 4.7 2012-09-13 10:31:00
2 1969-08-28 12:00:00 Temperatura 8.0 del 28-08-1969 09:00, Menor que la Mínima 8.9 28-08-1969 12:00 8.0 -- 8.9 2012-09-13 10:31:00
2 1969-10-15 12:00:00 Temperatura 7.4 del 15-10-1969 10:00, Menor que la Mínima 8.7 15-10-1969 12:00 7.4 -- 8.7 2012-09-13 10:31:00
2 1969-10-20 12:00:00 Temperatura 6.9 del 20-10-1969 08:00, Menor que la Mínima 8.0 20-10-1969 12:00 6.9 -- 8.0 2012-09-13 10:31:00
2 1969-11-03 12:00:00 Temperatura 12.4 del 03-11-1969 09:00, Menor que la Mínima 12.6 03-11-1969 12:00 12.4 -- 12.6 2012-09-13 10:31:00
2 1969-11-11 12:00:00 Temperatura 7.8 del 11-11-1969 10:00, Menor que la Mínima 8.1 11-11-1969 12:00 7.8 -- 8.1 2012-09-13 10:31:00
2 1969-11-28 12:00:00 Temperatura 10.0 del 28-11-1969 09:00, Menor que la Mínima 10.6 28-11-1969 12:00 10.0 -- 10.6 2012-09-13 10:31:00
2 1970-01-02 12:00:00 Temperatura 12.8 del 02-01-1970 10:00, Menor que la Mínima 13.4 02-01-1970 12:00 12.8 -- 13.4 2012-09-13 10:31:00
2 1970-01-12 12:00:00 Temperatura 12.0 del 12-01-1970 10:00, Menor que la Mínima 12.5 12-01-1970 12:00 12.0 -- 12.5 2012-09-13 10:31:00
2 1970-01-23 12:00:00 Temperatura 12.2 del 23-01-1970 10:00, Menor que la Mínima 12.4 23-01-1970 12:00 12.2 -- 12.4 2012-09-13 10:31:00
2 1970-01-24 12:00:00 Temperatura 1.6 del 24-01-1970 09:00, Menor que la Mínima 10.6 24-01-1970 12:00 1.6 -- 10.6 2012-09-13 10:31:00
2 1970-01-31 12:00:00 Temperatura 12.4 del 31-01-1970 09:00, Menor que la Mínima 14.0 31-01-1970 12:00 12.4 -- 14.0 2012-09-13 10:31:00
2 1970-02-04 12:00:00 Temperatura 1.9 del 04-02-1970 09:00, Menor que la Mínima 12.0 04-02-1970 12:00 1.9 -- 12.0 2012-09-13 10:31:00
2 1970-02-07 12:00:00 Temperatura 9.3 del 07-02-1970 02:00, Menor que la Mínima 12.8 07-02-1970 12:00 9.3 -- 12.8 2012-09-13 10:31:00
2 1970-02-12 12:00:00 Temperatura 12.3 del 12-02-1970 12:00, Menor que la Mínima 14.5 12-02-1970 12:00 12.3 -- 14.5 2012-09-13 10:31:00
2 1970-02-13 12:00:00 Temperatura 14.0 del 13-02-1970 09:00, Menor que la Mínima 14.9 13-02-1970 12:00 14.0 -- 14.9 2012-09-13 10:31:00
2 1970-02-16 12:00:00 Temperatura 12.0 del 16-02-1970 10:00, Menor que la Mínima 13.7 16-02-1970 12:00 12.0 -- 13.7 2012-09-13 10:31:00
2 1970-02-19 12:00:00 Temperatura 7.1 del 19-02-1970 04:00, Menor que la Mínima 14.5 19-02-1970 12:00 7.1 -- 14.5 2012-09-13 10:31:00
2 1970-03-21 12:00:00 Temperatura 10.4 del 21-03-1970 09:00, Menor que la Mínima 11.2 21-03-1970 12:00 10.4 -- 11.2 2012-09-13 10:31:00
2 1970-03-26 12:00:00 Temperatura 11.4 del 26-03-1970 09:00, Menor que la Mínima 13.2 26-03-1970 12:00 11.4 -- 13.2 2012-09-13 10:31:00
2 1970-03-28 12:00:00 Temperatura 10.1 del 28-03-1970 11:00, Menor que la Mínima 10.2 28-03-1970 12:00 10.1 -- 10.2 2012-09-13 10:31:00
2 1970-04-12 12:00:00 Temperatura 10.3 del 12-04-1970 01:00, Menor que la Mínima 11.1 12-04-1970 12:00 10.3 -- 11.1 2012-09-13 10:31:00
2 1970-05-14 12:00:00 Temperatura 5.0 del 14-05-1970 10:00, Menor que la Mínima 5.2 14-05-1970 12:00 5.0 -- 5.2 2012-09-13 10:31:00
2 1970-06-23 12:00:00 Temperatura 0.2 del 23-06-1970 12:00, Menor que la Mínima 0.6 23-06-1970 12:00 0.2 -- 0.6 2012-09-13 10:31:00
2 1970-07-12 12:00:00 Temperatura 3.0 del 12-07-1970 03:10, Menor que la Mínima 3.2 12-07-1970 12:00 3.0 -- 3.2 2012-09-13 10:31:00
2 1970-07-28 12:00:00 Temperatura 3.0 del 28-07-1970 09:00, Menor que la Mínima 3.2 28-07-1970 12:00 3.0 -- 3.2 2012-09-13 10:31:00
2 1970-08-02 12:00:00 Temperatura 8.0 del 02-08-1970 07:00, Menor que la Mínima 8.1 02-08-1970 12:00 8.0 -- 8.1 2012-09-13 10:31:00
2 1970-08-15 12:00:00 Temperatura 4.8 del 15-08-1970 11:00, Menor que la Mínima 5.0 15-08-1970 12:00 4.8 -- 5.0 2012-09-13 10:31:00
2 1970-08-29 12:00:00 Temperatura 6.8 del 29-08-1970 02:00, Menor que la Mínima 7.0 29-08-1970 12:00 6.8 -- 7.0 2012-09-13 10:31:00
2 1970-09-11 12:00:00 Temperatura 8.0 del 11-09-1970 10:00, Menor que la Mínima 9.2 11-09-1970 12:00 8.0 -- 9.2 2012-09-13 10:31:00
2 1970-09-25 12:00:00 Temperatura 5.0 del 25-09-1970 10:00, Menor que la Mínima 5.7 25-09-1970 12:00 5.0 -- 5.7 2012-09-13 10:31:00
2 1970-10-09 12:00:00 Temperatura 8.4 del 09-10-1970 09:00, Menor que la Mínima 8.5 09-10-1970 12:00 8.4 -- 8.5 2012-09-13 10:31:00
2 1970-10-11 12:00:00 Temperatura 7.4 del 11-10-1970 11:00, Menor que la Mínima 7.5 11-10-1970 12:00 7.4 -- 7.5 2012-09-13 10:31:00
2 1970-10-15 12:00:00 Temperatura 7.7 del 15-10-1970 11:00, Menor que la Mínima 7.8 15-10-1970 12:00 7.7 -- 7.8 2012-09-13 10:31:00
2 1970-11-11 12:00:00 Temperatura 10.2 del 11-11-1970 03:00, Menor que la Mínima 10.5 11-11-1970 12:00 10.2 -- 10.5 2012-09-13 10:31:00
2 1970-11-26 12:00:00 Temperatura 9.2 del 26-11-1970 10:00, Menor que la Mínima 9.4 26-11-1970 12:00 9.2 -- 9.4 2012-09-13 10:31:00
2 1970-12-03 12:00:00 Temperatura 10.0 del 03-12-1970 09:00, Menor que la Mínima 11.0 03-12-1970 12:00 10.0 -- 11.0 2012-09-13 10:31:00
2 1970-12-04 12:00:00 Temperatura 10.2 del 04-12-1970 10:00, Menor que la Mínima 10.3 04-12-1970 12:00 10.2 -- 10.3 2012-09-13 10:31:00
2 1970-12-07 12:00:00 Temperatura 11.8 del 07-12-1970 10:00, Menor que la Mínima 12.2 07-12-1970 12:00 11.8 -- 12.2 2012-09-13 10:31:00
2 1970-12-08 12:00:00 Temperatura 11.0 del 08-12-1970 09:00, Menor que la Mínima 11.4 08-12-1970 12:00 11.0 -- 11.4 2012-09-13 10:31:00
2 1971-02-21 12:00:00 Temperatura 9.6 del 21-02-1971 11:00, Menor que la Mínima 10.0 21-02-1971 12:00 9.6 -- 10.0 2012-09-13 10:31:00
2 1971-06-01 12:00:00 Temperatura 6.7 del 01-06-1971 05:00, Menor que la Mínima 7.0 01-06-1971 12:00 6.7 -- 7.0 2012-09-13 10:31:00
2 1971-07-16 12:00:00 Temperatura 6.0 del 16-07-1971 12:00, Menor que la Mínima 7.6 16-07-1971 12:00 6.0 -- 7.6 2012-09-13 10:31:00
2 1971-09-21 12:00:00 Temperatura 7.0 del 21-09-1971 09:00, Menor que la Mínima 7.4 21-09-1971 12:00 7.0 -- 7.4 2012-09-13 10:31:00
2 1971-10-02 12:00:00 Temperatura 7.0 del 02-10-1971 09:00, Menor que la Mínima 7.4 02-10-1971 12:00 7.0 -- 7.4 2012-09-13 10:31:00
2 1971-10-14 12:00:00 Temperatura 9.4 del 14-10-1971 08:00, Menor que la Mínima 9.9 14-10-1971 12:00 9.4 -- 9.9 2012-09-13 10:31:00
2 1971-10-24 12:00:00 Temperatura 9.7 del 24-10-1971 10:00, Menor que la Mínima 9.8 24-10-1971 12:00 9.7 -- 9.8 2012-09-13 10:31:00
2 1971-11-17 12:00:00 Temperatura 1.6 del 17-11-1971 02:00, Menor que la Mínima 11.7 17-11-1971 12:00 1.6 -- 11.7 2012-09-13 10:31:00
2 1971-12-02 12:00:00 Temperatura 14.4 del 02-12-1971 10:00, Menor que la Mínima 15.0 02-12-1971 12:00 14.4 -- 15.0 2012-09-13 10:31:00
2 1971-12-11 12:00:00 Temperatura 11.2 del 11-12-1971 10:00, Menor que la Mínima 11.3 11-12-1971 12:00 11.2 -- 11.3 2012-09-13 10:31:00
2 1971-12-23 12:00:00 Temperatura 13.0 del 23-12-1971 10:00, Menor que la Mínima 13.1 23-12-1971 12:00 13.0 -- 13.1 2012-09-13 10:31:00
2 1972-01-04 12:00:00 Temperatura 12.4 del 04-01-1972 11:00, Menor que la Mínima 12.5 04-01-1972 12:00 12.4 -- 12.5 2012-09-13 10:31:00
2 1972-01-19 12:00:00 Temperatura 14.4 del 19-01-1972 09:00, Menor que la Mínima 16.2 19-01-1972 12:00 14.4 -- 16.2 2012-09-13 10:31:00
2 1972-01-23 12:00:00 Temperatura 14.0 del 23-01-1972 07:00, Menor que la Mínima 16.0 23-01-1972 12:00 14.0 -- 16.0 2012-09-13 10:31:00
2 1972-01-31 12:00:00 Temperatura 14.0 del 31-01-1972 09:00, Menor que la Mínima 14.6 31-01-1972 12:00 14.0 -- 14.6 2012-09-13 10:31:00
2 1972-02-03 12:00:00 Temperatura 14.4 del 03-02-1972 10:00, Menor que la Mínima 15.5 03-02-1972 12:00 14.4 -- 15.5 2012-09-13 10:31:00
2 1972-02-07 12:00:00 Temperatura 14.0 del 07-02-1972 10:00, Menor que la Mínima 14.2 07-02-1972 12:00 14.0 -- 14.2 2012-09-13 10:31:00
2 1972-02-09 12:00:00 Temperatura 15.2 del 09-02-1972 11:00, Menor que la Mínima 28.6 09-02-1972 12:00 15.2 -- 28.6 2012-09-13 10:31:00
2 1972-02-26 12:00:00 Temperatura 10.9 del 26-02-1972 09:00, Menor que la Mínima 11.2 26-02-1972 12:00 10.9 -- 11.2 2012-09-13 10:31:00
2 1972-04-01 12:00:00 Temperatura 10.4 del 01-04-1972 11:00, Menor que la Mínima 10.8 01-04-1972 12:00 10.4 -- 10.8 2012-09-13 10:31:00
2 1972-04-12 12:00:00 Temperatura 8.4 del 12-04-1972 09:00, Menor que la Mínima 8.6 12-04-1972 12:00 8.4 -- 8.6 2012-09-13 10:31:00
2 1972-04-14 12:00:00 Temperatura 4.0 del 14-04-1972 06:00, Menor que la Mínima 4.8 14-04-1972 12:00 4.0 -- 4.8 2012-09-13 10:31:00
2 1972-04-22 12:00:00 Temperatura 10.5 del 22-04-1972 08:00, Menor que la Mínima 11.0 22-04-1972 12:00 10.5 -- 11.0 2012-09-13 10:31:00
2 1972-05-06 12:00:00 Temperatura 7.1 del 06-05-1972 10:00, Menor que la Mínima 7.8 06-05-1972 12:00 7.1 -- 7.8 2012-09-13 10:31:00
2 1972-05-08 12:00:00 Temperatura 11.2 del 08-05-1972 12:00, Menor que la Mínima 11.4 08-05-1972 12:00 11.2 -- 11.4 2012-09-13 10:31:00
2 1972-05-17 12:00:00 Temperatura 9.2 del 17-05-1972 09:00, Menor que la Mínima 9.5 17-05-1972 12:00 9.2 -- 9.5 2012-09-13 10:31:00
2 1972-05-18 12:00:00 Temperatura 3.4 del 18-05-1972 12:00, Menor que la Mínima 7.0 18-05-1972 12:00 3.4 -- 7.0 2012-09-13 10:31:00
2 1972-05-22 12:00:00 Temperatura 5.6 del 22-05-1972 12:00, Menor que la Mínima 8.0 22-05-1972 12:00 5.6 -- 8.0 2012-09-13 10:31:00
2 1972-05-24 12:00:00 Temperatura 8.6 del 24-05-1972 09:00, Menor que la Mínima 8.8 24-05-1972 12:00 8.6 -- 8.8 2012-09-13 10:31:00
2 1972-06-14 12:00:00 Temperatura 1.0 del 14-06-1972 12:00, Menor que la Mínima 8.8 14-06-1972 12:00 1.0 -- 8.8 2012-09-13 10:31:00
2 1972-06-26 12:00:00 Temperatura 3.9 del 26-06-1972 06:00, Menor que la Mínima 5.8 26-06-1972 12:00 3.9 -- 5.8 2012-09-13 10:31:00
2 1972-07-01 12:00:00 Temperatura 6.3 del 01-07-1972 10:00, Menor que la Mínima 6.8 01-07-1972 12:00 6.3 -- 6.8 2012-09-13 10:31:00
2 1972-07-05 12:00:00 Temperatura 5.8 del 05-07-1972 11:00, Menor que la Mínima 5.9 05-07-1972 12:00 5.8 -- 5.9 2012-09-13 10:31:00
2 1972-07-14 12:00:00 Temperatura 0.4 del 14-07-1972 07:00, Menor que la Mínima 2.8 14-07-1972 12:00 0.4 -- 2.8 2012-09-13 10:31:00
2 1972-07-15 12:00:00 Temperatura -3.0 del 15-07-1972 11:00, Menor que la Mínima 1.9 15-07-1972 12:00 -3.0 -- 1.9 2012-09-13 10:31:00
2 1972-07-28 12:00:00 Temperatura 5.2 del 28-07-1972 04:00, Menor que la Mínima 8.0 28-07-1972 12:00 5.2 -- 8.0 2012-09-13 10:31:00
2 1972-08-02 12:00:00 Temperatura 6.2 del 02-08-1972 10:00, Menor que la Mínima 6.4 02-08-1972 12:00 6.2 -- 6.4 2012-09-13 10:31:00
2 1972-08-10 12:00:00 Temperatura 7.4 del 10-08-1972 09:00, Menor que la Mínima 8.0 10-08-1972 12:00 7.4 -- 8.0 2012-09-13 10:31:00
2 1972-08-20 12:00:00 Temperatura 0.2 del 20-08-1972 10:00, Menor que la Mínima 1.4 20-08-1972 12:00 0.2 -- 1.4 2012-09-13 10:32:00
2 1972-08-25 12:00:00 Temperatura 4.9 del 25-08-1972 05:00, Menor que la Mínima 5.0 25-08-1972 12:00 4.9 -- 5.0 2012-09-13 10:32:00
2 1972-08-26 12:00:00 Temperatura 6.7 del 26-08-1972 07:00, Menor que la Mínima 7.0 26-08-1972 12:00 6.7 -- 7.0 2012-09-13 10:32:00
2 1972-09-13 12:00:00 Temperatura 11.2 del 13-09-1972 08:00, Menor que la Mínima 11.4 13-09-1972 12:00 11.2 -- 11.4 2012-09-13 10:32:00
2 1972-09-16 12:00:00 Temperatura 7.8 del 16-09-1972 10:00, Menor que la Mínima 8.0 16-09-1972 12:00 7.8 -- 8.0 2012-09-13 10:32:00
2 1972-09-26 12:00:00 Temperatura 7.0 del 26-09-1972 11:00, Menor que la Mínima 7.2 26-09-1972 12:00 7.0 -- 7.2 2012-09-13 10:32:00
2 1972-10-07 12:00:00 Temperatura 1.0 del 07-10-1972 06:00, Menor que la Mínima 8.6 07-10-1972 12:00 1.0 -- 8.6 2012-09-13 10:32:00
2 1972-10-16 12:00:00 Temperatura 10.4 del 16-10-1972 10:00, Menor que la Mínima 10.8 16-10-1972 12:00 10.4 -- 10.8 2012-09-13 10:32:00
2 1972-10-21 12:00:00 Temperatura 6.0 del 21-10-1972 02:00, Menor que la Mínima 8.9 21-10-1972 12:00 6.0 -- 8.9 2012-09-13 10:32:00
2 1972-10-23 12:00:00 Temperatura 11.0 del 23-10-1972 11:00, Menor que la Mínima 11.7 23-10-1972 12:00 11.0 -- 11.7 2012-09-13 10:32:00
2 1972-11-07 12:00:00 Temperatura 11.0 del 07-11-1972 08:00, Menor que la Mínima 11.1 07-11-1972 12:00 11.0 -- 11.1 2012-09-13 10:32:00
2 1972-12-06 12:00:00 Temperatura 14.6 del 06-12-1972 10:00, Menor que la Mínima 17.6 06-12-1972 12:00 14.6 -- 17.6 2012-09-13 10:32:00
2 1972-12-17 12:00:00 Temperatura 14.5 del 17-12-1972 10:00, Menor que la Mínima 14.7 17-12-1972 12:00 14.5 -- 14.7 2012-09-13 10:32:00
2 1972-12-21 12:00:00 Temperatura 10.4 del 21-12-1972 01:00, Menor que la Mínima 12.1 21-12-1972 12:00 10.4 -- 12.1 2012-09-13 10:32:00
2 1972-12-26 12:00:00 Temperatura 11.2 del 26-12-1972 10:00, Menor que la Mínima 11.3 26-12-1972 12:00 11.2 -- 11.3 2012-09-13 10:32:00
2 1972-12-28 12:00:00 Temperatura 15.2 del 28-12-1972 08:00, Menor que la Mínima 15.4 28-12-1972 12:00 15.2 -- 15.4 2012-09-13 10:32:00
2 1973-01-07 12:00:00 Temperatura 7.8 del 07-01-1973 07:00, Menor que la Mínima 14.8 07-01-1973 12:00 7.8 -- 14.8 2012-09-13 10:32:00
2 1973-01-13 12:00:00 Temperatura 2.0 del 13-01-1973 01:00, Menor que la Mínima 15.7 13-01-1973 12:00 2.0 -- 15.7 2012-09-13 10:32:00
2 1973-01-17 12:00:00 Temperatura 10.3 del 17-01-1973 08:00, Menor que la Mínima 12.0 17-01-1973 12:00 10.3 -- 12.0 2012-09-13 10:32:00
2 1973-01-18 12:00:00 Temperatura 13.8 del 18-01-1973 10:00, Menor que la Mínima 14.0 18-01-1973 12:00 13.8 -- 14.0 2012-09-13 10:32:00
2 1973-01-22 12:00:00 Temperatura 15.4 del 22-01-1973 10:00, Menor que la Mínima 15.6 22-01-1973 12:00 15.4 -- 15.6 2012-09-13 10:32:00
2 1973-02-08 12:00:00 Temperatura 13.0 del 08-02-1973 10:00, Menor que la Mínima 17.3 08-02-1973 12:00 13.0 -- 17.3 2012-09-13 10:32:00
2 1973-02-14 12:00:00 Temperatura 14.0 del 14-02-1973 08:00, Menor que la Mínima 14.6 14-02-1973 12:00 14.0 -- 14.6 2012-09-13 10:32:00
2 1973-02-15 12:00:00 Temperatura 12.3 del 15-02-1973 01:00, Menor que la Mínima 12.6 15-02-1973 12:00 12.3 -- 12.6 2012-09-13 10:32:00
2 1973-02-17 12:00:00 Temperatura 11.0 del 17-02-1973 10:00, Menor que la Mínima 11.2 17-02-1973 12:00 11.0 -- 11.2 2012-09-13 10:32:00
2 1973-02-27 12:00:00 Temperatura 10.0 del 27-02-1973 09:00, Menor que la Mínima 10.4 27-02-1973 12:00 10.0 -- 10.4 2012-09-13 10:32:00
2 1973-02-28 12:00:00 Temperatura 9.2 del 28-02-1973 11:00, Menor que la Mínima 10.1 28-02-1973 12:00 9.2 -- 10.1 2012-09-13 10:32:00
2 1973-03-01 12:00:00 Temperatura 12.2 del 01-03-1973 09:00, Menor que la Mínima 21.2 01-03-1973 12:00 12.2 -- 21.2 2012-09-13 10:32:00
2 1973-03-04 12:00:00 Temperatura 1.2 del 04-03-1973 06:00, Menor que la Mínima 9.0 04-03-1973 12:00 1.2 -- 9.0 2012-09-13 10:32:00
2 1973-03-06 12:00:00 Temperatura 11.2 del 06-03-1973 11:00, Menor que la Mínima 11.4 06-03-1973 12:00 11.2 -- 11.4 2012-09-13 10:32:00
2 1973-03-16 12:00:00 Temperatura 10.1 del 16-03-1973 11:00, Menor que la Mínima 10.2 16-03-1973 12:00 10.1 -- 10.2 2012-09-13 10:32:00
2 1973-03-21 12:00:00 Temperatura 12.4 del 21-03-1973 10:00, Menor que la Mínima 12.6 21-03-1973 12:00 12.4 -- 12.6 2012-09-13 10:32:00
2 1973-03-26 12:00:00 Temperatura 11.2 del 26-03-1973 11:00, Menor que la Mínima 11.4 26-03-1973 12:00 11.2 -- 11.4 2012-09-13 10:32:00
2 1973-03-27 12:00:00 Temperatura 10.2 del 27-03-1973 01:00, Menor que la Mínima 10.6 27-03-1973 12:00 10.2 -- 10.6 2012-09-13 10:32:00
2 1973-05-02 12:00:00 Temperatura 0.0 del 02-05-1973 06:00, Menor que la Mínima 4.9 02-05-1973 12:00 0.0 -- 4.9 2012-09-13 10:32:00
2 1973-06-25 12:00:00 Temperatura 9.0 del 25-06-1973 08:00, Menor que la Mínima 9.2 25-06-1973 12:00 9.0 -- 9.2 2012-09-13 10:32:00
2 1973-06-26 12:00:00 Temperatura 0.1 del 26-06-1973 12:00, Menor que la Mínima 0.2 26-06-1973 12:00 0.1 -- 0.2 2012-09-13 10:32:00
2 1973-07-31 12:00:00 Temperatura 0.0 del 31-07-1973 12:00, Menor que la Mínima 1.9 31-07-1973 12:00 0.0 -- 1.9 2012-09-13 10:32:00
2 1973-08-18 12:00:00 Temperatura 0.4 del 18-08-1973 01:00, Menor que la Mínima 5.0 18-08-1973 12:00 0.4 -- 5.0 2012-09-13 10:32:00
2 1973-08-23 12:00:00 Temperatura 5.9 del 23-08-1973 05:00, Menor que la Mínima 6.0 23-08-1973 12:00 5.9 -- 6.0 2012-09-13 10:32:00
2 1973-09-01 12:00:00 Temperatura 1.2 del 01-09-1973 05:00, Menor que la Mínima 6.6 01-09-1973 12:00 1.2 -- 6.6 2012-09-13 10:32:00
2 1973-09-28 12:00:00 Temperatura 3.6 del 28-09-1973 02:00, Menor que la Mínima 4.6 28-09-1973 12:00 3.6 -- 4.6 2012-09-13 10:32:00
2 1973-10-14 12:00:00 Temperatura 1.4 del 14-10-1973 03:00, Menor que la Mínima 8.4 14-10-1973 12:00 1.4 -- 8.4 2012-09-13 10:32:00
2 1973-10-22 12:00:00 Temperatura 4.6 del 22-10-1973 11:00, Menor que la Mínima 20.6 22-10-1973 12:00 4.6 -- 20.6 2012-09-13 10:32:00
2 1973-10-31 12:00:00 Temperatura 6.1 del 31-10-1973 10:00, Menor que la Mínima 6.2 31-10-1973 12:00 6.1 -- 6.2 2012-09-13 10:32:00
2 1973-11-15 12:00:00 Temperatura 11.3 del 15-11-1973 10:00, Menor que la Mínima 11.4 15-11-1973 12:00 11.3 -- 11.4 2012-09-13 10:32:00
2 1973-12-02 12:00:00 Temperatura 10.4 del 02-12-1973 12:00, Menor que la Mínima 12.6 02-12-1973 12:00 10.4 -- 12.6 2012-09-13 10:32:00
2 1973-12-03 12:00:00 Temperatura 1.0 del 03-12-1973 12:00, Menor que la Mínima 8.6 03-12-1973 12:00 1.0 -- 8.6 2012-09-13 10:32:00
2 1973-12-06 12:00:00 Temperatura 1.4 del 06-12-1973 11:00, Menor que la Mínima 9.0 06-12-1973 12:00 1.4 -- 9.0 2012-09-13 10:32:00
2 1973-12-12 12:00:00 Temperatura 0.7 del 12-12-1973 06:00, Menor que la Mínima 9.1 12-12-1973 12:00 0.7 -- 9.1 2012-09-13 10:32:00
2 1973-12-25 12:00:00 Temperatura 10.1 del 25-12-1973 11:00, Menor que la Mínima 10.4 25-12-1973 12:00 10.1 -- 10.4 2012-09-13 10:32:00
2 1974-01-01 12:00:00 Temperatura 14.3 del 01-01-1974 05:00, Menor que la Mínima 14.8 01-01-1974 12:00 14.3 -- 14.8 2012-09-13 10:32:00
2 1974-01-01 12:00:00 Temperatura 14.3 del 01-01-1974 05:00, Menor que la Mínima 14.8 01-01-1974 12:00 14.3 -- 14.8 2012-09-13 10:32:00
2 1974-01-14 12:00:00 Temperatura 12.4 del 14-01-1974 10:00, Menor que la Mínima 12.5 14-01-1974 12:00 12.4 -- 12.5 2012-09-13 10:32:00
2 1974-01-18 12:00:00 Temperatura 13.3 del 18-01-1974 10:00, Menor que la Mínima 13.4 18-01-1974 12:00 13.3 -- 13.4 2012-09-13 10:32:00
2 1974-01-19 12:00:00 Temperatura 15.4 del 19-01-1974 09:00, Menor que la Mínima 15.5 19-01-1974 12:00 15.4 -- 15.5 2012-09-13 10:32:00
2 1974-02-07 12:00:00 Temperatura 13.0 del 07-02-1974 10:00, Menor que la Mínima 13.1 07-02-1974 12:00 13.0 -- 13.1 2012-09-13 10:32:00
2 1974-03-07 12:00:00 Temperatura 1.4 del 07-03-1974 06:00, Menor que la Mínima 11.0 07-03-1974 12:00 1.4 -- 11.0 2012-09-13 10:32:00
2 1974-03-13 12:00:00 Temperatura 12.0 del 13-03-1974 11:00, Menor que la Mínima 12.2 13-03-1974 12:00 12.0 -- 12.2 2012-09-13 10:32:00
2 1974-03-17 12:00:00 Temperatura 9.4 del 17-03-1974 03:00, Menor que la Mínima 10.0 17-03-1974 12:00 9.4 -- 10.0 2012-09-13 10:32:00
2 1974-03-22 12:00:00 Temperatura 8.4 del 22-03-1974 11:00, Menor que la Mínima 9.4 22-03-1974 12:00 8.4 -- 9.4 2012-09-13 10:32:00
2 1974-04-30 12:00:00 Temperatura 0.9 del 30-04-1974 06:00, Menor que la Mínima 5.0 30-04-1974 12:00 0.9 -- 5.0 2012-09-13 10:32:00
2 1974-05-12 12:00:00 Temperatura 4.3 del 12-05-1974 12:00, Menor que la Mínima 4.4 12-05-1974 12:00 4.3 -- 4.4 2012-09-13 10:32:00
2 1974-05-17 12:00:00 Temperatura 9.4 del 17-05-1974 11:00, Menor que la Mínima 9.8 17-05-1974 12:00 9.4 -- 9.8 2012-09-13 10:32:00
2 1974-06-18 12:00:00 Temperatura 6.8 del 18-06-1974 08:00, Menor que la Mínima 7.2 18-06-1974 12:00 6.8 -- 7.2 2012-09-13 10:32:00
2 1974-07-01 12:00:00 Temperatura 6.0 del 01-07-1974 10:00, Menor que la Mínima 6.3 01-07-1974 12:00 6.0 -- 6.3 2012-09-13 10:32:00
2 1974-08-05 12:00:00 Temperatura 1.0 del 05-08-1974 05:00, Menor que la Mínima 1.4 05-08-1974 12:00 1.0 -- 1.4 2012-09-13 10:32:00
2 1974-08-22 12:00:00 Temperatura 7.0 del 22-08-1974 11:00, Menor que la Mínima 7.2 22-08-1974 12:00 7.0 -- 7.2 2012-09-13 10:32:00
2 1974-09-19 12:00:00 Temperatura 5.0 del 19-09-1974 10:00, Menor que la Mínima 5.1 19-09-1974 12:00 5.0 -- 5.1 2012-09-13 10:32:00
2 1974-09-21 12:00:00 Temperatura 5.5 del 21-09-1974 11:00, Menor que la Mínima 5.8 21-09-1974 12:00 5.5 -- 5.8 2012-09-13 10:32:00
2 1974-09-23 12:00:00 Temperatura 5.4 del 23-09-1974 11:00, Menor que la Mínima 9.4 23-09-1974 12:00 5.4 -- 9.4 2012-09-13 10:32:00
2 1974-10-02 12:00:00 Temperatura 9.1 del 02-10-1974 08:00, Menor que la Mínima 9.4 02-10-1974 12:00 9.1 -- 9.4 2012-09-13 10:32:00
2 1974-10-05 12:00:00 Temperatura 2.4 del 05-10-1974 12:00, Menor que la Mínima 5.8 05-10-1974 12:00 2.4 -- 5.8 2012-09-13 10:32:00
2 1974-10-06 12:00:00 Temperatura 7.9 del 06-10-1974 11:00, Menor que la Mínima 8.0 06-10-1974 12:00 7.9 -- 8.0 2012-09-13 10:32:00
2 1974-10-11 12:00:00 Temperatura 10.6 del 11-10-1974 02:00, Menor que la Mínima 10.8 11-10-1974 12:00 10.6 -- 10.8 2012-09-13 10:32:00
2 1974-11-10 12:00:00 Temperatura 5.4 del 10-11-1974 11:00, Menor que la Mínima 7.6 10-11-1974 12:00 5.4 -- 7.6 2012-09-13 10:32:00
2 1974-11-15 12:00:00 Temperatura 10.8 del 15-11-1974 01:00, Menor que la Mínima 12.5 15-11-1974 12:00 10.8 -- 12.5 2012-09-13 10:32:00
2 1974-11-23 12:00:00 Temperatura 9.6 del 23-11-1974 10:00, Menor que la Mínima 9.7 23-11-1974 12:00 9.6 -- 9.7 2012-09-13 10:32:00
2 1974-12-22 12:00:00 Temperatura 11.7 del 22-12-1974 03:00, Menor que la Mínima 12.0 22-12-1974 12:00 11.7 -- 12.0 2012-09-13 10:32:00
2 1975-01-03 12:00:00 Temperatura 11.7 del 03-01-1975 10:00, Menor que la Mínima 11.9 03-01-1975 12:00 11.7 -- 11.9 2012-09-13 10:32:00
2 1975-02-10 12:00:00 Temperatura 14.0 del 10-02-1975 07:00, Menor que la Mínima 14.6 10-02-1975 12:00 14.0 -- 14.6 2012-09-13 10:32:00
2 1975-05-03 12:00:00 Temperatura 6.5 del 03-05-1975 08:00, Menor que la Mínima 7.2 03-05-1975 12:00 6.5 -- 7.2 2012-09-13 10:32:00
2 1975-05-18 12:00:00 Temperatura 6.2 del 18-05-1975 08:00, Menor que la Mínima 6.4 18-05-1975 12:00 6.2 -- 6.4 2012-09-13 10:32:00
2 1975-05-28 12:00:00 Temperatura 9.0 del 28-05-1975 11:00, Menor que la Mínima 9.2 28-05-1975 12:00 9.0 -- 9.2 2012-09-13 10:32:00
2 1975-06-20 12:00:00 Temperatura 9.0 del 20-06-1975 10:00, Menor que la Mínima 10.2 20-06-1975 12:00 9.0 -- 10.2 2012-09-13 10:32:00
2 1975-06-25 12:00:00 Temperatura 6.5 del 25-06-1975 10:00, Menor que la Mínima 6.8 25-06-1975 12:00 6.5 -- 6.8 2012-09-13 10:32:00
2 1975-07-17 12:00:00 Temperatura 0.1 del 17-07-1975 11:00, Menor que la Mínima 0.3 17-07-1975 12:00 0.1 -- 0.3 2012-09-13 10:32:00
2 1975-08-04 12:00:00 Temperatura 0.9 del 04-08-1975 03:00, Menor que la Mínima 7.4 04-08-1975 12:00 0.9 -- 7.4 2012-09-13 10:32:00
2 1975-10-01 12:00:00 Temperatura 7.2 del 01-10-1975 10:00, Menor que la Mínima 7.4 01-10-1975 12:00 7.2 -- 7.4 2012-09-13 10:32:00
2 1975-10-09 12:00:00 Temperatura 2.4 del 09-10-1975 12:00, Menor que la Mínima 6.2 09-10-1975 12:00 2.4 -- 6.2 2012-09-13 10:32:00
2 1975-11-03 12:00:00 Temperatura 10.0 del 03-11-1975 09:00, Menor que la Mínima 10.2 03-11-1975 12:00 10.0 -- 10.2 2012-09-13 10:32:00
2 1975-11-18 12:00:00 Temperatura 9.8 del 18-11-1975 10:00, Menor que la Mínima 10.0 18-11-1975 12:00 9.8 -- 10.0 2012-09-13 10:32:00
2 1975-12-13 12:00:00 Temperatura 13.0 del 13-12-1975 09:00, Menor que la Mínima 13.1 13-12-1975 12:00 13.0 -- 13.1 2012-09-13 10:32:00
2 1975-12-23 12:00:00 Temperatura 12.8 del 23-12-1975 10:00, Menor que la Mínima 13.8 23-12-1975 12:00 12.8 -- 13.8 2012-09-13 10:32:00
2 1975-12-31 12:00:00 Temperatura 12.4 del 31-12-1975 11:00, Menor que la Mínima 12.5 31-12-1975 12:00 12.4 -- 12.5 2012-09-13 10:32:00
2 1976-01-21 12:00:00 Temperatura 13.0 del 21-01-1976 11:00, Menor que la Mínima 13.4 21-01-1976 12:00 13.0 -- 13.4 2012-09-13 10:32:00
2 1976-02-05 12:00:00 Temperatura 11.5 del 05-02-1976 10:00, Menor que la Mínima 14.3 05-02-1976 12:00 11.5 -- 14.3 2012-09-13 10:33:00
2 1976-02-10 12:00:00 Temperatura 11.5 del 10-02-1976 08:00, Menor que la Mínima 12.0 10-02-1976 12:00 11.5 -- 12.0 2012-09-13 10:33:00
2 1976-04-16 12:00:00 Temperatura 7.6 del 16-04-1976 08:00, Menor que la Mínima 8.4 16-04-1976 12:00 7.6 -- 8.4 2012-09-13 10:33:00
2 1976-06-12 12:00:00 Temperatura 6.3 del 12-06-1976 11:00, Menor que la Mínima 6.6 12-06-1976 12:00 6.3 -- 6.6 2012-09-13 10:33:00
2 1976-06-15 12:00:00 Temperatura 3.4 del 15-06-1976 04:00, Menor que la Mínima 7.5 15-06-1976 12:00 3.4 -- 7.5 2012-09-13 10:33:00
2 1976-08-03 12:00:00 Temperatura 7.6 del 03-08-1976 03:00, Menor que la Mínima 7.8 03-08-1976 12:00 7.6 -- 7.8 2012-09-13 10:33:00
2 1976-08-31 12:00:00 Temperatura 7.0 del 31-08-1976 09:00, Menor que la Mínima 7.6 31-08-1976 12:00 7.0 -- 7.6 2012-09-13 10:33:00
2 1976-11-24 12:00:00 Temperatura 14.0 del 24-11-1976 10:00, Menor que la Mínima 14.1 24-11-1976 12:00 14.0 -- 14.1 2012-09-13 10:33:00
2 1976-12-18 12:00:00 Temperatura 14.8 del 18-12-1976 07:00, Menor que la Mínima 14.9 18-12-1976 12:00 14.8 -- 14.9 2012-09-13 10:33:00
2 1976-12-25 12:00:00 Temperatura 10.6 del 25-12-1976 04:00, Menor que la Mínima 13.8 25-12-1976 12:00 10.6 -- 13.8 2012-09-13 10:33:00
2 1977-02-17 12:00:00 Temperatura 13.0 del 17-02-1977 10:00, Menor que la Mínima 14.1 17-02-1977 12:00 13.0 -- 14.1 2012-09-13 10:33:00
2 1977-02-22 12:00:00 Temperatura 14.0 del 22-02-1977 11:00, Menor que la Mínima 14.1 22-02-1977 12:00 14.0 -- 14.1 2012-09-13 10:33:00
2 1977-03-10 12:00:00 Temperatura 11.5 del 10-03-1977 08:00, Menor que la Mínima 11.8 10-03-1977 12:00 11.5 -- 11.8 2012-09-13 10:33:00
2 1977-07-19 12:00:00 Temperatura 8.5 del 19-07-1977 05:00, Menor que la Mínima 8.8 19-07-1977 12:00 8.5 -- 8.8 2012-09-13 10:33:00
2 1977-08-15 12:00:00 Temperatura 1.2 del 15-08-1977 07:00, Menor que la Mínima 1.7 15-08-1977 12:00 1.2 -- 1.7 2012-09-13 10:33:00
2 1977-09-15 12:00:00 Temperatura 4.1 del 15-09-1977 09:00, Menor que la Mínima 4.5 15-09-1977 12:00 4.1 -- 4.5 2012-09-13 10:33:00
2 1977-09-22 12:00:00 Temperatura 8.6 del 22-09-1977 11:00, Menor que la Mínima 8.8 22-09-1977 12:00 8.6 -- 8.8 2012-09-13 10:33:00
2 1977-10-17 12:00:00 Temperatura 7.1 del 17-10-1977 10:00, Menor que la Mínima 7.7 17-10-1977 12:00 7.1 -- 7.7 2012-09-13 10:33:00
2 1977-11-08 12:00:00 Temperatura 9.2 del 08-11-1977 09:00, Menor que la Mínima 9.3 08-11-1977 12:00 9.2 -- 9.3 2012-09-13 10:33:00
2 1978-01-23 12:00:00 Temperatura 1.3 del 23-01-1978 06:00, Menor que la Mínima 11.0 23-01-1978 12:00 1.3 -- 11.0 2012-09-13 10:33:00
2 1978-08-24 12:00:00 Temperatura 3.7 del 24-08-1978 08:00, Menor que la Mínima 3.8 24-08-1978 12:00 3.7 -- 3.8 2012-09-13 10:33:00
2 1978-09-08 12:00:00 Temperatura 10.9 del 08-09-1978 09:00, Menor que la Mínima 11.1 08-09-1978 12:00 10.9 -- 11.1 2012-09-13 10:33:00
2 1978-09-20 12:00:00 Temperatura 3.9 del 20-09-1978 10:00, Menor que la Mínima 8.4 20-09-1978 12:00 3.9 -- 8.4 2012-09-13 10:33:00
2 1978-10-12 12:00:00 Temperatura 0.7 del 12-10-1978 07:00, Menor que la Mínima 7.8 12-10-1978 12:00 0.7 -- 7.8 2012-09-13 10:33:00
2 1978-10-13 12:00:00 Temperatura 6.3 del 13-10-1978 11:00, Menor que la Mínima 6.7 13-10-1978 12:00 6.3 -- 6.7 2012-09-13 10:33:00
2 1978-12-08 12:00:00 Temperatura 12.6 del 08-12-1978 06:00, Menor que la Mínima 14.0 08-12-1978 12:00 12.6 -- 14.0 2012-09-13 10:33:00
2 1978-12-13 12:00:00 Temperatura 14.3 del 13-12-1978 09:00, Menor que la Mínima 14.8 13-12-1978 12:00 14.3 -- 14.8 2012-09-13 10:33:00
2 1978-12-23 12:00:00 Temperatura 10.3 del 23-12-1978 10:00, Menor que la Mínima 12.0 23-12-1978 12:00 10.3 -- 12.0 2012-09-13 10:33:00
2 1979-01-17 12:00:00 Temperatura 13.2 del 17-01-1979 09:00, Menor que la Mínima 14.0 17-01-1979 12:00 13.2 -- 14.0 2012-09-13 10:33:00
2 1979-02-20 12:00:00 Temperatura 13.0 del 20-02-1979 10:00, Menor que la Mínima 13.2 20-02-1979 12:00 13.0 -- 13.2 2012-09-13 10:33:00
2 1979-03-01 12:00:00 Temperatura 10.9 del 01-03-1979 01:00, Menor que la Mínima 12.1 01-03-1979 12:00 10.9 -- 12.1 2012-09-13 10:33:00
2 1979-03-25 12:00:00 Temperatura 12.9 del 25-03-1979 02:00, Menor que la Mínima 13.2 25-03-1979 12:00 12.9 -- 13.2 2012-09-13 10:33:00
2 1979-03-26 12:00:00 Temperatura 1.9 del 26-03-1979 11:00, Menor que la Mínima 10.8 26-03-1979 12:00 1.9 -- 10.8 2012-09-13 10:33:00
2 1979-04-25 12:00:00 Temperatura 8.3 del 25-04-1979 09:00, Menor que la Mínima 9.0 25-04-1979 12:00 8.3 -- 9.0 2012-09-13 10:33:00
2 1979-06-17 12:00:00 Temperatura 0.7 del 17-06-1979 11:00, Menor que la Mínima 0.8 17-06-1979 12:00 0.7 -- 0.8 2012-09-13 10:33:00
2 1979-08-23 12:00:00 Temperatura 9.6 del 23-08-1979 10:00, Menor que la Mínima 10.2 23-08-1979 12:00 9.6 -- 10.2 2012-09-13 10:34:00
2 1979-08-31 12:00:00 Temperatura 1.2 del 31-08-1979 07:00, Menor que la Mínima 8.8 31-08-1979 12:00 1.2 -- 8.8 2012-09-13 10:34:00
2 1979-11-20 12:00:00 Temperatura 10.0 del 20-11-1979 11:00, Menor que la Mínima 10.2 20-11-1979 12:00 10.0 -- 10.2 2012-09-13 10:34:00
2 1979-12-25 12:00:00 Temperatura 10.6 del 25-12-1979 04:00, Menor que la Mínima 14.1 25-12-1979 12:00 10.6 -- 14.1 2012-09-13 10:34:00
2 1979-12-26 12:00:00 Temperatura 7.5 del 26-12-1979 02:00, Menor que la Mínima 13.2 26-12-1979 12:00 7.5 -- 13.2 2012-09-13 10:34:00
2 1979-12-27 12:00:00 Temperatura 13.5 del 27-12-1979 08:00, Menor que la Mínima 13.6 27-12-1979 12:00 13.5 -- 13.6 2012-09-13 10:34:00
2 1979-12-31 12:00:00 Temperatura 7.0 del 31-12-1979 11:00, Menor que la Mínima 15.0 31-12-1979 12:00 7.0 -- 15.0 2012-09-13 10:34:00
2 1980-05-09 12:00:00 Temperatura 8.8 del 09-05-1980 10:00, Menor que la Mínima 8.9 09-05-1980 12:00 8.8 -- 8.9 2012-09-13 10:34:00
2 1980-07-23 12:00:00 Temperatura 4.1 del 23-07-1980 10:00, Menor que la Mínima 4.4 23-07-1980 12:00 4.1 -- 4.4 2012-09-13 10:34:00
2 1980-07-24 12:00:00 Temperatura 7.4 del 24-07-1980 10:00, Menor que la Mínima 8.1 24-07-1980 12:00 7.4 -- 8.1 2012-09-13 10:34:00
2 1980-08-30 12:00:00 Temperatura 8.2 del 30-08-1980 07:00, Menor que la Mínima 8.3 30-08-1980 12:00 8.2 -- 8.3 2012-09-13 10:34:00
2 1980-12-08 12:00:00 Temperatura 12.0 del 08-12-1980 10:00, Menor que la Mínima 12.1 08-12-1980 12:00 12.0 -- 12.1 2012-09-13 10:34:00
2 1981-05-31 12:00:00 Temperatura 7.7 del 31-05-1981 10:00, Menor que la Mínima 8.0 31-05-1981 12:00 7.7 -- 8.0 2012-09-13 10:34:00
2 1981-06-08 12:00:00 Temperatura 8.1 del 08-06-1981 09:00, Menor que la Mínima 8.3 08-06-1981 12:00 8.1 -- 8.3 2012-09-13 10:34:00
2 1981-10-05 12:00:00 Temperatura 4.7 del 05-10-1981 08:00, Menor que la Mínima 4.8 05-10-1981 12:00 4.7 -- 4.8 2012-09-13 10:34:00
2 1982-03-04 12:00:00 Temperatura 12.0 del 04-03-1982 09:00, Menor que la Mínima 12.2 04-03-1982 12:00 12.0 -- 12.2 2012-09-13 10:34:00
2 1982-04-18 12:00:00 Temperatura 8.9 del 18-04-1982 09:00, Menor que la Mínima 9.5 18-04-1982 12:00 8.9 -- 9.5 2012-09-13 10:34:00
2 1982-07-06 12:00:00 Temperatura 7.0 del 06-07-1982 07:00, Menor que la Mínima 7.2 06-07-1982 12:00 7.0 -- 7.2 2012-09-13 10:34:00
2 1982-09-20 12:00:00 Temperatura 5.6 del 20-09-1982 11:00, Menor que la Mínima 7.3 20-09-1982 12:00 5.6 -- 7.3 2012-09-13 10:34:00
2 1982-10-16 12:00:00 Temperatura 7.6 del 16-10-1982 10:00, Menor que la Mínima 7.7 16-10-1982 12:00 7.6 -- 7.7 2012-09-13 10:34:00
2 1982-12-05 12:00:00 Temperatura 12.3 del 05-12-1982 09:00, Menor que la Mínima 12.5 05-12-1982 12:00 12.3 -- 12.5 2012-09-13 10:34:00
2 1983-01-05 12:00:00 Temperatura 13.9 del 05-01-1983 05:00, Menor que la Mínima 14.0 05-01-1983 12:00 13.9 -- 14.0 2012-09-13 10:34:00
2 1983-01-18 12:00:00 Temperatura 15.8 del 18-01-1983 09:00, Menor que la Mínima 16.6 18-01-1983 12:00 15.8 -- 16.6 2012-09-13 10:35:00
2 1983-01-20 12:00:00 Temperatura 14.8 del 20-01-1983 08:00, Menor que la Mínima 15.1 20-01-1983 12:00 14.8 -- 15.1 2012-09-13 10:35:00
2 1983-03-29 12:00:00 Temperatura 12.1 del 29-03-1983 11:00, Menor que la Mínima 12.2 29-03-1983 12:00 12.1 -- 12.2 2012-09-13 10:35:00
2 1984-01-23 12:00:00 Temperatura 14.5 del 23-01-1984 09:00, Menor que la Mínima 14.8 23-01-1984 12:00 14.5 -- 14.8 2012-09-13 10:35:00
2 1984-04-16 12:00:00 Temperatura 12.0 del 16-04-1984 08:00, Menor que la Mínima 12.1 16-04-1984 12:00 12.0 -- 12.1 2012-09-13 10:35:00
2 1984-07-10 12:00:00 Temperatura 5.0 del 10-07-1984 09:00, Menor que la Mínima 5.2 10-07-1984 12:00 5.0 -- 5.2 2012-09-13 10:35:00
2 1984-09-25 12:00:00 Temperatura 3.9 del 25-09-1984 11:00, Menor que la Mínima 8.5 25-09-1984 12:00 3.9 -- 8.5 2012-09-13 10:35:00
2 1984-12-25 12:00:00 Temperatura 12.7 del 25-12-1984 09:00, Menor que la Mínima 12.8 25-12-1984 12:00 12.7 -- 12.8 2012-09-13 10:35:00
2 1985-03-04 12:00:00 Temperatura 12.0 del 04-03-1985 10:00, Menor que la Mínima 12.8 04-03-1985 12:00 12.0 -- 12.8 2012-09-13 10:35:00
2 1985-11-25 12:00:00 Temperatura 13.1 del 25-11-1985 10:00, Menor que la Mínima 13.2 25-11-1985 12:00 13.1 -- 13.2 2012-09-13 10:35:00
2 1986-12-02 12:00:00 Temperatura 10.9 del 02-12-1986 09:00, Menor que la Mínima 11.1 02-12-1986 12:00 10.9 -- 11.1 2012-09-13 10:36:00
2 1986-12-06 12:00:00 Temperatura 13.8 del 06-12-1986 10:00, Menor que la Mínima 13.9 06-12-1986 12:00 13.8 -- 13.9 2012-09-13 10:36:00
2 1986-12-10 12:00:00 Temperatura 11.6 del 10-12-1986 09:00, Menor que la Mínima 12.4 10-12-1986 12:00 11.6 -- 12.4 2012-09-13 10:36:00
2 1987-10-14 12:00:00 Temperatura 11.5 del 14-10-1987 10:00, Menor que la Mínima 11.6 14-10-1987 12:00 11.5 -- 11.6 2012-09-13 10:36:00
2 1987-10-26 12:00:00 Temperatura 8.3 del 26-10-1987 10:00, Menor que la Mínima 8.7 26-10-1987 12:00 8.3 -- 8.7 2012-09-13 10:36:00
2 1987-11-05 12:00:00 Temperatura 9.0 del 05-11-1987 08:00, Menor que la Mínima 9.2 05-11-1987 12:00 9.0 -- 9.2 2012-09-13 10:36:00
2 1987-12-01 12:00:00 Temperatura 12.9 del 01-12-1987 10:00, Menor que la Mínima 13.0 01-12-1987 12:00 12.9 -- 13.0 2012-09-13 10:36:00
2 1988-03-08 12:00:00 Temperatura 15.0 del 08-03-1988 08:00, Menor que la Mínima 15.2 08-03-1988 12:00 15.0 -- 15.2 2012-09-13 10:36:00
2 1988-03-23 12:00:00 Temperatura 9.7 del 23-03-1988 11:00, Menor que la Mínima 10.0 23-03-1988 12:00 9.7 -- 10.0 2012-09-13 10:36:00
2 1988-10-07 12:00:00 Temperatura 10.0 del 07-10-1988 11:00, Menor que la Mínima 10.2 07-10-1988 12:00 10.0 -- 10.2 2012-09-13 10:36:00
2 1989-11-15 12:00:00 Temperatura 11.2 del 15-11-1989 10:00, Menor que la Mínima 11.3 15-11-1989 12:00 11.2 -- 11.3 2012-09-13 10:36:00
2 1989-12-10 12:00:00 Temperatura 10.5 del 10-12-1989 09:00, Menor que la Mínima 16.4 10-12-1989 12:00 10.5 -- 16.4 2012-09-13 10:37:00
2 1991-09-21 12:00:00 Temperatura 9.2 del 21-09-1991 06:00, Menor que la Mínima 9.7 21-09-1991 12:00 9.2 -- 9.7 2012-09-13 10:37:00
2 1991-10-25 12:00:00 Temperatura 8.6 del 25-10-1991 10:00, Menor que la Mínima 9.2 25-10-1991 12:00 8.6 -- 9.2 2012-09-13 10:37:00
2 1991-11-02 12:00:00 Temperatura 9.1 del 02-11-1991 09:00, Menor que la Mínima 9.3 02-11-1991 12:00 9.1 -- 9.3 2012-09-13 10:37:00
2 1992-01-01 12:00:00 Temperatura 14.0 del 01-01-1992 11:00, Menor que la Mínima 14.9 01-01-1992 12:00 14.0 -- 14.9 2012-09-13 10:37:00
2 1992-01-01 12:00:00 Temperatura 14.0 del 01-01-1992 11:00, Menor que la Mínima 14.9 01-01-1992 12:00 14.0 -- 14.9 2012-09-13 10:37:00
2 1992-02-19 12:00:00 Temperatura 12.7 del 19-02-1992 10:00, Menor que la Mínima 13.0 19-02-1992 12:00 12.7 -- 13.0 2012-09-13 10:37:00
2 1992-04-03 12:00:00 Temperatura 11.2 del 03-04-1992 09:00, Menor que la Mínima 11.4 03-04-1992 12:00 11.2 -- 11.4 2012-09-13 10:37:00
2 1992-10-23 12:00:00 Temperatura 10.2 del 23-10-1992 09:00, Menor que la Mínima 10.9 23-10-1992 12:00 10.2 -- 10.9 2012-09-13 10:37:00
2 1992-10-27 12:00:00 Temperatura 8.0 del 27-10-1992 10:00, Menor que la Mínima 8.9 27-10-1992 12:00 8.0 -- 8.9 2012-09-13 10:37:00
2 1992-12-10 12:00:00 Temperatura 11.2 del 10-12-1992 11:00, Menor que la Mínima 11.8 10-12-1992 12:00 11.2 -- 11.8 2012-09-13 10:37:00
2 1993-01-05 12:00:00 Temperatura 12.8 del 05-01-1993 10:00, Menor que la Mínima 13.0 05-01-1993 12:00 12.8 -- 13.0 2012-09-13 10:37:00
2 1993-07-16 12:00:00 Temperatura -0.2 del 16-07-1993 11:00, Menor que la Mínima 0.4 16-07-1993 12:00 -0.2 -- 0.4 2012-09-13 10:37:00
2 1993-11-23 12:00:00 Temperatura 13.6 del 23-11-1993 11:00, Menor que la Mínima 15.6 23-11-1993 12:00 13.6 -- 15.6 2012-09-13 10:37:00
2 1994-03-29 12:00:00 Temperatura 9.0 del 29-03-1994 09:00, Menor que la Mínima 9.8 29-03-1994 12:00 9.0 -- 9.8 2012-09-13 10:37:00
2 1994-11-10 12:00:00 Temperatura 10.0 del 10-11-1994 11:42, Menor que la Mínima 10.6 10-11-1994 12:00 10.0 -- 10.6 2012-09-13 10:38:00
2 1995-06-15 12:00:00 Temperatura 9.2 del 15-06-1995 01:00, Menor que la Mínima 10.5 15-06-1995 12:00 9.2 -- 10.5 2012-09-13 10:38:00
2 1995-12-27 12:00:00 Temperatura 15.4 del 27-12-1995 10:00, Menor que la Mínima 15.6 27-12-1995 12:00 15.4 -- 15.6 2012-09-13 10:38:00
2 1996-01-13 12:00:00 Temperatura 11.3 del 13-01-1996 10:00, Menor que la Mínima 11.5 13-01-1996 12:00 11.3 -- 11.5 2012-09-13 10:38:00
2 1996-01-30 12:00:00 Temperatura 14.0 del 30-01-1996 10:00, Menor que la Mínima 14.2 30-01-1996 12:00 14.0 -- 14.2 2012-09-13 10:38:00
2 1996-02-29 12:00:00 Temperatura 11.2 del 29-02-1996 10:00, Menor que la Mínima 12.0 29-02-1996 12:00 11.2 -- 12.0 2012-09-13 10:38:00
2 1996-03-06 12:00:00 Temperatura 12.6 del 06-03-1996 10:00, Menor que la Mínima 12.7 06-03-1996 12:00 12.6 -- 12.7 2012-09-13 10:38:00
2 1996-03-30 12:00:00 Temperatura 10.0 del 30-03-1996 11:00, Menor que la Mínima 10.5 30-03-1996 12:00 10.0 -- 10.5 2012-09-13 10:38:00
2 1996-04-14 12:00:00 Temperatura 7.4 del 14-04-1996 11:00, Menor que la Mínima 7.6 14-04-1996 12:00 7.4 -- 7.6 2012-09-13 10:38:00
2 1996-04-17 12:00:00 Temperatura 1.8 del 17-04-1996 11:00, Menor que la Mínima 6.6 17-04-1996 12:00 1.8 -- 6.6 2012-09-13 10:38:00
2 1996-06-04 12:00:00 Temperatura 0.8 del 04-06-1996 11:00, Menor que la Mínima 1.1 04-06-1996 12:00 0.8 -- 1.1 2012-09-13 10:38:00
2 1996-09-12 12:00:00 Temperatura 10.1 del 12-09-1996 01:00, Menor que la Mínima 10.3 12-09-1996 12:00 10.1 -- 10.3 2012-09-13 10:38:00
2 1996-09-14 12:00:00 Temperatura 3.4 del 14-09-1996 11:00, Menor que la Mínima 3.8 14-09-1996 12:00 3.4 -- 3.8 2012-09-13 10:38:00
2 1996-10-14 12:00:00 Temperatura 7.6 del 14-10-1996 10:00, Menor que la Mínima 8.3 14-10-1996 12:00 7.6 -- 8.3 2012-09-13 10:38:00
2 1996-11-13 12:00:00 Temperatura 10.3 del 13-11-1996 10:00, Menor que la Mínima 10.4 13-11-1996 12:00 10.3 -- 10.4 2012-09-13 10:38:00
2 1996-11-30 12:00:00 Temperatura 12.8 del 30-11-1996 10:00, Menor que la Mínima 12.9 30-11-1996 12:00 12.8 -- 12.9 2012-09-13 10:38:00
2 1996-12-17 12:00:00 Temperatura 14.8 del 17-12-1996 10:00, Menor que la Mínima 15.0 17-12-1996 12:00 14.8 -- 15.0 2012-09-13 10:38:00
2 1996-12-19 12:00:00 Temperatura 12.5 del 19-12-1996 10:00, Menor que la Mínima 14.0 19-12-1996 12:00 12.5 -- 14.0 2012-09-13 10:38:00
2 1997-02-01 12:00:00 Temperatura 13.2 del 01-02-1997 10:00, Menor que la Mínima 13.3 01-02-1997 12:00 13.2 -- 13.3 2012-09-13 10:38:00
2 1997-02-24 12:00:00 Temperatura 11.6 del 24-02-1997 10:00, Menor que la Mínima 12.4 24-02-1997 12:00 11.6 -- 12.4 2012-09-13 10:38:00
2 1997-02-25 12:00:00 Temperatura 12.6 del 25-02-1997 11:00, Menor que la Mínima 13.9 25-02-1997 12:00 12.6 -- 13.9 2012-09-13 10:38:00
2 1997-03-09 12:00:00 Temperatura 15.4 del 09-03-1997 11:00, Menor que la Mínima 15.5 09-03-1997 12:00 15.4 -- 15.5 2012-09-13 10:38:00
2 1997-03-25 12:00:00 Temperatura 10.6 del 25-03-1997 11:00, Menor que la Mínima 10.7 25-03-1997 12:00 10.6 -- 10.7 2012-09-13 10:38:00
2 1997-04-05 12:00:00 Temperatura 7.9 del 05-04-1997 11:00, Menor que la Mínima 9.9 05-04-1997 12:00 7.9 -- 9.9 2012-09-13 10:38:00
2 1997-04-16 12:00:00 Temperatura 11.3 del 16-04-1997 11:00, Menor que la Mínima 11.6 16-04-1997 12:00 11.3 -- 11.6 2012-09-13 10:38:00
2 1997-08-22 12:00:00 Temperatura 2.3 del 22-08-1997 11:00, Menor que la Mínima 2.4 22-08-1997 12:00 2.3 -- 2.4 2012-09-13 10:38:00
2 1997-09-28 12:00:00 Temperatura 8.2 del 28-09-1997 11:00, Menor que la Mínima 8.3 28-09-1997 12:00 8.2 -- 8.3 2012-09-13 10:38:00
2 1997-12-01 12:00:00 Temperatura 13.2 del 01-12-1997 10:00, Menor que la Mínima 18.0 01-12-1997 12:00 13.2 -- 18.0 2012-09-13 10:38:00
2 1998-07-14 12:00:00 Temperatura 3.3 del 14-07-1998 06:45, Menor que la Mínima 3.4 14-07-1998 12:00 3.3 -- 3.4 2012-09-13 10:39:00
2 1999-02-14 12:00:00 Temperatura 10.8 del 14-02-1999 10:00, Menor que la Mínima 15.0 14-02-1999 12:00 10.8 -- 15.0 2012-09-13 10:39:00
2 1999-05-09 12:00:00 Temperatura 10.5 del 09-05-1999 01:00, Menor que la Mínima 10.7 09-05-1999 12:00 10.5 -- 10.7 2012-09-13 10:39:00
2 1999-05-27 12:00:00 Temperatura 9.6 del 27-05-1999 01:00, Menor que la Mínima 12.2 27-05-1999 12:00 9.6 -- 12.2 2012-09-13 10:39:00
2 2000-02-13 12:00:00 Temperatura 11.8 del 13-02-2000 11:00, Menor que la Mínima 14.2 13-02-2000 12:00 11.8 -- 14.2 2012-09-13 10:39:00
2 2000-04-15 12:00:00 Temperatura 12.4 del 15-04-2000 01:00, Menor que la Mínima 12.5 15-04-2000 12:00 12.4 -- 12.5 2012-09-13 10:39:00
2 2000-04-20 12:00:00 Temperatura 10.6 del 20-04-2000 01:00, Menor que la Mínima 10.8 20-04-2000 12:00 10.6 -- 10.8 2012-09-13 10:39:00
2 2000-09-05 12:00:00 Temperatura 8.8 del 05-09-2000 01:00, Menor que la Mínima 9.0 05-09-2000 12:00 8.8 -- 9.0 2012-09-13 10:39:00
2 2001-07-12 12:00:00 Temperatura 8.4 del 12-07-2001 02:00, Menor que la Mínima 9.0 12-07-2001 12:00 8.4 -- 9.0 2012-09-13 10:40:00
2 2001-11-25 12:00:00 Temperatura 9.6 del 25-11-2001 11:00, Menor que la Mínima 11.2 25-11-2001 12:00 9.6 -- 11.2 2012-09-13 10:40:00
2 2003-08-20 12:00:00 Temperatura 10.0 del 20-08-2003 02:00, Menor que la Mínima 10.1 20-08-2003 12:00 10.0 -- 10.1 2012-09-13 10:40:00
2 2005-10-27 12:00:00 Temperatura 8.2 del 27-10-2005 11:00, Menor que la Mínima 9.2 27-10-2005 12:00 8.2 -- 9.2 2012-09-13 10:41:00
2 2005-11-10 12:00:00 Temperatura 11.4 del 10-11-2005 11:00, Menor que la Mínima 12.0 10-11-2005 12:00 11.4 -- 12.0 2012-09-13 10:41:00
2 1952-03-20 17:00:00 Variación horaria de Intensidad del viento fuera de rango (1 hora Antes) 40 - 5 2014-04-28 14:42:00
2 1952-03-20 18:00:00 Variación horaria de Intensidad del viento fuera de rango (1 hora Antes) 6 - 40 2014-04-28 14:42:00
2 1952-04-04 16:00:00 Variación horaria de Intensidad del viento fuera de rango (1 hora Antes) 96 - 5 2014-04-28 21:20:00
2 1952-04-04 16:00:00 Variación Tri-horaria de Intensidad del viento fuera de rango (3 hora Antes) 96 - 4 2014-04-28 21:20:00
2 1952-04-04 17:00:00 Variación horaria de Intensidad del viento fuera de rango (1 hora Antes) 6 - 96 2014-04-28 21:20:00
2 1952-04-09 17:00:00 Variación horaria de Intensidad del viento fuera de rango (1 hora Antes) 33 - 2 2014-04-29 14:47:00
2 1952-08-20 23:00:00 Variación horaria de Intensidad del viento fuera de rango (1 hora Antes) 90 - 12 2014-05-14 15:26:00
2 1952-08-21 00:00:00 Variación horaria de Intensidad del viento fuera de rango (1 hora Antes) 6 - 90 2014-05-14 16:00:00
2 1952-08-31 00:00:00 Variación horaria de Intensidad del viento fuera de rango (1 hora Antes) 96 - 7 2014-05-19 15:18:00
2 1952-08-31 01:00:00 Variación horaria de Intensidad del viento fuera de rango (1 hora Antes) 3 - 96 2014-05-19 15:18:00
2 1952-08-31 03:00:00 Variación Tri-horaria de Intensidad del viento fuera de rango (3 hora Antes) 0 - 96 2014-05-19 15:18:00
2 1953-05-16 04:00:00 Variación horaria de Intensidad del viento fuera de rango (1 hora Antes) 45 - 5 2013-11-15 19:33:00
2 1953-05-16 09:00:00 Variación horaria de Intensidad del viento fuera de rango (1 hora Antes) 10 - 45 2013-11-15 19:34:00
2 1972-12-16 17:00:00 Variación horaria de Intensidad del viento fuera de rango (1 hora Antes) 99 - 3 2012-09-13 11:42:00
2 1972-12-16 17:00:00 Variación Tri-horaria de Intensidad del viento fuera de rango (3 hora Antes) 99 - 3 2012-09-13 11:42:00
2 1972-12-16 18:00:00 Variación horaria de Intensidad del viento fuera de rango (1 hora Antes) 3 - 99 2012-09-13 11:42:00
2 1972-12-16 20:00:00 Variación Tri-horaria de Intensidad del viento fuera de rango (3 hora Antes) 8 - 99 2012-09-13 11:42:00
2 1976-01-08 00:00:00 Variación horaria de Intensidad del viento fuera de rango (1 hora Antes) 40 - 6 2012-09-13 12:05:00
2 1976-01-08 01:00:00 Variación horaria de Intensidad del viento fuera de rango (1 hora Antes) 8 - 40 2012-09-13 12:05:00
2 1976-02-29 23:00:00 Variación horaria de Intensidad del viento fuera de rango (1 hora Antes) 99 - 5 2012-09-13 12:06:00
2 1976-02-29 23:00:00 Variación Tri-horaria de Intensidad del viento fuera de rango (3 hora Antes) 99 - 5 2012-09-13 12:06:00
2 1976-03-01 00:00:00 Variación horaria de Intensidad del viento fuera de rango (1 hora Antes) 10 - 99 2012-09-13 12:06:00
2 1982-05-07 12:00:00 Variación horaria de Intensidad del viento fuera de rango (1 hora Antes) 40 - 0 2012-09-13 12:54:00
2 1982-05-07 13:00:00 Variación horaria de Intensidad del viento fuera de rango (1 hora Antes) 0 - 40 2012-09-13 12:54:00
2 1986-05-01 01:00:00 Variación horaria de Intensidad del viento fuera de rango (1 hora Antes) 31 - 0 2012-09-13 13:24:00
2 1952-01-28 00:00:00 Temperatura 33.0 del 27-01-1952 17:00, Mayor que la Máxima 31.1 28-01-1952 00:00 33.0 -- 31.1 2014-06-03 20:08:00
2 1952-02-15 00:00:00 Temperatura 29.7 del 14-02-1952 15:00, Mayor que la Máxima 29.2 15-02-1952 00:00 29.7 -- 29.2 2014-06-03 20:27:00
2 1952-02-19 00:00:00 Temperatura 29.6 del 18-02-1952 17:00, Mayor que la Máxima 29.3 19-02-1952 00:00 29.6 -- 29.3 2014-06-03 20:28:00
2 1952-02-25 00:00:00 Temperatura 28.7 del 24-02-1952 15:00, Mayor que la Máxima 28.5 25-02-1952 00:00 28.7 -- 28.5 2014-06-03 20:29:00
2